Time,TemperatureF,DewpointF,PressureIn,WindDirection,WindDirectionDegrees,WindSpeedMPH,WindSpeedGustMPH,Humidity,HourlyPrecipIn,Conditions,Clouds,dailyrainin,SoftwareType,DateUTC
2013-04-21 00:00:00,30.4,3.4,30.09,South,180,4.7,4.7,31,0.00,,,0.00,VWS V14.01,2013-04-21 05:00:00,
2013-04-21 00:01:00,30.4,3.4,30.09,SSW,202,6.0,6.0,31,0.00,,,0.00,VWS V14.01,2013-04-21 05:01:00,
2013-04-21 00:02:00,30.4,3.4,30.09,SSE,158,0.0,2.0,31,0.00,,,0.00,VWS V14.01,2013-04-21 05:02:00,
2013-04-21 00:03:00,30.4,3.4,30.09,SSW,202,7.4,7.4,31,0.00,,,0.00,VWS V14.01,2013-04-21 05:03:00,
2013-04-21 00:04:00,30.4,3.4,30.09,SSW,202,3.4,3.4,31,0.00,,,0.00,VWS V14.01,2013-04-21 05:04:00,
2013-04-21 00:05:00,30.4,3.4,30.09,South,180,4.0,4.0,31,0.00,,,0.00,VWS V14.01,2013-04-21 05:05:00,
2013-04-21 00:06:00,30.4,3.4,30.09,SSW,202,8.1,8.1,31,0.00,,,0.00,VWS V14.01,2013-04-21 05:06:00,
2013-04-21 00:07:00,30.6,3.5,30.09,South,180,7.4,7.4,31,0.00,,,0.00,VWS V14.01,2013-04-21 05:07:00,
2013-04-21 00:08:00,30.6,3.5,30.09,ESE,112,6.7,6.7,31,0.00,,,0.00,VWS V14.01,2013-04-21 05:08:00,
2013-04-21 00:09:00,30.6,3.5,30.09,SSW,202,2.7,2.7,31,0.00,,,0.00,VWS V14.01,2013-04-21 05:09:00,
2013-04-21 00:10:00,30.6,3.5,30.09,SSW,202,0.0,2.2,31,0.00,,,0.00,VWS V14.01,2013-04-21 05:10:00,
2013-04-21 00:11:00,30.6,3.5,30.09,SE,135,6.7,6.7,31,0.00,,,0.00,VWS V14.01,2013-04-21 05:11:00,
2013-04-21 00:12:00,30.6,3.5,30.09,South,180,9.4,9.4,31,0.00,,,0.00,VWS V14.01,2013-04-21 05:12:00,
2013-04-21 00:13:00,30.6,3.5,30.09,SSE,158,6.0,6.0,31,0.00,,,0.00,VWS V14.01,2013-04-21 05:13:00,
2013-04-21 00:14:00,30.6,3.5,30.09,SSE,158,6.0,6.0,31,0.00,,,0.00,VWS V14.01,2013-04-21 05:14:00,
2013-04-21 00:15:00,30.6,3.5,30.09,SSW,202,0.0,2.0,31,0.00,,,0.00,VWS V14.01,2013-04-21 05:15:00,
2013-04-21 00:16:00,30.6,3.5,30.09,SSW,202,0.0,0.0,31,0.00,,,0.00,VWS V14.01,2013-04-21 05:16:00,
2013-04-21 00:17:00,30.7,3.7,30.09,SSW,202,7.4,7.4,31,0.00,,,0.00,VWS V14.01,2013-04-21 05:17:00,
2013-04-21 00:18:00,30.7,3.7,30.09,South,180,7.4,7.4,31,0.00,,,0.00,VWS V14.01,2013-04-21 05:18:00,
2013-04-21 00:19:00,30.7,3.7,30.09,SSW,202,4.7,4.7,31,0.00,,,0.00,VWS V14.01,2013-04-21 05:19:00,
2013-04-21 00:20:00,30.7,3.7,30.09,South,180,4.0,4.0,31,0.00,,,0.00,VWS V14.01,2013-04-21 05:20:00,
2013-04-21 00:21:00,30.7,3.7,30.09,SW,225,0.0,1.3,31,0.00,,,0.00,VWS V14.01,2013-04-21 05:21:00,
2013-04-21 00:22:00,30.7,3.7,30.09,SSW,202,8.7,8.7,31,0.00,,,0.00,VWS V14.01,2013-04-21 05:22:00,
2013-04-21 00:23:00,30.7,3.7,30.09,SSE,158,6.7,6.7,31,0.00,,,0.00,VWS V14.01,2013-04-21 05:23:00,
2013-04-21 00:24:00,30.7,3.7,30.09,South,180,6.0,6.0,31,0.00,,,0.00,VWS V14.01,2013-04-21 05:24:00,
2013-04-21 00:25:00,30.9,3.8,30.09,SSW,202,6.7,6.7,31,0.00,,,0.00,VWS V14.01,2013-04-21 05:25:00,
2013-04-21 00:26:00,30.9,3.8,30.09,SSW,202,6.7,6.7,31,0.00,,,0.00,VWS V14.01,2013-04-21 05:26:00,
2013-04-21 00:27:00,30.9,3.8,30.09,SSW,202,0.0,2.2,31,0.00,,,0.00,VWS V14.01,2013-04-21 05:27:00,
2013-04-21 00:28:00,30.9,3.8,30.09,SSW,202,3.4,3.4,31,0.00,,,0.00,VWS V14.01,2013-04-21 05:28:00,
2013-04-21 00:29:00,30.9,3.8,30.09,SSW,202,6.7,6.7,31,0.00,,,0.00,VWS V14.01,2013-04-21 05:29:00,
2013-04-21 00:30:00,30.9,3.8,30.09,SSW,202,4.7,4.7,31,0.00,,,0.00,VWS V14.01,2013-04-21 05:30:00,
2013-04-21 00:31:00,30.9,3.8,30.09,SSW,202,4.7,4.7,31,0.00,,,0.00,VWS V14.01,2013-04-21 05:31:00,
2013-04-21 00:32:00,30.7,3.7,30.09,SSE,158,0.0,1.6,31,0.00,,,0.00,VWS V14.01,2013-04-21 05:32:00,
2013-04-21 00:33:00,30.7,3.7,30.09,SSW,202,0.0,1.1,31,0.00,,,0.00,VWS V14.01,2013-04-21 05:33:00,
2013-04-21 00:34:00,30.7,3.7,30.09,South,180,4.0,4.0,31,0.00,,,0.00,VWS V14.01,2013-04-21 05:34:00,
2013-04-21 00:35:00,30.7,3.7,30.09,SSW,202,6.0,6.0,31,0.00,,,0.00,VWS V14.01,2013-04-21 05:35:00,
2013-04-21 00:36:00,30.7,3.7,30.09,SSW,202,7.4,7.4,31,0.00,,,0.00,VWS V14.01,2013-04-21 05:36:00,
2013-04-21 00:37:00,30.9,3.8,30.09,SSW,202,7.4,7.4,31,0.00,,,0.00,VWS V14.01,2013-04-21 05:37:00,
2013-04-21 00:38:00,30.9,3.8,30.09,SSW,202,6.0,6.0,31,0.00,,,0.00,VWS V14.01,2013-04-21 05:38:00,
2013-04-21 00:39:00,30.9,3.8,30.09,SSW,202,9.4,9.4,31,0.00,,,0.00,VWS V14.01,2013-04-21 05:39:00,
2013-04-21 00:40:00,30.9,3.8,30.09,SSW,202,6.0,6.0,31,0.00,,,0.00,VWS V14.01,2013-04-21 05:40:00,
2013-04-21 00:41:00,31.1,4.0,30.12,SSW,202,7.4,7.4,31,0.00,,,0.00,VWS V14.01,2013-04-21 05:41:00,
2013-04-21 00:42:00,31.1,4.0,30.12,SSW,202,9.4,9.4,31,0.00,,,0.00,VWS V14.01,2013-04-21 05:42:00,
2013-04-21 00:43:00,31.1,4.0,30.12,SE,135,8.1,8.1,31,0.00,,,0.00,VWS V14.01,2013-04-21 05:43:00,
2013-04-21 00:44:00,31.1,4.0,30.12,South,180,6.7,6.7,31,0.00,,,0.00,VWS V14.01,2013-04-21 05:44:00,
2013-04-21 00:45:00,31.1,4.0,30.12,South,180,8.1,8.1,31,0.00,,,0.00,VWS V14.01,2013-04-21 05:45:00,
2013-04-21 00:46:00,31.1,4.0,30.12,SSW,202,7.4,7.4,31,0.00,,,0.00,VWS V14.01,2013-04-21 05:46:00,
2013-04-21 00:47:00,31.1,4.0,30.12,SSW,202,3.4,3.4,31,0.00,,,0.00,VWS V14.01,2013-04-21 05:47:00,
2013-04-21 00:48:00,31.1,4.0,30.12,South,180,3.4,3.4,31,0.00,,,0.00,VWS V14.01,2013-04-21 05:48:00,
2013-04-21 00:49:00,31.1,4.0,30.12,SSE,158,8.1,8.1,31,0.00,,,0.00,VWS V14.01,2013-04-21 05:49:00,
2013-04-21 00:50:00,31.1,4.0,30.12,South,180,2.7,2.7,31,0.00,,,0.00,VWS V14.01,2013-04-21 05:50:00,
2013-04-21 00:51:00,31.1,4.0,30.12,South,180,12.8,12.8,31,0.00,,,0.00,VWS V14.01,2013-04-21 05:51:00,
2013-04-21 00:52:00,31.1,4.7,30.12,South,180,0.0,4.3,32,0.00,,,0.00,VWS V14.01,2013-04-21 05:52:00,
2013-04-21 00:53:00,31.1,4.7,30.12,SSW,202,7.4,7.4,32,0.00,,,0.00,VWS V14.01,2013-04-21 05:53:00,
2013-04-21 00:54:00,31.3,4.9,30.12,SE,135,7.4,7.4,32,0.00,,,0.00,VWS V14.01,2013-04-21 05:54:00,
2013-04-21 00:55:00,31.3,4.9,30.12,SW,225,10.7,10.7,32,0.00,,,0.00,VWS V14.01,2013-04-21 05:55:00,
2013-04-21 00:56:00,31.3,5.5,30.09,SSW,202,3.4,3.6,33,0.00,,,0.00,VWS V14.01,2013-04-21 05:56:00,
2013-04-21 00:57:00,31.3,5.5,30.09,ESE,112,4.7,4.7,33,0.00,,,0.00,VWS V14.01,2013-04-21 05:57:00,
2013-04-21 00:58:00,31.3,5.5,30.09,SSE,158,4.7,4.7,33,0.00,,,0.00,VWS V14.01,2013-04-21 05:58:00,
2013-04-21 00:59:00,31.3,6.2,30.09,SE,135,8.7,8.7,34,0.00,,,0.00,VWS V14.01,2013-04-21 05:59:00,
2013-04-21 01:00:00,31.3,6.8,30.09,SE,135,8.1,8.1,35,0.00,,,0.25,VWS V14.01,2013-04-21 06:00:00,
2013-04-21 01:01:00,31.5,8.2,30.09,SSE,158,10.7,10.7,37,0.00,,,0.00,VWS V14.01,2013-04-21 06:01:00,
2013-04-21 01:02:00,31.5,9.4,30.09,SSE,158,12.1,12.1,39,0.00,,,0.00,VWS V14.01,2013-04-21 06:02:00,
2013-04-21 01:03:00,31.3,9.2,30.09,SE,135,7.4,7.4,39,0.00,,,0.00,VWS V14.01,2013-04-21 06:03:00,
2013-04-21 01:04:00,31.3,9.8,30.09,SW,225,4.0,4.0,40,0.00,,,0.00,VWS V14.01,2013-04-21 06:04:00,
2013-04-21 01:05:00,31.3,9.8,30.09,SSW,202,7.4,7.4,40,0.00,,,0.00,VWS V14.01,2013-04-21 06:05:00,
2013-04-21 01:06:00,31.3,9.8,30.09,South,180,10.7,10.7,40,0.00,,,0.00,VWS V14.01,2013-04-21 06:06:00,
2013-04-21 01:07:00,31.3,10.3,30.09,SSW,202,4.7,4.7,41,0.00,,,0.00,VWS V14.01,2013-04-21 06:07:00,
2013-04-21 01:08:00,31.3,10.3,30.09,South,180,3.4,3.4,41,0.00,,,0.00,VWS V14.01,2013-04-21 06:08:00,
2013-04-21 01:09:00,31.3,10.3,30.09,SSE,158,3.4,3.4,41,0.00,,,0.00,VWS V14.01,2013-04-21 06:09:00,
2013-04-21 01:10:00,31.3,10.3,30.09,South,180,6.0,6.0,41,0.00,,,0.00,VWS V14.01,2013-04-21 06:10:00,
2013-04-21 01:11:00,31.3,10.3,30.09,SE,135,4.7,4.7,41,0.00,,,0.00,VWS V14.01,2013-04-21 06:11:00,
2013-04-21 01:12:00,31.1,10.2,30.09,SSE,158,4.7,4.7,41,0.00,,,0.00,VWS V14.01,2013-04-21 06:12:00,
2013-04-21 01:13:00,31.1,10.2,30.09,SSE,158,4.7,4.7,41,0.00,,,0.00,VWS V14.01,2013-04-21 06:13:00,
2013-04-21 01:14:00,31.1,10.2,30.09,SSW,202,4.0,4.0,41,0.00,,,0.00,VWS V14.01,2013-04-21 06:14:00,
2013-04-21 01:15:00,31.1,10.2,30.09,SSW,202,4.7,4.7,41,0.00,,,0.00,VWS V14.01,2013-04-21 06:15:00,
2013-04-21 01:16:00,31.1,10.2,30.09,SSE,158,3.4,3.4,41,0.00,,,0.00,VWS V14.01,2013-04-21 06:16:00,
2013-04-21 01:17:00,31.1,10.7,30.09,SSE,158,3.4,3.4,42,0.00,,,0.00,VWS V14.01,2013-04-21 06:17:00,
2013-04-21 01:18:00,31.1,10.7,30.09,SE,135,4.0,4.0,42,0.00,,,0.00,VWS V14.01,2013-04-21 06:18:00,
2013-04-21 01:19:00,31.1,10.7,30.09,SSE,158,4.7,4.7,42,0.00,,,0.00,VWS V14.01,2013-04-21 06:19:00,
2013-04-21 01:20:00,31.1,10.7,30.09,South,180,6.0,6.0,42,0.00,,,0.00,VWS V14.01,2013-04-21 06:20:00,
2013-04-21 01:21:00,31.1,10.7,30.09,SSW,202,4.0,4.0,42,0.00,,,0.00,VWS V14.01,2013-04-21 06:21:00,
2013-04-21 01:22:00,31.1,10.7,30.09,South,180,4.0,4.0,42,0.00,,,0.00,VWS V14.01,2013-04-21 06:22:00,
2013-04-21 01:23:00,31.1,10.7,30.09,WSW,248,6.7,6.7,42,0.00,,,0.00,VWS V14.01,2013-04-21 06:23:00,
2013-04-21 01:24:00,30.9,10.5,30.09,SE,135,4.0,4.0,42,0.00,,,0.00,VWS V14.01,2013-04-21 06:24:00,
2013-04-21 01:25:00,31.1,10.7,30.09,South,180,6.7,6.7,42,0.00,,,0.00,VWS V14.01,2013-04-21 06:25:00,
2013-04-21 01:26:00,31.1,11.2,30.09,SSE,158,4.0,4.0,43,0.00,,,0.00,VWS V14.01,2013-04-21 06:26:00,
2013-04-21 01:27:00,30.9,11.1,30.09,SW,225,3.4,3.4,43,0.00,,,0.00,VWS V14.01,2013-04-21 06:27:00,
2013-04-21 01:28:00,30.9,11.1,30.09,SE,135,3.4,3.4,43,0.00,,,0.00,VWS V14.01,2013-04-21 06:28:00,
2013-04-21 01:29:00,30.9,11.1,30.09,SSW,202,0.0,1.3,43,0.00,,,0.00,VWS V14.01,2013-04-21 06:29:00,
2013-04-21 01:30:00,30.9,11.1,30.09,South,180,3.4,3.4,43,0.00,,,0.00,VWS V14.01,2013-04-21 06:30:00,
2013-04-21 01:31:00,30.9,11.1,30.09,SSE,158,4.7,4.7,43,0.00,,,0.00,VWS V14.01,2013-04-21 06:31:00,
2013-04-21 01:32:00,30.7,10.9,30.09,South,180,4.7,4.7,43,0.00,,,0.00,VWS V14.01,2013-04-21 06:32:00,
2013-04-21 01:33:00,30.7,10.4,30.09,SSW,202,0.0,1.6,42,0.00,,,0.00,VWS V14.01,2013-04-21 06:33:00,
2013-04-21 01:34:00,30.7,10.9,30.09,SW,225,0.0,0.0,43,0.00,,,0.00,VWS V14.01,2013-04-21 06:34:00,
2013-04-21 01:35:00,30.7,10.9,30.09,SW,225,0.0,0.0,43,0.00,,,0.00,VWS V14.01,2013-04-21 06:35:00,
2013-04-21 01:36:00,30.7,10.9,30.09,SSE,158,4.0,4.0,43,0.00,,,0.00,VWS V14.01,2013-04-21 06:36:00,
2013-04-21 01:37:00,30.7,10.9,30.09,South,180,2.7,2.7,43,0.00,,,0.00,VWS V14.01,2013-04-21 06:37:00,
2013-04-21 01:38:00,30.7,10.9,30.09,SSE,158,7.4,7.4,43,0.00,,,0.00,VWS V14.01,2013-04-21 06:38:00,
2013-04-21 01:39:00,30.7,11.4,30.09,SSE,158,7.4,7.4,44,0.00,,,0.00,VWS V14.01,2013-04-21 06:39:00,
2013-04-21 01:40:00,30.7,11.4,30.09,SSE,158,6.0,6.0,44,0.00,,,0.00,VWS V14.01,2013-04-21 06:40:00,
2013-04-21 01:41:00,30.7,10.9,30.06,SSW,202,0.0,2.0,43,0.00,,,0.00,VWS V14.01,2013-04-21 06:41:00,
2013-04-21 01:43:00,30.7,11.4,30.06,SSW,202,0.0,0.0,44,0.00,,,0.00,VWS V14.01,2013-04-21 06:43:00,
2013-04-21 01:44:00,30.6,10.7,30.06,SSW,202,0.0,0.0,43,0.00,,,0.00,VWS V14.01,2013-04-21 06:44:00,
2013-04-21 01:45:00,30.7,11.4,30.06,SSE,158,4.7,4.7,44,0.00,,,0.00,VWS V14.01,2013-04-21 06:45:00,
2013-04-21 01:46:00,30.7,11.9,30.06,SE,135,8.1,8.1,45,0.00,,,0.00,VWS V14.01,2013-04-21 06:46:00,
2013-04-21 01:47:00,30.6,11.8,30.06,SW,225,3.4,3.4,45,0.00,,,0.00,VWS V14.01,2013-04-21 06:47:00,
2013-04-21 01:48:00,30.6,11.8,30.06,SW,225,4.0,4.0,45,0.00,,,0.00,VWS V14.01,2013-04-21 06:48:00,
2013-04-21 01:49:00,30.6,11.8,30.06,WSW,248,3.4,3.4,45,0.00,,,0.00,VWS V14.01,2013-04-21 06:49:00,
2013-04-21 01:50:00,30.7,12.9,30.06,SSW,202,4.7,4.7,47,0.00,,,0.00,VWS V14.01,2013-04-21 06:50:00,
2013-04-21 01:51:00,30.6,12.3,30.06,SSW,202,2.7,2.7,46,0.00,,,0.00,VWS V14.01,2013-04-21 06:51:00,
2013-04-21 01:52:00,30.6,12.3,30.06,SE,135,8.1,8.1,46,0.00,,,0.25,VWS V14.01,2013-04-21 06:52:00,
2013-04-21 01:53:00,30.6,12.7,30.06,SSW,202,8.1,8.1,47,0.00,,,0.00,VWS V14.01,2013-04-21 06:53:00,
2013-04-21 01:54:00,30.6,13.2,30.06,SSE,158,6.0,6.0,48,0.00,,,0.00,VWS V14.01,2013-04-21 06:54:00,
2013-04-21 01:55:00,30.6,12.7,30.06,SSE,158,0.0,2.0,47,0.00,,,0.00,VWS V14.01,2013-04-21 06:55:00,
2013-04-21 01:56:00,30.7,13.4,30.03,SSW,202,10.1,10.1,48,0.00,,,0.00,VWS V14.01,2013-04-21 06:56:00,
2013-04-21 01:57:00,30.7,14.3,30.03,SW,225,0.0,3.6,50,0.00,,,0.00,VWS V14.01,2013-04-21 06:57:00,
2013-04-21 01:58:00,30.6,13.7,30.03,SW,225,0.0,2.0,49,0.00,,,0.00,VWS V14.01,2013-04-21 06:58:00,
2013-04-21 01:59:00,30.6,14.1,30.03,South,180,4.7,4.7,50,0.00,,,0.00,VWS V14.01,2013-04-21 06:59:00,
2013-04-21 02:00:00,30.6,14.1,30.03,SSW,202,7.4,7.4,50,0.00,,,0.00,VWS V14.01,2013-04-21 07:00:00,
2013-04-21 02:01:00,30.6,14.1,30.03,South,180,2.7,3.4,50,0.00,,,0.00,VWS V14.01,2013-04-21 07:01:00,
2013-04-21 02:02:00,30.6,14.1,30.03,South,180,2.7,3.4,50,0.00,,,0.00,VWS V14.01,2013-04-21 07:02:00,
2013-04-21 02:03:00,30.6,14.1,30.03,SSE,158,6.0,6.0,50,0.00,,,0.00,VWS V14.01,2013-04-21 07:03:00,
2013-04-21 02:04:00,30.6,14.1,30.03,SE,135,6.0,6.0,50,0.00,,,0.25,VWS V14.01,2013-04-21 07:04:00,
2013-04-21 02:05:00,30.6,14.6,30.03,SSE,158,4.0,4.0,51,0.00,,,0.00,VWS V14.01,2013-04-21 07:05:00,
2013-04-21 02:06:00,30.6,14.6,30.03,South,180,3.4,3.4,51,0.00,,,0.00,VWS V14.01,2013-04-21 07:06:00,
2013-04-21 02:07:00,30.6,14.6,30.03,South,180,3.4,3.4,51,0.00,,,0.00,VWS V14.01,2013-04-21 07:07:00,
2013-04-21 02:08:00,30.6,14.1,30.03,NNE,22,3.4,3.4,50,0.00,,,0.00,VWS V14.01,2013-04-21 07:08:00,
2013-04-21 02:09:00,30.6,14.6,30.03,SSE,158,6.0,6.0,51,0.00,,,0.00,VWS V14.01,2013-04-21 07:09:00,
2013-04-21 02:10:00,30.6,14.6,30.03,SSW,202,6.7,6.7,51,0.00,,,0.00,VWS V14.01,2013-04-21 07:10:00,
2013-04-21 02:11:00,30.7,14.8,30.06,South,180,6.0,6.0,51,0.00,,,0.25,VWS V14.01,2013-04-21 07:11:00,
2013-04-21 02:12:00,30.6,15.0,30.06,SSW,202,0.0,2.2,52,0.00,,,0.00,VWS V14.01,2013-04-21 07:12:00,
2013-04-21 02:13:00,30.6,15.0,30.06,NNE,22,7.4,7.4,52,0.00,,,0.00,VWS V14.01,2013-04-21 07:13:00,
2013-04-21 02:14:00,30.7,15.2,30.06,SSW,202,6.7,6.7,52,0.00,,,0.00,VWS V14.01,2013-04-21 07:14:00,
2013-04-21 02:15:00,30.7,15.6,30.06,South,180,3.4,4.3,53,0.00,,,0.00,VWS V14.01,2013-04-21 07:15:00,
2013-04-21 02:16:00,30.7,15.2,30.06,SW,225,6.7,6.7,52,0.00,,,0.00,VWS V14.01,2013-04-21 07:16:00,
2013-04-21 02:17:00,30.7,15.2,30.06,SW,225,4.0,4.0,52,0.00,,,0.00,VWS V14.01,2013-04-21 07:17:00,
2013-04-21 02:18:00,30.7,15.2,30.06,SW,225,4.0,4.0,52,0.00,,,0.00,VWS V14.01,2013-04-21 07:18:00,
2013-04-21 02:19:00,30.7,15.2,30.06,ESE,112,4.7,4.7,52,0.00,,,0.00,VWS V14.01,2013-04-21 07:19:00,
2013-04-21 02:20:00,30.7,15.2,30.06,NNE,22,4.7,4.7,52,0.00,,,0.00,VWS V14.01,2013-04-21 07:20:00,
2013-04-21 02:21:00,30.7,15.2,30.06,NNE,22,4.7,4.7,52,0.00,,,0.00,VWS V14.01,2013-04-21 07:21:00,
2013-04-21 02:22:00,30.7,15.6,30.06,East,90,7.4,7.4,53,0.00,,,0.00,VWS V14.01,2013-04-21 07:22:00,
2013-04-21 02:23:00,30.7,15.6,30.06,West,270,2.7,2.7,53,0.00,,,0.00,VWS V14.01,2013-04-21 07:23:00,
2013-04-21 02:24:00,30.9,16.2,30.06,SSE,158,4.7,4.7,54,0.00,,,0.00,VWS V14.01,2013-04-21 07:24:00,
2013-04-21 02:25:00,30.7,16.1,30.06,SSW,202,4.7,4.7,54,0.00,,,0.00,VWS V14.01,2013-04-21 07:25:00,
2013-04-21 02:26:00,30.7,16.1,30.06,SE,135,2.7,2.7,54,0.00,,,0.00,VWS V14.01,2013-04-21 07:26:00,
2013-04-21 02:27:00,30.7,16.1,30.06,SSE,158,8.1,8.1,54,0.00,,,0.00,VWS V14.01,2013-04-21 07:27:00,
2013-04-21 02:28:00,30.7,16.5,30.06,SSE,158,6.7,6.7,55,0.00,,,0.00,VWS V14.01,2013-04-21 07:28:00,
2013-04-21 02:29:00,30.7,16.5,30.06,SSW,202,2.7,2.9,55,0.00,,,0.00,VWS V14.01,2013-04-21 07:29:00,
2013-04-21 02:30:00,30.7,16.5,30.06,SE,135,4.0,4.0,55,0.00,,,0.00,VWS V14.01,2013-04-21 07:30:00,
2013-04-21 02:31:00,30.7,16.1,30.06,SSE,158,3.4,3.4,54,0.00,,,0.00,VWS V14.01,2013-04-21 07:31:00,
2013-04-21 02:32:00,30.7,16.5,30.06,SSW,202,0.0,1.3,55,0.00,,,0.00,VWS V14.01,2013-04-21 07:32:00,
2013-04-21 02:33:00,30.7,16.1,30.06,SW,225,10.7,10.7,54,0.00,,,0.00,VWS V14.01,2013-04-21 07:33:00,
2013-04-21 02:34:00,30.9,16.7,30.06,SE,135,4.7,4.7,55,0.00,,,0.00,VWS V14.01,2013-04-21 07:34:00,
2013-04-21 02:35:00,30.9,16.7,30.06,NNW,338,6.7,6.7,55,0.00,,,0.00,VWS V14.01,2013-04-21 07:35:00,
2013-04-21 02:36:00,30.9,16.7,30.06,NE,45,4.7,4.7,55,0.00,,,0.00,VWS V14.01,2013-04-21 07:36:00,
2013-04-21 02:37:00,30.9,16.7,30.06,SSW,202,6.0,6.0,55,0.00,,,0.00,VWS V14.01,2013-04-21 07:37:00,
2013-04-21 02:38:00,30.9,17.1,30.06,SE,135,4.7,4.7,56,0.00,,,0.00,VWS V14.01,2013-04-21 07:38:00,
2013-04-21 02:39:00,30.9,17.1,30.06,SE,135,8.1,8.1,56,0.00,,,0.00,VWS V14.01,2013-04-21 07:39:00,
2013-04-21 02:40:00,30.9,17.5,30.06,SSE,158,8.7,8.7,57,0.00,,,0.00,VWS V14.01,2013-04-21 07:40:00,
2013-04-21 02:41:00,30.9,17.5,30.06,SSE,158,8.7,8.7,57,0.00,,,0.00,VWS V14.01,2013-04-21 07:41:00,
2013-04-21 02:42:00,30.9,17.5,30.06,SSW,202,0.0,2.9,57,0.00,,,0.00,VWS V14.01,2013-04-21 07:42:00,
2013-04-21 02:43:00,30.9,17.1,30.06,SSE,158,4.0,4.0,56,0.00,,,0.00,VWS V14.01,2013-04-21 07:43:00,
2013-04-21 02:44:00,30.9,17.1,30.06,SSE,158,0.0,1.3,56,0.00,,,0.00,VWS V14.01,2013-04-21 07:44:00,
2013-04-21 02:45:00,30.9,17.1,30.06,SW,225,10.1,10.1,56,0.00,,,0.00,VWS V14.01,2013-04-21 07:45:00,
2013-04-21 02:46:00,30.9,17.5,30.06,SSW,202,4.7,6.0,57,0.00,,,0.00,VWS V14.01,2013-04-21 07:46:00,
2013-04-21 02:47:00,30.9,17.5,30.06,SE,135,4.0,4.0,57,0.00,,,0.00,VWS V14.01,2013-04-21 07:47:00,
2013-04-21 02:48:00,30.9,17.5,30.06,SE,135,4.0,4.0,57,0.00,,,0.00,VWS V14.01,2013-04-21 07:48:00,
2013-04-21 02:49:00,30.9,17.5,30.06,SE,135,4.0,4.0,57,0.00,,,0.00,VWS V14.01,2013-04-21 07:49:00,
2013-04-21 02:50:00,30.7,17.3,30.06,NE,45,0.0,2.0,57,0.00,,,0.00,VWS V14.01,2013-04-21 07:50:00,
2013-04-21 02:51:00,30.7,17.3,30.06,South,180,0.0,1.6,57,0.00,,,0.00,VWS V14.01,2013-04-21 07:51:00,
2013-04-21 02:52:00,30.7,16.9,30.06,WSW,248,3.4,3.4,56,0.00,,,0.00,VWS V14.01,2013-04-21 07:52:00,
2013-04-21 02:53:00,30.7,16.9,30.06,WSW,248,3.4,3.4,56,0.00,,,0.00,VWS V14.01,2013-04-21 07:53:00,
2013-04-21 02:54:00,30.7,16.9,30.06,SSE,158,3.4,3.4,56,0.00,,,0.00,VWS V14.01,2013-04-21 07:54:00,
2013-04-21 02:55:00,30.7,16.9,30.06,SSE,158,0.0,1.1,56,0.00,,,0.00,VWS V14.01,2013-04-21 07:55:00,
2013-04-21 02:56:00,30.7,16.9,30.06,SSE,158,3.4,3.4,56,0.00,,,0.00,VWS V14.01,2013-04-21 07:56:00,
2013-04-21 02:57:00,30.7,16.5,30.06,SSW,202,3.4,3.4,55,0.00,,,0.00,VWS V14.01,2013-04-21 07:57:00,
2013-04-21 02:58:00,30.7,16.9,30.06,SE,135,0.0,1.3,56,0.00,,,0.00,VWS V14.01,2013-04-21 07:58:00,
2013-04-21 02:59:00,30.7,16.9,30.06,SSE,158,4.7,4.7,56,0.00,,,0.00,VWS V14.01,2013-04-21 07:59:00,
2013-04-21 03:00:00,30.7,16.9,30.06,SE,135,0.0,1.6,56,0.00,,,0.00,VWS V14.01,2013-04-21 08:00:00,
2013-04-21 03:01:00,30.7,16.9,30.06,SSW,202,0.0,2.0,56,0.00,,,0.00,VWS V14.01,2013-04-21 08:01:00,
2013-04-21 03:02:00,30.7,16.9,30.06,ENE,68,7.4,7.4,56,0.00,,,0.00,VWS V14.01,2013-04-21 08:02:00,
2013-04-21 03:03:00,30.7,17.3,30.06,South,180,10.1,10.1,57,0.00,,,0.00,VWS V14.01,2013-04-21 08:03:00,
2013-04-21 03:04:00,30.7,17.3,30.06,ENE,68,4.7,4.7,57,0.00,,,0.00,VWS V14.01,2013-04-21 08:04:00,
2013-04-21 03:05:00,30.7,17.3,30.06,SSE,158,4.7,4.7,57,0.00,,,0.00,VWS V14.01,2013-04-21 08:05:00,
2013-04-21 03:06:00,30.7,17.3,30.06,ESE,112,7.4,7.4,57,0.00,,,0.00,VWS V14.01,2013-04-21 08:06:00,
2013-04-21 03:07:00,30.7,17.7,30.06,SE,135,6.7,6.7,58,0.00,,,0.00,VWS V14.01,2013-04-21 08:07:00,
2013-04-21 03:08:00,30.6,17.6,30.06,SSW,202,6.7,6.7,58,0.00,,,0.00,VWS V14.01,2013-04-21 08:08:00,
2013-04-21 03:09:00,30.6,17.6,30.06,SSW,202,6.7,6.7,58,0.00,,,0.00,VWS V14.01,2013-04-21 08:09:00,
2013-04-21 03:10:00,30.6,18.0,30.06,SSW,202,6.7,6.7,59,0.00,,,0.00,VWS V14.01,2013-04-21 08:10:00,
2013-04-21 03:11:00,30.6,18.0,30.06,SE,135,6.7,6.7,59,0.00,,,0.00,VWS V14.01,2013-04-21 08:11:00,
2013-04-21 03:12:00,30.6,18.0,30.06,SSE,158,0.0,2.9,59,0.00,,,0.00,VWS V14.01,2013-04-21 08:12:00,
2013-04-21 03:13:00,30.6,17.6,30.06,SSW,202,0.0,2.2,58,0.00,,,0.00,VWS V14.01,2013-04-21 08:13:00,
2013-04-21 03:14:00,30.6,17.6,30.06,SW,225,4.7,4.7,58,0.00,,,0.00,VWS V14.01,2013-04-21 08:14:00,
2013-04-21 03:15:00,30.6,17.6,30.06,WSW,248,4.7,4.7,58,0.00,,,0.00,VWS V14.01,2013-04-21 08:15:00,
2013-04-21 03:16:00,30.6,18.0,30.06,SSE,158,2.7,2.7,59,0.00,,,0.00,VWS V14.01,2013-04-21 08:16:00,
2013-04-21 03:17:00,30.6,18.0,30.06,SSW,202,6.0,6.0,59,0.00,,,0.00,VWS V14.01,2013-04-21 08:17:00,
2013-04-21 03:18:00,30.6,18.0,30.06,SE,135,4.7,4.7,59,0.00,,,0.00,VWS V14.01,2013-04-21 08:18:00,
2013-04-21 03:19:00,30.6,18.0,30.06,SSW,202,4.7,4.7,59,0.00,,,0.00,VWS V14.01,2013-04-21 08:19:00,
2013-04-21 03:20:00,30.6,18.0,30.06,SSE,158,6.7,6.7,59,0.00,,,0.00,VWS V14.01,2013-04-21 08:20:00,
2013-04-21 03:21:00,30.6,18.0,30.06,NNW,338,4.0,4.0,59,0.00,,,0.00,VWS V14.01,2013-04-21 08:21:00,
2013-04-21 03:22:00,30.6,18.0,30.06,SE,135,10.1,10.1,59,0.00,,,0.00,VWS V14.01,2013-04-21 08:22:00,
2013-04-21 03:23:00,30.7,18.5,30.06,SE,135,10.1,10.1,60,0.00,,,0.00,VWS V14.01,2013-04-21 08:23:00,
2013-04-21 03:24:00,30.6,18.3,30.06,SE,135,10.1,10.1,60,0.00,,,0.00,VWS V14.01,2013-04-21 08:24:00,
2013-04-21 03:25:00,30.6,18.3,30.06,South,180,0.0,3.4,60,0.00,,,0.00,VWS V14.01,2013-04-21 08:25:00,
2013-04-21 03:26:00,30.7,18.5,30.06,SSE,158,0.0,2.7,60,0.00,,,0.00,VWS V14.01,2013-04-21 08:26:00,
2013-04-21 03:27:00,30.7,18.5,30.06,SSW,202,6.0,6.0,60,0.00,,,0.00,VWS V14.01,2013-04-21 08:27:00,
2013-04-21 03:28:00,30.7,18.5,30.06,WSW,248,3.4,3.4,60,0.00,,,0.00,VWS V14.01,2013-04-21 08:28:00,
2013-04-21 03:29:00,30.7,18.5,30.06,NNW,338,6.0,6.0,60,0.00,,,0.00,VWS V14.01,2013-04-21 08:29:00,
2013-04-21 03:30:00,30.7,18.5,30.06,NNW,338,6.0,6.0,60,0.00,,,0.00,VWS V14.01,2013-04-21 08:30:00,
2013-04-21 03:31:00,30.7,18.9,30.06,ESE,112,6.7,6.7,61,0.00,,,0.00,VWS V14.01,2013-04-21 08:31:00,
2013-04-21 03:32:00,30.7,19.3,30.06,SSW,202,11.4,11.4,62,0.00,,,0.00,VWS V14.01,2013-04-21 08:32:00,
2013-04-21 03:33:00,30.7,19.3,30.06,SSW,202,6.0,6.0,62,0.00,,,0.00,VWS V14.01,2013-04-21 08:33:00,
2013-04-21 03:34:00,30.7,19.3,30.06,SSW,202,6.0,6.0,62,0.00,,,0.00,VWS V14.01,2013-04-21 08:34:00,
2013-04-21 03:35:00,30.7,19.3,30.06,NW,315,9.4,9.4,62,0.00,,,0.00,VWS V14.01,2013-04-21 08:35:00,
2013-04-21 03:36:00,30.7,19.3,30.06,NNW,338,4.7,4.7,62,0.00,,,0.00,VWS V14.01,2013-04-21 08:36:00,
2013-04-21 03:37:00,30.7,19.3,30.06,SSW,202,4.7,4.7,62,0.00,,,0.00,VWS V14.01,2013-04-21 08:37:00,
2013-04-21 03:38:00,30.7,19.6,30.06,NNE,22,2.7,2.7,63,0.00,,,0.00,VWS V14.01,2013-04-21 08:38:00,
2013-04-21 03:39:00,30.7,20.0,30.06,NNE,22,2.7,2.7,64,0.00,,,0.25,VWS V14.01,2013-04-21 08:39:00,
2013-04-21 03:40:00,30.7,20.0,30.06,WNW,292,4.7,4.7,64,0.00,,,0.00,VWS V14.01,2013-04-21 08:40:00,
2013-04-21 03:41:00,30.7,20.0,30.03,SSE,158,9.4,9.4,64,0.00,,,0.00,VWS V14.01,2013-04-21 08:41:00,
2013-04-21 03:42:00,30.7,20.0,30.03,SSE,158,4.7,4.7,64,0.00,,,0.00,VWS V14.01,2013-04-21 08:42:00,
2013-04-21 03:43:00,30.7,19.6,30.03,SSW,202,4.7,4.7,63,0.00,,,0.00,VWS V14.01,2013-04-21 08:43:00,
2013-04-21 03:44:00,30.7,19.6,30.03,SE,135,4.7,4.7,63,0.00,,,0.00,VWS V14.01,2013-04-21 08:44:00,
2013-04-21 03:45:00,30.7,20.0,30.03,SE,135,4.7,4.7,64,0.00,,,0.00,VWS V14.01,2013-04-21 08:45:00,
2013-04-21 03:46:00,30.7,20.0,30.03,West,270,4.7,4.7,64,0.00,,,0.00,VWS V14.01,2013-04-21 08:46:00,
2013-04-21 03:47:00,30.7,20.0,30.03,ENE,68,2.7,2.7,64,0.00,,,0.00,VWS V14.01,2013-04-21 08:47:00,
2013-04-21 03:48:00,30.9,20.5,30.03,ESE,112,12.8,12.8,65,0.00,,,0.00,VWS V14.01,2013-04-21 08:48:00,
2013-04-21 03:49:00,30.9,20.5,30.03,ESE,112,10.1,10.1,65,0.00,,,0.00,VWS V14.01,2013-04-21 08:49:00,
2013-04-21 03:50:00,30.9,20.9,30.03,ENE,68,4.7,4.7,66,0.00,,,0.00,VWS V14.01,2013-04-21 08:50:00,
2013-04-21 03:51:00,30.9,20.5,30.03,SSW,202,4.7,4.7,65,0.00,,,0.00,VWS V14.01,2013-04-21 08:51:00,
2013-04-21 03:52:00,30.9,20.5,30.03,SSW,202,4.7,4.7,65,0.00,,,0.00,VWS V14.01,2013-04-21 08:52:00,
2013-04-21 03:53:00,30.9,20.5,30.03,SSW,202,4.7,4.7,65,0.00,,,0.00,VWS V14.01,2013-04-21 08:53:00,
2013-04-21 03:54:00,30.9,20.5,30.03,East,90,8.1,8.1,65,0.00,,,0.00,VWS V14.01,2013-04-21 08:54:00,
2013-04-21 03:55:00,30.9,20.5,30.03,SSW,202,6.0,6.0,65,0.00,,,0.00,VWS V14.01,2013-04-21 08:55:00,
2013-04-21 03:56:00,30.9,20.5,30.03,WNW,292,3.4,3.4,65,0.00,,,0.00,VWS V14.01,2013-04-21 08:56:00,
2013-04-21 03:57:00,30.9,20.9,30.03,SSE,158,10.7,10.7,66,0.00,,,0.00,VWS V14.01,2013-04-21 08:57:00,
2013-04-21 03:58:00,30.9,20.9,30.03,SSE,158,10.7,10.7,66,0.00,,,0.00,VWS V14.01,2013-04-21 08:58:00,
2013-04-21 03:59:00,30.9,21.3,30.03,South,180,4.7,4.7,67,0.00,,,0.00,VWS V14.01,2013-04-21 08:59:00,
2013-04-21 04:00:00,30.9,21.3,30.03,SSW,202,4.0,4.0,67,0.00,,,0.25,VWS V14.01,2013-04-21 09:00:00,
2013-04-21 04:01:00,31.1,21.4,30.03,SE,135,2.7,2.7,67,0.00,,,0.00,VWS V14.01,2013-04-21 09:01:00,
2013-04-21 04:02:00,31.1,21.4,30.03,SSE,158,6.7,6.7,67,0.00,,,0.00,VWS V14.01,2013-04-21 09:02:00,
2013-04-21 04:03:00,31.1,21.4,30.03,SE,135,0.0,2.7,67,0.00,,,0.00,VWS V14.01,2013-04-21 09:03:00,
2013-04-21 04:04:00,31.1,21.8,30.03,SE,135,0.0,2.7,68,0.00,,,0.00,VWS V14.01,2013-04-21 09:04:00,
2013-04-21 04:05:00,31.1,21.8,30.03,SW,225,4.7,4.7,68,0.00,,,0.00,VWS V14.01,2013-04-21 09:05:00,
2013-04-21 04:06:00,31.1,21.8,30.03,SE,135,2.7,2.7,68,0.00,,,0.00,VWS V14.01,2013-04-21 09:06:00,
2013-04-21 04:07:00,31.1,21.8,30.03,SE,135,7.4,7.4,68,0.00,,,0.00,VWS V14.01,2013-04-21 09:07:00,
2013-04-21 04:08:00,31.1,22.1,30.03,ESE,112,3.4,3.6,69,0.00,,,0.00,VWS V14.01,2013-04-21 09:08:00,
2013-04-21 04:09:00,31.1,22.1,30.03,ESE,112,4.7,4.7,69,0.00,,,0.00,VWS V14.01,2013-04-21 09:09:00,
2013-04-21 04:10:00,31.1,22.1,30.03,SSE,158,10.1,10.1,69,0.00,,,0.00,VWS V14.01,2013-04-21 09:10:00,
2013-04-21 04:11:00,31.1,22.1,30.03,SSE,158,0.0,3.4,69,0.00,,,0.00,VWS V14.01,2013-04-21 09:11:00,
2013-04-21 04:12:00,31.1,22.1,30.03,SSW,202,8.7,8.7,69,0.00,,,0.00,VWS V14.01,2013-04-21 09:12:00,
2013-04-21 04:13:00,31.1,22.1,30.03,SSW,202,8.7,8.7,69,0.00,,,0.00,VWS V14.01,2013-04-21 09:13:00,
2013-04-21 04:14:00,31.1,22.1,30.03,ESE,112,4.0,4.0,69,0.00,,,0.00,VWS V14.01,2013-04-21 09:14:00,
2013-04-21 04:15:00,31.1,22.1,30.03,South,180,4.7,4.7,69,0.00,,,0.00,VWS V14.01,2013-04-21 09:15:00,
2013-04-21 04:16:00,31.1,22.1,30.03,ENE,68,6.7,6.7,69,0.00,,,0.00,VWS V14.01,2013-04-21 09:16:00,
2013-04-21 04:17:00,31.1,22.1,30.03,ESE,112,8.1,8.1,69,0.00,,,0.00,VWS V14.01,2013-04-21 09:17:00,
2013-04-21 04:18:00,31.1,22.1,30.03,ESE,112,4.7,4.7,69,0.00,,,0.00,VWS V14.01,2013-04-21 09:18:00,
2013-04-21 04:19:00,31.1,22.1,30.03,ESE,112,4.7,4.7,69,0.00,,,0.00,VWS V14.01,2013-04-21 09:19:00,
2013-04-21 04:20:00,31.1,22.1,30.03,SSE,158,8.1,8.1,69,0.00,,,0.00,VWS V14.01,2013-04-21 09:20:00,
2013-04-21 04:21:00,31.1,22.1,30.03,East,90,8.1,8.1,69,0.00,,,0.00,VWS V14.01,2013-04-21 09:21:00,
2013-04-21 04:22:00,31.3,22.6,30.03,East,90,8.1,8.1,70,0.00,,,0.00,VWS V14.01,2013-04-21 09:22:00,
2013-04-21 04:23:00,31.1,22.5,30.03,SSW,202,9.4,9.4,70,0.00,,,0.00,VWS V14.01,2013-04-21 09:23:00,
2013-04-21 04:24:00,31.3,22.6,30.03,SE,135,4.7,4.7,70,0.00,,,0.00,VWS V14.01,2013-04-21 09:24:00,
2013-04-21 04:25:00,31.3,22.6,30.03,NW,315,6.0,6.0,70,0.00,,,0.00,VWS V14.01,2013-04-21 09:25:00,
2013-04-21 04:26:00,31.3,23.0,30.03,SSE,158,8.1,8.1,71,0.00,,,0.00,VWS V14.01,2013-04-21 09:26:00,
2013-04-21 04:27:00,31.3,23.0,30.03,East,90,7.4,7.4,71,0.00,,,0.00,VWS V14.01,2013-04-21 09:27:00,
2013-04-21 04:28:00,31.3,23.0,30.03,SE,135,10.1,10.1,71,0.00,,,0.00,VWS V14.01,2013-04-21 09:28:00,
2013-04-21 04:29:00,31.3,23.0,30.03,SE,135,10.1,10.1,71,0.00,,,0.00,VWS V14.01,2013-04-21 09:29:00,
2013-04-21 04:30:00,31.3,23.3,30.03,SE,135,10.1,10.1,72,0.00,,,0.00,VWS V14.01,2013-04-21 09:30:00,
2013-04-21 04:31:00,31.3,23.3,30.03,SE,135,4.7,4.7,72,0.00,,,0.00,VWS V14.01,2013-04-21 09:31:00,
2013-04-21 04:32:00,31.3,23.3,30.03,ENE,68,7.4,7.4,72,0.00,,,0.00,VWS V14.01,2013-04-21 09:32:00,
2013-04-21 04:33:00,31.3,23.3,30.03,ENE,68,7.4,7.4,72,0.00,,,0.00,VWS V14.01,2013-04-21 09:33:00,
2013-04-21 04:34:00,31.3,23.3,30.03,SE,135,8.7,8.7,72,0.00,,,0.00,VWS V14.01,2013-04-21 09:34:00,
2013-04-21 04:35:00,31.3,23.3,30.03,ESE,112,3.4,3.4,72,0.00,,,0.00,VWS V14.01,2013-04-21 09:35:00,
2013-04-21 04:36:00,31.3,23.3,30.03,SSW,202,6.0,6.0,72,0.00,,,0.00,VWS V14.01,2013-04-21 09:36:00,
2013-04-21 04:37:00,31.3,23.3,30.03,SW,225,3.4,3.4,72,0.00,,,0.00,VWS V14.01,2013-04-21 09:37:00,
2013-04-21 04:38:00,31.3,23.3,30.03,SE,135,8.1,8.1,72,0.00,,,0.00,VWS V14.01,2013-04-21 09:38:00,
2013-04-21 04:39:00,31.5,23.5,30.03,SE,135,4.7,4.7,72,0.00,,,0.00,VWS V14.01,2013-04-21 09:39:00,
2013-04-21 04:40:00,31.5,23.5,30.03,WSW,248,8.1,8.1,72,0.00,,,0.00,VWS V14.01,2013-04-21 09:40:00,
2013-04-21 04:41:00,31.5,23.5,30.03,SE,135,9.4,9.4,72,0.00,,,0.00,VWS V14.01,2013-04-21 09:41:00,
2013-04-21 04:42:00,31.5,23.5,30.03,South,180,3.4,3.4,72,0.00,,,0.00,VWS V14.01,2013-04-21 09:42:00,
2013-04-21 04:43:00,31.5,23.5,30.03,SW,225,4.7,4.7,72,0.00,,,0.00,VWS V14.01,2013-04-21 09:43:00,
2013-04-21 04:44:00,31.5,23.5,30.03,SE,135,6.0,6.0,72,0.00,,,0.00,VWS V14.01,2013-04-21 09:44:00,
2013-04-21 04:45:00,31.5,23.5,30.03,ENE,68,6.7,6.7,72,0.00,,,0.00,VWS V14.01,2013-04-21 09:45:00,
2013-04-21 04:46:00,31.5,23.5,30.03,SSE,158,3.4,3.4,72,0.00,,,0.00,VWS V14.01,2013-04-21 09:46:00,
2013-04-21 04:47:00,31.5,23.5,30.03,SE,135,12.8,12.8,72,0.00,,,0.00,VWS V14.01,2013-04-21 09:47:00,
2013-04-21 04:48:00,31.5,23.5,30.03,SW,225,4.0,4.3,72,0.00,,,0.00,VWS V14.01,2013-04-21 09:48:00,
2013-04-21 04:49:00,31.5,23.5,30.03,SW,225,4.0,4.0,72,0.00,,,0.00,VWS V14.01,2013-04-21 09:49:00,
2013-04-21 04:50:00,31.5,23.5,30.03,South,180,6.0,6.0,72,0.00,,,0.00,VWS V14.01,2013-04-21 09:50:00,
2013-04-21 04:51:00,31.6,23.7,30.03,West,270,6.0,6.0,72,0.00,,,0.00,VWS V14.01,2013-04-21 09:51:00,
2013-04-21 04:52:00,31.5,23.5,30.03,SSW,202,4.7,4.7,72,0.00,,,0.00,VWS V14.01,2013-04-21 09:52:00,
2013-04-21 04:53:00,31.6,24.0,30.03,SE,135,14.1,14.1,73,0.00,,,0.00,VWS V14.01,2013-04-21 09:53:00,
2013-04-21 04:54:00,31.6,24.0,30.03,SSE,158,8.1,8.1,73,0.00,,,0.00,VWS V14.01,2013-04-21 09:54:00,
2013-04-21 04:55:00,31.6,24.0,30.03,SSE,158,4.7,4.7,73,0.00,,,0.00,VWS V14.01,2013-04-21 09:55:00,
2013-04-21 04:56:00,31.6,24.0,30.03,ESE,112,3.4,3.4,73,0.00,,,0.00,VWS V14.01,2013-04-21 09:56:00,
2013-04-21 04:57:00,31.6,24.0,30.03,South,180,4.7,4.7,73,0.00,,,0.00,VWS V14.01,2013-04-21 09:57:00,
2013-04-21 04:58:00,31.6,24.0,30.03,WSW,248,11.4,11.4,73,0.00,,,0.00,VWS V14.01,2013-04-21 09:58:00,
2013-04-21 04:59:00,31.6,24.0,30.03,SE,135,4.0,4.0,73,0.00,,,0.00,VWS V14.01,2013-04-21 09:59:00,
2013-04-21 05:00:00,31.6,23.7,30.03,East,90,8.1,8.1,72,0.00,,,0.00,VWS V14.01,2013-04-21 10:00:00,
2013-04-21 05:01:00,31.6,23.7,30.03,SSE,158,8.1,8.1,72,0.00,,,0.00,VWS V14.01,2013-04-21 10:01:00,
2013-04-21 05:02:00,31.8,24.2,30.03,ENE,68,6.0,6.0,73,0.00,,,0.25,VWS V14.01,2013-04-21 10:02:00,
2013-04-21 05:03:00,31.6,24.0,30.03,SW,225,4.0,4.0,73,0.00,,,0.00,VWS V14.01,2013-04-21 10:03:00,
2013-04-21 05:04:00,31.8,24.2,30.03,SSW,202,18.8,18.8,73,0.00,,,0.00,VWS V14.01,2013-04-21 10:04:00,
2013-04-21 05:05:00,31.8,24.5,30.03,WSW,248,6.7,6.7,74,0.00,,,0.00,VWS V14.01,2013-04-21 10:05:00,
2013-04-21 05:06:00,31.8,24.5,30.03,SSE,158,4.0,4.0,74,0.00,,,0.00,VWS V14.01,2013-04-21 10:06:00,
2013-04-21 05:07:00,31.8,24.5,30.03,South,180,2.7,2.7,74,0.00,,,0.00,VWS V14.01,2013-04-21 10:07:00,
2013-04-21 05:08:00,31.8,24.5,30.03,SSW,202,6.0,6.0,74,0.00,,,0.00,VWS V14.01,2013-04-21 10:08:00,
2013-04-21 05:09:00,31.8,24.5,30.03,ESE,112,4.7,4.7,74,0.00,,,0.00,VWS V14.01,2013-04-21 10:09:00,
2013-04-21 05:10:00,31.8,24.5,30.03,ESE,112,8.7,8.7,74,0.00,,,0.00,VWS V14.01,2013-04-21 10:10:00,
2013-04-21 05:11:00,31.8,24.5,30.03,South,180,0.0,2.9,74,0.00,,,0.00,VWS V14.01,2013-04-21 10:11:00,
2013-04-21 05:12:00,31.8,24.5,30.03,ESE,112,6.0,6.0,74,0.00,,,0.00,VWS V14.01,2013-04-21 10:12:00,
2013-04-21 05:13:00,31.8,24.5,30.03,SSW,202,12.1,12.1,74,0.00,,,0.00,VWS V14.01,2013-04-21 10:13:00,
2013-04-21 05:14:00,31.8,24.5,30.03,NNW,338,4.0,4.0,74,0.00,,,0.00,VWS V14.01,2013-04-21 10:14:00,
2013-04-21 05:15:00,31.8,24.5,30.03,SSE,158,6.0,6.0,74,0.00,,,0.00,VWS V14.01,2013-04-21 10:15:00,
2013-04-21 05:16:00,32.0,24.7,30.03,ESE,112,16.1,16.1,74,0.00,,,0.00,VWS V14.01,2013-04-21 10:16:00,
2013-04-21 05:17:00,31.8,24.8,30.03,ESE,112,16.1,16.1,75,0.00,,,0.00,VWS V14.01,2013-04-21 10:17:00,
2013-04-21 05:18:00,32.0,25.0,30.03,South,180,3.4,5.4,75,0.00,,,0.00,VWS V14.01,2013-04-21 10:18:00,
2013-04-21 05:19:00,32.0,25.0,30.03,South,180,3.4,3.4,75,0.00,,,0.00,VWS V14.01,2013-04-21 10:19:00,
2013-04-21 05:20:00,32.0,25.0,30.03,South,180,3.4,3.4,75,0.00,,,0.00,VWS V14.01,2013-04-21 10:20:00,
2013-04-21 05:21:00,32.0,25.0,30.03,ESE,112,8.7,8.7,75,0.00,,,0.00,VWS V14.01,2013-04-21 10:21:00,
2013-04-21 05:22:00,32.0,25.0,30.03,SSE,158,8.1,8.1,75,0.00,,,0.00,VWS V14.01,2013-04-21 10:22:00,
2013-04-21 05:23:00,32.0,25.0,30.03,SSW,202,6.0,6.0,75,0.00,,,0.00,VWS V14.01,2013-04-21 10:23:00,
2013-04-21 05:24:00,32.0,25.0,30.03,SE,135,4.7,4.7,75,0.00,,,0.00,VWS V14.01,2013-04-21 10:24:00,
2013-04-21 05:25:00,32.0,25.0,30.03,SSE,158,6.7,6.7,75,0.00,,,0.00,VWS V14.01,2013-04-21 10:25:00,
2013-04-21 05:26:00,32.0,25.0,30.03,WSW,248,6.0,6.0,75,0.00,,,0.00,VWS V14.01,2013-04-21 10:26:00,
2013-04-21 05:27:00,32.0,25.0,30.03,SE,135,8.1,8.1,75,0.00,,,0.00,VWS V14.01,2013-04-21 10:27:00,
2013-04-21 05:28:00,32.0,25.0,30.03,WNW,292,6.0,6.0,75,0.00,,,0.00,VWS V14.01,2013-04-21 10:28:00,
2013-04-21 05:29:00,32.0,25.3,30.03,SE,135,3.4,3.4,76,0.00,,,0.00,VWS V14.01,2013-04-21 10:29:00,
2013-04-21 05:30:00,32.2,25.5,30.03,South,180,8.1,8.1,76,0.00,,,0.00,VWS V14.01,2013-04-21 10:30:00,
2013-04-21 05:31:00,32.2,25.5,30.03,SSE,158,4.7,4.7,76,0.00,,,0.00,VWS V14.01,2013-04-21 10:31:00,
2013-04-21 05:32:00,32.2,25.5,30.03,SE,135,0.0,2.7,76,0.00,,,0.25,VWS V14.01,2013-04-21 10:32:00,
2013-04-21 05:33:00,32.2,25.5,30.03,SE,135,3.4,3.4,76,0.00,,,0.00,VWS V14.01,2013-04-21 10:33:00,
2013-04-21 05:34:00,32.2,25.5,30.03,SW,225,8.1,8.1,76,0.00,,,0.00,VWS V14.01,2013-04-21 10:34:00,
2013-04-21 05:35:00,32.2,25.5,30.03,South,180,10.1,10.1,76,0.00,,,0.00,VWS V14.01,2013-04-21 10:35:00,
2013-04-21 05:36:00,32.2,25.2,30.03,NE,45,8.7,8.7,75,0.00,,,0.00,VWS V14.01,2013-04-21 10:36:00,
2013-04-21 05:37:00,32.2,25.5,30.03,NE,45,8.7,8.7,76,0.00,,,0.00,VWS V14.01,2013-04-21 10:37:00,
2013-04-21 05:38:00,32.2,25.5,30.03,ENE,68,0.0,2.9,76,0.00,,,0.00,VWS V14.01,2013-04-21 10:38:00,
2013-04-21 05:39:00,32.2,25.5,30.03,ENE,68,0.0,1.6,76,0.00,,,0.00,VWS V14.01,2013-04-21 10:39:00,
2013-04-21 05:40:00,32.4,25.6,30.03,NNE,22,4.7,4.7,76,0.00,,,0.00,VWS V14.01,2013-04-21 10:40:00,
2013-04-21 05:41:00,32.4,25.6,30.00,SSE,158,10.1,10.1,76,0.00,,,0.00,VWS V14.01,2013-04-21 10:41:00,
2013-04-21 05:42:00,32.4,25.6,30.00,WSW,248,7.4,7.4,76,0.00,,,0.00,VWS V14.01,2013-04-21 10:42:00,
2013-04-21 05:43:00,32.4,25.6,30.00,SSE,158,8.1,8.1,76,0.00,,,0.00,VWS V14.01,2013-04-21 10:43:00,
2013-04-21 05:44:00,32.4,25.6,30.00,SSW,202,4.7,4.7,76,0.00,,,0.00,VWS V14.01,2013-04-21 10:44:00,
2013-04-21 05:45:00,32.4,25.6,30.00,SSE,158,7.4,7.4,76,0.00,,,0.00,VWS V14.01,2013-04-21 10:45:00,
2013-04-21 05:46:00,32.4,26.0,30.00,SSE,158,6.0,6.0,77,0.00,,,0.00,VWS V14.01,2013-04-21 10:46:00,
2013-04-21 05:47:00,32.4,25.6,30.00,SSW,202,4.7,4.7,76,0.00,,,0.00,VWS V14.01,2013-04-21 10:47:00,
2013-04-21 05:48:00,32.5,25.8,30.00,South,180,8.7,8.7,76,0.00,,,0.00,VWS V14.01,2013-04-21 10:48:00,
2013-04-21 05:49:00,32.5,26.1,30.00,SSE,158,9.4,9.4,77,0.00,,,0.00,VWS V14.01,2013-04-21 10:49:00,
2013-04-21 05:50:00,32.5,26.1,30.00,SSE,158,9.4,9.4,77,0.00,,,0.00,VWS V14.01,2013-04-21 10:50:00,
2013-04-21 05:51:00,32.5,26.1,30.00,South,180,6.0,6.0,77,0.00,,,0.00,VWS V14.01,2013-04-21 10:51:00,
2013-04-21 05:52:00,32.5,26.1,30.00,SE,135,7.4,7.4,77,0.00,,,0.00,VWS V14.01,2013-04-21 10:52:00,
2013-04-21 05:53:00,32.5,26.1,30.00,SE,135,3.4,3.4,77,0.00,,,0.00,VWS V14.01,2013-04-21 10:53:00,
2013-04-21 05:54:00,32.5,26.1,30.00,ESE,112,2.7,2.7,77,0.00,,,0.00,VWS V14.01,2013-04-21 10:54:00,
2013-04-21 05:55:00,32.5,26.1,30.00,SE,135,4.0,4.0,77,0.00,,,0.00,VWS V14.01,2013-04-21 10:55:00,
2013-04-21 05:56:00,32.7,26.3,30.00,West,270,6.0,6.0,77,0.00,,,0.00,VWS V14.01,2013-04-21 10:56:00,
2013-04-21 05:57:00,32.7,26.3,30.00,SW,225,6.0,6.0,77,0.00,,,0.00,VWS V14.01,2013-04-21 10:57:00,
2013-04-21 05:58:00,32.7,26.3,30.00,SE,135,4.7,4.7,77,0.00,,,0.00,VWS V14.01,2013-04-21 10:58:00,
2013-04-21 05:59:00,32.7,26.3,30.00,SSW,202,3.4,3.4,77,0.00,,,0.00,VWS V14.01,2013-04-21 10:59:00,
2013-04-21 06:00:00,32.7,26.3,30.00,East,90,4.7,4.7,77,0.00,,,0.00,VWS V14.01,2013-04-21 11:00:00,
2013-04-21 06:01:00,32.7,26.3,30.00,East,90,4.0,4.3,77,0.00,,,0.00,VWS V14.01,2013-04-21 11:01:00,
2013-04-21 06:02:00,32.7,26.3,30.00,East,90,4.0,4.0,77,0.00,,,0.00,VWS V14.01,2013-04-21 11:02:00,
2013-04-21 06:03:00,32.7,26.3,30.00,SE,135,6.0,6.0,77,0.00,,,0.00,VWS V14.01,2013-04-21 11:03:00,
2013-04-21 06:04:00,32.7,26.3,30.00,SSE,158,7.4,7.4,77,0.00,,,0.00,VWS V14.01,2013-04-21 11:04:00,
2013-04-21 06:05:00,32.9,26.5,30.00,SE,135,8.1,8.1,77,0.00,,,0.00,VWS V14.01,2013-04-21 11:05:00,
2013-04-21 06:06:00,32.9,26.5,30.00,ESE,112,6.7,6.7,77,0.00,,,0.00,VWS V14.01,2013-04-21 11:06:00,
2013-04-21 06:07:00,32.9,26.5,30.00,SSE,158,7.4,7.4,77,0.00,,,0.00,VWS V14.01,2013-04-21 11:07:00,
2013-04-21 06:08:00,32.9,26.5,30.00,ESE,112,14.1,14.1,77,0.00,,,0.00,VWS V14.01,2013-04-21 11:08:00,
2013-04-21 06:09:00,32.9,26.5,30.00,ESE,112,12.1,12.1,77,0.00,,,0.00,VWS V14.01,2013-04-21 11:09:00,
2013-04-21 06:10:00,33.1,26.7,30.00,South,180,10.1,10.1,77,0.00,,,0.00,VWS V14.01,2013-04-21 11:10:00,
2013-04-21 06:11:00,33.1,26.7,30.00,South,180,6.7,6.7,77,0.00,,,0.00,VWS V14.01,2013-04-21 11:11:00,
2013-04-21 06:12:00,33.1,26.7,30.00,SE,135,8.1,8.1,77,0.00,,,0.00,VWS V14.01,2013-04-21 11:12:00,
2013-04-21 06:13:00,33.1,26.7,30.00,SW,225,10.7,10.7,77,0.00,,,0.00,VWS V14.01,2013-04-21 11:13:00,
2013-04-21 06:14:00,33.1,26.7,30.00,SSE,158,4.7,6.0,77,0.00,,,0.00,VWS V14.01,2013-04-21 11:14:00,
2013-04-21 06:15:00,33.1,26.7,30.00,SE,135,8.1,8.1,77,0.00,,,0.00,VWS V14.01,2013-04-21 11:15:00,
2013-04-21 06:16:00,33.1,26.7,30.00,WSW,248,7.4,7.4,77,0.00,,,0.00,VWS V14.01,2013-04-21 11:16:00,
2013-04-21 06:17:00,33.1,26.7,30.00,SE,135,8.7,8.7,77,0.00,,,0.00,VWS V14.01,2013-04-21 11:17:00,
2013-04-21 06:18:00,33.3,26.8,30.00,SSE,158,10.7,10.7,77,0.00,,,0.00,VWS V14.01,2013-04-21 11:18:00,
2013-04-21 06:19:00,33.3,26.8,30.00,WSW,248,10.1,10.1,77,0.00,,,0.00,VWS V14.01,2013-04-21 11:19:00,
2013-04-21 06:20:00,33.3,26.8,30.00,SW,225,0.0,3.4,77,0.00,,,0.00,VWS V14.01,2013-04-21 11:20:00,
2013-04-21 06:21:00,33.3,26.8,30.00,SSE,158,7.4,7.4,77,0.00,,,0.00,VWS V14.01,2013-04-21 11:21:00,
2013-04-21 06:22:00,33.3,26.8,30.00,ESE,112,4.0,4.0,77,0.00,,,0.00,VWS V14.01,2013-04-21 11:22:00,
2013-04-21 06:23:00,33.3,26.8,30.00,SSW,202,6.0,6.0,77,0.00,,,0.00,VWS V14.01,2013-04-21 11:23:00,
2013-04-21 06:24:00,33.3,26.5,30.00,SE,135,9.4,9.4,76,0.00,,,0.00,VWS V14.01,2013-04-21 11:24:00,
2013-04-21 06:25:00,33.3,26.5,30.00,South,180,8.1,8.1,76,0.00,,,0.00,VWS V14.01,2013-04-21 11:25:00,
2013-04-21 06:26:00,33.4,26.7,30.00,SSE,158,3.4,3.8,76,0.00,,,0.00,VWS V14.01,2013-04-21 11:26:00,
2013-04-21 06:27:00,33.4,26.7,30.00,East,90,16.8,16.8,76,0.00,,,0.00,VWS V14.01,2013-04-21 11:27:00,
2013-04-21 06:28:00,33.4,26.7,30.00,SSW,202,3.4,5.6,76,0.00,,,0.00,VWS V14.01,2013-04-21 11:28:00,
2013-04-21 06:29:00,33.4,26.7,30.00,SSW,202,4.0,4.0,76,0.00,,,0.00,VWS V14.01,2013-04-21 11:29:00,
2013-04-21 06:30:00,33.4,26.7,30.00,SSW,202,7.4,7.4,76,0.00,,,0.00,VWS V14.01,2013-04-21 11:30:00,
2013-04-21 06:31:00,33.6,26.9,30.00,NW,315,0.0,3.4,76,0.00,,,0.00,VWS V14.01,2013-04-21 11:31:00,
2013-04-21 06:32:00,33.6,26.9,30.00,SE,135,3.4,3.4,76,0.00,,,0.00,VWS V14.01,2013-04-21 11:32:00,
2013-04-21 06:33:00,33.6,26.9,30.00,SW,225,6.7,6.7,76,0.00,,,0.00,VWS V14.01,2013-04-21 11:33:00,
2013-04-21 06:34:00,33.6,26.6,30.00,SSE,158,8.7,8.7,75,0.00,,,0.00,VWS V14.01,2013-04-21 11:34:00,
2013-04-21 06:35:00,33.8,26.7,30.00,ESE,112,2.7,2.9,75,0.00,,,0.00,VWS V14.01,2013-04-21 11:35:00,
2013-04-21 06:36:00,33.8,26.7,30.00,SE,135,8.7,8.7,75,0.00,,,0.00,VWS V14.01,2013-04-21 11:36:00,
2013-04-21 06:37:00,33.8,26.7,30.00,SSE,158,6.0,6.0,75,0.00,,,0.00,VWS V14.01,2013-04-21 11:37:00,
2013-04-21 06:38:00,33.8,26.4,30.00,SSW,202,4.7,4.7,74,0.00,,,0.00,VWS V14.01,2013-04-21 11:38:00,
2013-04-21 06:39:00,33.8,26.4,30.00,SE,135,8.1,8.1,74,0.00,,,0.00,VWS V14.01,2013-04-21 11:39:00,
2013-04-21 06:40:00,33.8,26.4,30.00,ESE,112,14.8,14.8,74,0.00,,,0.00,VWS V14.01,2013-04-21 11:40:00,
2013-04-21 06:41:00,34.0,26.6,30.00,SSE,158,3.4,4.9,74,0.00,,,0.00,VWS V14.01,2013-04-21 11:41:00,
2013-04-21 06:42:00,34.0,26.6,30.00,SSW,202,3.4,3.4,74,0.00,,,0.00,VWS V14.01,2013-04-21 11:42:00,
2013-04-21 06:43:00,34.0,26.6,30.00,SW,225,10.1,10.1,74,0.00,,,0.00,VWS V14.01,2013-04-21 11:43:00,
2013-04-21 06:44:00,34.0,26.6,30.00,ESE,112,4.0,4.0,74,0.00,,,0.00,VWS V14.01,2013-04-21 11:44:00,
2013-04-21 06:45:00,34.0,26.6,30.00,SSW,202,8.7,8.7,74,0.00,,,0.00,VWS V14.01,2013-04-21 11:45:00,
2013-04-21 06:46:00,34.0,26.2,30.00,NE,45,8.1,8.1,73,0.00,,,0.00,VWS V14.01,2013-04-21 11:46:00,
2013-04-21 06:47:00,34.0,26.2,30.00,SSW,202,4.7,4.7,73,0.00,,,0.00,VWS V14.01,2013-04-21 11:47:00,
2013-04-21 06:48:00,34.0,26.2,30.00,SSE,158,14.1,14.1,73,0.00,,,0.00,VWS V14.01,2013-04-21 11:48:00,
2013-04-21 06:49:00,34.0,26.2,30.00,North,0,7.4,7.4,73,0.00,,,0.00,VWS V14.01,2013-04-21 11:49:00,
2013-04-21 06:50:00,34.2,26.4,30.00,SSE,158,8.7,8.7,73,0.00,,,0.00,VWS V14.01,2013-04-21 11:50:00,
2013-04-21 06:51:00,34.2,26.4,30.00,SSE,158,7.4,7.4,73,0.00,,,0.00,VWS V14.01,2013-04-21 11:51:00,
2013-04-21 06:52:00,34.3,26.6,30.00,SSW,202,8.1,8.1,73,0.00,,,0.00,VWS V14.01,2013-04-21 11:52:00,
2013-04-21 06:53:00,34.3,26.3,30.00,East,90,4.7,4.7,72,0.00,,,0.00,VWS V14.01,2013-04-21 11:53:00,
2013-04-21 06:54:00,34.3,26.3,30.00,SW,225,8.1,8.1,72,0.00,,,0.00,VWS V14.01,2013-04-21 11:54:00,
2013-04-21 06:55:00,34.3,26.3,30.00,SSE,158,4.7,4.7,72,0.00,,,0.00,VWS V14.01,2013-04-21 11:55:00,
2013-04-21 06:56:00,34.5,26.4,30.00,SSW,202,8.7,8.7,72,0.00,,,0.00,VWS V14.01,2013-04-21 11:56:00,
2013-04-21 06:57:00,34.5,26.1,30.00,WSW,248,10.1,10.1,71,0.00,,,0.00,VWS V14.01,2013-04-21 11:57:00,
2013-04-21 06:58:00,34.5,26.1,30.00,SSW,202,9.4,9.4,71,0.00,,,0.00,VWS V14.01,2013-04-21 11:58:00,
2013-04-21 06:59:00,34.5,26.1,30.00,SW,225,7.4,7.4,71,0.00,,,0.00,VWS V14.01,2013-04-21 11:59:00,
2013-04-21 07:00:00,34.5,26.1,30.00,NW,315,4.0,4.0,71,0.00,,,0.00,VWS V14.01,2013-04-21 12:00:00,
2013-04-21 07:01:00,34.5,26.1,30.00,SSE,158,16.1,16.1,71,0.00,,,0.00,VWS V14.01,2013-04-21 12:01:00,
2013-04-21 07:02:00,34.5,26.1,30.00,SSE,158,9.4,9.4,71,0.00,,,0.00,VWS V14.01,2013-04-21 12:02:00,
2013-04-21 07:03:00,34.5,25.8,30.00,SSW,202,4.0,4.0,70,0.00,,,0.00,VWS V14.01,2013-04-21 12:03:00,
2013-04-21 07:04:00,34.5,25.8,30.00,SW,225,7.4,7.4,70,0.00,,,0.00,VWS V14.01,2013-04-21 12:04:00,
2013-04-21 07:05:00,34.5,25.8,30.00,NNE,22,3.4,3.4,70,0.00,,,0.00,VWS V14.01,2013-04-21 12:05:00,
2013-04-21 07:06:00,34.5,25.4,30.00,SW,225,10.1,10.1,69,0.00,,,0.00,VWS V14.01,2013-04-21 12:06:00,
2013-04-21 07:07:00,34.5,25.4,30.00,SSW,202,4.0,4.0,69,0.00,,,0.00,VWS V14.01,2013-04-21 12:07:00,
2013-04-21 07:08:00,34.5,25.4,30.00,WSW,248,9.4,9.4,69,0.00,,,0.00,VWS V14.01,2013-04-21 12:08:00,
2013-04-21 07:09:00,34.5,25.4,30.00,SE,135,4.7,4.7,69,0.00,,,0.00,VWS V14.01,2013-04-21 12:09:00,
2013-04-21 07:10:00,34.5,25.4,30.00,SW,225,19.5,19.5,69,0.00,,,0.00,VWS V14.01,2013-04-21 12:10:00,
2013-04-21 07:11:00,34.5,25.1,30.03,ESE,112,6.0,8.1,68,0.00,,,0.00,VWS V14.01,2013-04-21 12:11:00,
2013-04-21 07:12:00,34.5,25.1,30.03,ENE,68,10.7,10.7,68,0.00,,,0.00,VWS V14.01,2013-04-21 12:12:00,
2013-04-21 07:13:00,34.5,25.1,30.03,SE,135,4.7,4.7,68,0.00,,,0.00,VWS V14.01,2013-04-21 12:13:00,
2013-04-21 07:14:00,34.7,25.2,30.03,SE,135,0.0,3.8,68,0.00,,,0.00,VWS V14.01,2013-04-21 12:14:00,
2013-04-21 07:15:00,34.7,25.2,30.03,West,270,6.0,6.0,68,0.00,,,0.00,VWS V14.01,2013-04-21 12:15:00,
2013-04-21 07:16:00,34.7,25.2,30.03,ESE,112,8.1,8.1,68,0.00,,,0.00,VWS V14.01,2013-04-21 12:16:00,
2013-04-21 07:17:00,34.9,25.4,30.03,SE,135,3.4,4.3,68,0.00,,,0.00,VWS V14.01,2013-04-21 12:17:00,
2013-04-21 07:18:00,33.8,26.7,30.00,SSE,158,10.1,10.1,75,0.00,,,0.00,VWS V14.01,2013-04-21 12:18:00,
2013-04-21 07:19:00,35.1,25.2,30.03,SW,225,10.1,10.1,67,0.00,,,0.00,VWS V14.01,2013-04-21 12:19:00,
2013-04-21 07:20:00,35.1,25.2,30.03,SW,225,3.4,3.6,67,0.00,,,0.00,VWS V14.01,2013-04-21 12:20:00,
2013-04-21 07:21:00,35.1,24.9,30.03,SSW,202,7.4,7.4,66,0.00,,,0.00,VWS V14.01,2013-04-21 12:21:00,
2013-04-21 07:22:00,35.1,24.9,30.03,SSE,158,9.4,9.4,66,0.00,,,0.00,VWS V14.01,2013-04-21 12:22:00,
2013-04-21 07:23:00,35.1,24.9,30.03,SSE,158,6.0,6.0,66,0.00,,,0.00,VWS V14.01,2013-04-21 12:23:00,
2013-04-21 07:24:00,35.2,25.0,30.03,SSW,202,2.7,2.9,66,0.00,,,0.00,VWS V14.01,2013-04-21 12:24:00,
2013-04-21 07:25:00,35.2,25.0,30.00,South,180,6.0,6.0,66,0.00,,,0.00,VWS V14.01,2013-04-21 12:25:00,
2013-04-21 07:26:00,35.2,24.7,30.00,SSE,158,8.1,8.1,65,0.00,,,0.00,VWS V14.01,2013-04-21 12:26:00,
2013-04-21 07:27:00,35.2,24.7,30.00,SSW,202,14.8,14.8,65,0.00,,,0.00,VWS V14.01,2013-04-21 12:27:00,
2013-04-21 07:28:00,35.2,24.7,30.00,WSW,248,4.0,7.2,65,0.00,,,0.00,VWS V14.01,2013-04-21 12:28:00,
2013-04-21 07:29:00,35.2,24.3,30.00,ENE,68,3.4,3.4,64,0.00,,,0.00,VWS V14.01,2013-04-21 12:29:00,
2013-04-21 07:30:00,35.2,24.3,30.00,SSE,158,3.4,3.4,64,0.00,,,0.00,VWS V14.01,2013-04-21 12:30:00,
2013-04-21 07:31:00,35.2,24.3,30.00,SE,135,8.1,8.1,64,0.00,,,0.00,VWS V14.01,2013-04-21 12:31:00,
2013-04-21 07:32:00,35.2,24.3,30.00,South,180,8.1,8.1,64,0.00,,,0.00,VWS V14.01,2013-04-21 12:32:00,
2013-04-21 07:33:00,35.2,24.3,30.00,NE,45,12.8,12.8,64,0.00,,,0.00,VWS V14.01,2013-04-21 12:33:00,
2013-04-21 07:34:00,35.2,23.9,30.00,SSW,202,9.4,9.4,63,0.00,,,0.00,VWS V14.01,2013-04-21 12:34:00,
2013-04-21 07:35:00,35.4,24.1,30.00,SSE,158,10.1,10.1,63,0.00,,,0.00,VWS V14.01,2013-04-21 12:35:00,
2013-04-21 07:36:00,35.4,24.1,30.00,SSE,158,9.4,9.4,63,0.00,,,0.00,VWS V14.01,2013-04-21 12:36:00,
2013-04-21 07:37:00,35.4,23.7,30.00,SSE,158,7.4,7.4,62,0.00,,,0.00,VWS V14.01,2013-04-21 12:37:00,
2013-04-21 07:38:00,35.4,23.7,30.00,SW,225,6.0,6.0,62,0.00,,,0.00,VWS V14.01,2013-04-21 12:38:00,
2013-04-21 07:39:00,35.4,23.7,30.00,SE,135,8.1,8.1,62,0.00,,,0.00,VWS V14.01,2013-04-21 12:39:00,
2013-04-21 07:40:00,35.4,23.7,30.00,NE,45,6.0,6.0,62,0.00,,,0.00,VWS V14.01,2013-04-21 12:40:00,
2013-04-21 07:41:00,35.4,23.7,30.00,SE,135,4.7,4.7,62,0.00,,,0.00,VWS V14.01,2013-04-21 12:41:00,
2013-04-21 07:42:00,35.4,23.3,30.00,East,90,6.0,6.0,61,0.00,,,0.00,VWS V14.01,2013-04-21 12:42:00,
2013-04-21 07:43:00,35.4,23.3,30.00,SSE,158,4.7,4.7,61,0.00,,,0.00,VWS V14.01,2013-04-21 12:43:00,
2013-04-21 07:44:00,35.4,23.3,30.00,South,180,3.4,3.4,61,0.00,,,0.00,VWS V14.01,2013-04-21 12:44:00,
2013-04-21 07:45:00,35.4,23.3,30.00,ENE,68,0.0,2.2,61,0.00,,,0.00,VWS V14.01,2013-04-21 12:45:00,
2013-04-21 07:46:00,35.4,23.3,30.00,SSE,158,6.7,6.7,61,0.00,,,0.00,VWS V14.01,2013-04-21 12:46:00,
2013-04-21 07:47:00,35.4,23.3,30.00,SSW,202,10.1,10.1,61,0.00,,,0.00,VWS V14.01,2013-04-21 12:47:00,
2013-04-21 07:48:00,35.6,23.1,30.00,ESE,112,4.7,4.7,60,0.00,,,0.00,VWS V14.01,2013-04-21 12:48:00,
2013-04-21 07:49:00,35.6,23.1,30.00,South,180,16.1,16.1,60,0.00,,,0.00,VWS V14.01,2013-04-21 12:49:00,
2013-04-21 07:50:00,35.6,23.1,30.00,NNW,338,10.1,10.1,60,0.00,,,0.00,VWS V14.01,2013-04-21 12:50:00,
2013-04-21 07:51:00,35.6,23.1,30.00,SE,135,6.0,6.0,60,0.00,,,0.00,VWS V14.01,2013-04-21 12:51:00,
2013-04-21 07:52:00,35.6,23.1,30.00,SSE,158,7.4,7.4,60,0.00,,,0.00,VWS V14.01,2013-04-21 12:52:00,
2013-04-21 07:53:00,35.8,22.9,30.00,SSW,202,6.0,6.0,59,0.00,,,0.00,VWS V14.01,2013-04-21 12:53:00,
2013-04-21 07:54:00,35.8,22.9,30.00,SW,225,6.0,6.0,59,0.00,,,0.00,VWS V14.01,2013-04-21 12:54:00,
2013-04-21 07:55:00,35.8,22.9,30.00,SSE,158,7.4,7.4,59,0.00,,,0.00,VWS V14.01,2013-04-21 12:55:00,
2013-04-21 07:56:00,35.8,22.9,30.00,SSE,158,0.0,3.1,59,0.00,,,0.25,VWS V14.01,2013-04-21 12:56:00,
2013-04-21 07:57:00,36.0,23.0,30.00,ESE,112,3.4,3.4,59,0.00,,,0.00,VWS V14.01,2013-04-21 12:57:00,
2013-04-21 07:58:00,36.1,23.2,30.00,South,180,11.4,11.4,59,0.00,,,0.00,VWS V14.01,2013-04-21 12:58:00,
2013-04-21 07:59:00,36.1,22.8,30.00,South,180,4.7,4.7,58,0.00,,,0.00,VWS V14.01,2013-04-21 12:59:00,
2013-04-21 08:00:00,36.1,22.8,30.00,SW,225,0.0,3.1,58,0.00,,,0.00,VWS V14.01,2013-04-21 13:00:00,
2013-04-21 08:01:00,36.1,22.8,30.00,SSW,202,13.4,13.4,58,0.00,,,0.00,VWS V14.01,2013-04-21 13:01:00,
2013-04-21 08:02:00,36.1,22.4,30.00,WSW,248,6.0,7.2,57,0.00,,,0.00,VWS V14.01,2013-04-21 13:02:00,
2013-04-21 08:03:00,36.1,22.4,30.00,SSW,202,8.1,8.1,57,0.00,,,0.00,VWS V14.01,2013-04-21 13:03:00,
2013-04-21 08:04:00,36.1,22.4,30.00,South,180,6.0,6.0,57,0.00,,,0.00,VWS V14.01,2013-04-21 13:04:00,
2013-04-21 08:05:00,36.1,22.4,30.00,SSW,202,7.4,7.4,57,0.00,,,0.00,VWS V14.01,2013-04-21 13:05:00,
2013-04-21 08:06:00,36.1,22.4,30.00,East,90,8.1,8.1,57,0.00,,,0.00,VWS V14.01,2013-04-21 13:06:00,
2013-04-21 08:07:00,36.1,22.4,30.00,SSE,158,8.7,8.7,57,0.00,,,0.00,VWS V14.01,2013-04-21 13:07:00,
2013-04-21 08:08:00,36.1,22.4,30.00,SE,135,12.1,12.1,57,0.00,,,0.00,VWS V14.01,2013-04-21 13:08:00,
2013-04-21 08:09:00,36.1,22.4,30.00,South,180,8.1,8.1,57,0.00,,,0.00,VWS V14.01,2013-04-21 13:09:00,
2013-04-21 08:10:00,36.1,22.4,30.00,South,180,7.4,7.4,57,0.00,,,0.00,VWS V14.01,2013-04-21 13:10:00,
2013-04-21 08:11:00,36.1,22.4,30.00,WSW,248,11.4,11.4,57,0.00,,,0.00,VWS V14.01,2013-04-21 13:11:00,
2013-04-21 08:12:00,36.1,22.4,30.00,SSE,158,9.4,9.4,57,0.00,,,0.00,VWS V14.01,2013-04-21 13:12:00,
2013-04-21 08:13:00,36.1,22.0,30.00,SW,225,7.4,7.4,56,0.00,,,0.00,VWS V14.01,2013-04-21 13:13:00,
2013-04-21 08:14:00,36.1,22.0,30.00,SSW,202,8.1,8.1,56,0.00,,,0.00,VWS V14.01,2013-04-21 13:14:00,
2013-04-21 08:15:00,36.1,22.0,30.00,SE,135,14.8,14.8,56,0.00,,,0.00,VWS V14.01,2013-04-21 13:15:00,
2013-04-21 08:16:00,36.1,22.0,30.00,South,180,18.1,18.1,56,0.00,,,0.00,VWS V14.01,2013-04-21 13:16:00,
2013-04-21 08:17:00,36.1,22.0,30.00,SSE,158,8.7,8.7,56,0.00,,,0.00,VWS V14.01,2013-04-21 13:17:00,
2013-04-21 08:18:00,36.1,22.0,30.00,SSW,202,10.1,10.1,56,0.00,,,0.00,VWS V14.01,2013-04-21 13:18:00,
2013-04-21 08:19:00,36.5,22.3,30.00,SSE,158,6.0,6.0,56,0.00,,,0.00,VWS V14.01,2013-04-21 13:19:00,
2013-04-21 08:20:00,36.5,22.3,30.00,SW,225,11.4,11.4,56,0.00,,,0.00,VWS V14.01,2013-04-21 13:20:00,
2013-04-21 08:21:00,36.5,22.3,30.00,SSE,158,12.1,12.1,56,0.00,,,0.00,VWS V14.01,2013-04-21 13:21:00,
2013-04-21 08:22:00,36.5,22.3,30.00,ESE,112,17.5,17.5,56,0.00,,,0.00,VWS V14.01,2013-04-21 13:22:00,
2013-04-21 08:23:00,36.5,22.3,30.00,South,180,8.1,8.1,56,0.00,,,0.00,VWS V14.01,2013-04-21 13:23:00,
2013-04-21 08:24:00,36.7,22.0,30.00,SSE,158,8.7,8.7,55,0.00,,,0.00,VWS V14.01,2013-04-21 13:24:00,
2013-04-21 08:25:00,36.7,22.0,29.97,South,180,10.1,10.1,55,0.00,,,0.25,VWS V14.01,2013-04-21 13:25:00,
2013-04-21 08:26:00,36.7,22.0,29.97,SSW,202,6.0,6.0,55,0.00,,,0.00,VWS V14.01,2013-04-21 13:26:00,
2013-04-21 08:27:00,36.7,22.0,29.97,South,180,7.4,7.4,55,0.00,,,0.00,VWS V14.01,2013-04-21 13:27:00,
2013-04-21 08:28:00,36.7,22.0,29.97,SSE,158,8.1,8.1,55,0.00,,,0.00,VWS V14.01,2013-04-21 13:28:00,
2013-04-21 08:29:00,36.7,22.0,29.97,South,180,8.1,8.1,55,0.00,,,0.00,VWS V14.01,2013-04-21 13:29:00,
2013-04-21 08:30:00,36.9,22.2,29.97,SSE,158,9.4,9.4,55,0.00,,,0.00,VWS V14.01,2013-04-21 13:30:00,
2013-04-21 08:31:00,36.9,22.2,29.97,WSW,248,9.4,9.4,55,0.00,,,0.00,VWS V14.01,2013-04-21 13:31:00,
2013-04-21 08:32:00,36.9,22.2,29.97,South,180,9.4,9.4,55,0.00,,,0.00,VWS V14.01,2013-04-21 13:32:00,
2013-04-21 08:33:00,36.9,22.2,29.97,SW,225,10.1,10.1,55,0.00,,,0.00,VWS V14.01,2013-04-21 13:33:00,
2013-04-21 08:34:00,37.6,22.5,29.97,South,180,8.1,8.1,54,0.00,,,0.00,VWS V14.01,2013-04-21 13:34:00,
2013-04-21 08:35:00,37.8,22.6,29.97,WNW,292,7.4,7.4,54,0.00,,,0.00,VWS V14.01,2013-04-21 13:35:00,
2013-04-21 08:36:00,37.6,22.0,29.97,SE,135,16.1,16.1,53,0.00,,,0.00,VWS V14.01,2013-04-21 13:36:00,
2013-04-21 08:37:00,37.8,22.2,29.97,WSW,248,7.4,7.4,53,0.00,,,0.00,VWS V14.01,2013-04-21 13:37:00,
2013-04-21 08:38:00,37.8,22.2,29.97,SSE,158,8.7,8.7,53,0.00,,,0.00,VWS V14.01,2013-04-21 13:38:00,
2013-04-21 08:39:00,37.8,22.2,29.97,SW,225,3.4,3.4,53,0.00,,,0.00,VWS V14.01,2013-04-21 13:39:00,
2013-04-21 08:40:00,37.9,22.4,29.97,ESE,112,10.1,10.1,53,0.00,,,0.00,VWS V14.01,2013-04-21 13:40:00,
2013-04-21 08:41:00,37.9,22.4,29.97,SE,135,8.1,8.1,53,0.00,,,0.00,VWS V14.01,2013-04-21 13:41:00,
2013-04-21 08:42:00,38.3,22.7,29.97,WSW,248,10.7,10.7,53,0.00,,,0.00,VWS V14.01,2013-04-21 13:42:00,
2013-04-21 08:43:00,38.3,22.7,29.97,South,180,7.4,7.4,53,0.00,,,0.00,VWS V14.01,2013-04-21 13:43:00,
2013-04-21 08:44:00,38.8,22.7,29.97,SSE,158,10.1,10.1,52,0.00,,,0.00,VWS V14.01,2013-04-21 13:44:00,
2013-04-21 08:45:00,39.0,22.4,29.97,ESE,112,8.7,8.7,51,0.00,,,0.00,VWS V14.01,2013-04-21 13:45:00,
2013-04-21 08:46:00,39.2,22.6,29.97,SSW,202,4.7,4.7,51,0.00,,,0.00,VWS V14.01,2013-04-21 13:46:00,
2013-04-21 08:47:00,39.4,22.8,29.97,SE,135,11.4,11.4,51,0.00,,,0.00,VWS V14.01,2013-04-21 13:47:00,
2013-04-21 08:48:00,39.4,22.8,29.97,West,270,12.8,12.8,51,0.00,,,0.00,VWS V14.01,2013-04-21 13:48:00,
2013-04-21 08:49:00,39.4,22.8,29.97,SW,225,6.0,6.0,51,0.00,,,0.00,VWS V14.01,2013-04-21 13:49:00,
2013-04-21 08:50:00,39.2,22.1,29.97,SSW,202,9.4,9.4,50,0.00,,,0.00,VWS V14.01,2013-04-21 13:50:00,
2013-04-21 08:51:00,38.8,21.8,29.97,SSW,202,18.1,18.1,50,0.00,,,0.00,VWS V14.01,2013-04-21 13:51:00,
2013-04-21 08:52:00,38.8,21.8,29.97,SW,225,4.0,6.0,50,0.00,,,0.00,VWS V14.01,2013-04-21 13:52:00,
2013-04-21 08:53:00,38.8,21.8,29.97,ENE,68,3.4,3.4,50,0.00,,,0.00,VWS V14.01,2013-04-21 13:53:00,
2013-04-21 08:54:00,38.8,21.8,29.97,SSW,202,8.1,8.1,50,0.00,,,0.00,VWS V14.01,2013-04-21 13:54:00,
2013-04-21 08:55:00,38.7,21.6,29.97,SSW,202,16.8,16.8,50,0.00,,,0.00,VWS V14.01,2013-04-21 13:55:00,
2013-04-21 08:56:00,38.7,21.6,29.97,SSE,158,22.8,22.8,50,0.00,,,0.00,VWS V14.01,2013-04-21 13:56:00,
2013-04-21 08:57:00,38.5,21.5,29.97,SSW,202,8.1,8.1,50,0.00,,,0.00,VWS V14.01,2013-04-21 13:57:00,
2013-04-21 08:58:00,38.5,21.5,29.97,SE,135,10.1,10.1,50,0.00,,,0.00,VWS V14.01,2013-04-21 13:58:00,
2013-04-21 08:59:00,38.5,21.5,29.97,South,180,8.1,8.1,50,0.00,,,0.00,VWS V14.01,2013-04-21 13:59:00,
2013-04-21 09:00:00,38.3,21.3,29.97,South,180,8.7,8.7,50,0.00,,,0.00,VWS V14.01,2013-04-21 14:00:00,
2013-04-21 09:01:00,38.3,21.3,29.97,SSE,158,16.1,16.1,50,0.00,,,0.00,VWS V14.01,2013-04-21 14:01:00,
2013-04-21 09:02:00,38.3,21.8,29.97,South,180,6.0,6.0,51,0.00,,,0.00,VWS V14.01,2013-04-21 14:02:00,
2013-04-21 09:03:00,38.3,21.8,29.97,ESE,112,8.1,8.1,51,0.00,,,0.00,VWS V14.01,2013-04-21 14:03:00,
2013-04-21 09:04:00,38.3,21.8,29.97,ENE,68,8.1,8.1,51,0.00,,,0.00,VWS V14.01,2013-04-21 14:04:00,
2013-04-21 09:05:00,38.3,21.8,29.97,SW,225,10.7,10.7,51,0.00,,,0.00,VWS V14.01,2013-04-21 14:05:00,
2013-04-21 09:06:00,38.3,21.8,29.97,SSW,202,25.5,25.5,51,0.00,,,0.00,VWS V14.01,2013-04-21 14:06:00,
2013-04-21 09:07:00,38.3,21.8,29.97,SE,135,17.5,17.5,51,0.00,,,0.00,VWS V14.01,2013-04-21 14:07:00,
2013-04-21 09:08:00,38.5,21.9,29.97,ESE,112,4.0,6.3,51,0.00,,,0.00,VWS V14.01,2013-04-21 14:08:00,
2013-04-21 09:09:00,38.5,21.9,29.97,SSE,158,6.0,6.0,51,0.00,,,0.00,VWS V14.01,2013-04-21 14:09:00,
2013-04-21 09:10:00,38.5,21.9,29.97,SSE,158,9.4,9.4,51,0.00,,,0.00,VWS V14.01,2013-04-21 14:10:00,
2013-04-21 09:11:00,38.8,22.3,29.97,SSE,158,8.7,8.7,51,0.00,,,0.00,VWS V14.01,2013-04-21 14:11:00,
2013-04-21 09:12:00,39.0,22.0,29.97,ESE,112,11.4,11.4,50,0.00,,,0.00,VWS V14.01,2013-04-21 14:12:00,
2013-04-21 09:13:00,39.0,22.0,29.97,SW,225,8.1,8.1,50,0.00,,,0.00,VWS V14.01,2013-04-21 14:13:00,
2013-04-21 09:14:00,39.0,22.0,29.97,SSE,158,16.1,16.1,50,0.00,,,0.00,VWS V14.01,2013-04-21 14:14:00,
2013-04-21 09:15:00,38.8,21.8,29.97,SE,135,6.7,6.7,50,0.00,,,0.00,VWS V14.01,2013-04-21 14:15:00,
2013-04-21 09:16:00,38.8,21.8,29.97,South,180,8.1,8.1,50,0.00,,,0.00,VWS V14.01,2013-04-21 14:16:00,
2013-04-21 09:17:00,38.8,21.8,29.97,SE,135,7.4,7.4,50,0.00,,,0.00,VWS V14.01,2013-04-21 14:17:00,
2013-04-21 09:18:00,39.0,22.0,29.97,SE,135,10.1,10.1,50,0.00,,,0.00,VWS V14.01,2013-04-21 14:18:00,
2013-04-21 09:19:00,39.2,22.1,29.97,SSE,158,11.4,11.4,50,0.00,,,0.00,VWS V14.01,2013-04-21 14:19:00,
2013-04-21 09:20:00,39.4,22.3,29.97,South,180,6.0,6.0,50,0.00,,,0.00,VWS V14.01,2013-04-21 14:20:00,
2013-04-21 09:21:00,39.6,22.0,29.97,SSW,202,9.4,9.4,49,0.00,,,0.00,VWS V14.01,2013-04-21 14:21:00,
2013-04-21 09:22:00,39.6,22.0,29.97,ESE,112,12.8,12.8,49,0.00,,,0.00,VWS V14.01,2013-04-21 14:22:00,
2013-04-21 09:23:00,39.7,22.2,29.97,SE,135,9.4,9.4,49,0.00,,,0.00,VWS V14.01,2013-04-21 14:23:00,
2013-04-21 09:24:00,39.9,22.3,29.97,SSE,158,6.0,6.0,49,0.00,,,0.00,VWS V14.01,2013-04-21 14:24:00,
2013-04-21 09:25:00,40.1,22.5,29.97,SSW,202,7.4,7.4,49,0.00,,,0.00,VWS V14.01,2013-04-21 14:25:00,
2013-04-21 09:26:00,40.3,22.7,29.94,SE,135,14.8,14.8,49,0.00,,,0.00,VWS V14.01,2013-04-21 14:26:00,
2013-04-21 09:27:00,40.3,22.7,29.94,SSW,202,18.8,18.8,49,0.00,,,0.00,VWS V14.01,2013-04-21 14:27:00,
2013-04-21 09:28:00,40.5,22.3,29.94,East,90,10.1,10.1,48,0.00,,,0.00,VWS V14.01,2013-04-21 14:28:00,
2013-04-21 09:29:00,40.8,22.7,29.94,South,180,12.8,12.8,48,0.00,,,0.00,VWS V14.01,2013-04-21 14:29:00,
2013-04-21 09:30:00,41.4,23.2,29.94,South,180,10.7,10.7,48,0.00,,,0.00,VWS V14.01,2013-04-21 14:30:00,
2013-04-21 09:31:00,42.1,23.3,29.94,South,180,12.1,12.1,47,0.00,,,0.00,VWS V14.01,2013-04-21 14:31:00,
2013-04-21 09:32:00,42.4,23.1,29.94,South,180,10.7,10.7,46,0.00,,,0.00,VWS V14.01,2013-04-21 14:32:00,
2013-04-21 09:33:00,42.8,23.0,29.94,SW,225,6.0,6.0,45,0.00,,,0.00,VWS V14.01,2013-04-21 14:33:00,
2013-04-21 09:34:00,43.2,23.3,29.94,South,180,9.4,9.4,45,0.00,,,0.00,VWS V14.01,2013-04-21 14:34:00,
2013-04-21 09:35:00,43.7,23.2,29.94,West,270,7.4,7.4,44,0.00,,,0.00,VWS V14.01,2013-04-21 14:35:00,
2013-04-21 09:36:00,44.1,23.6,29.94,SE,135,6.0,6.0,44,0.00,,,0.00,VWS V14.01,2013-04-21 14:36:00,
2013-04-21 09:37:00,44.2,23.2,29.94,East,90,8.1,8.1,43,0.00,,,0.00,VWS V14.01,2013-04-21 14:37:00,
2013-04-21 09:38:00,43.9,22.3,29.94,East,90,8.1,8.1,42,0.00,,,0.00,VWS V14.01,2013-04-21 14:38:00,
2013-04-21 09:39:00,43.9,22.3,29.94,SSE,158,11.4,11.4,42,0.00,,,0.00,VWS V14.01,2013-04-21 14:39:00,
2013-04-21 09:40:00,44.1,22.5,29.94,SSE,158,8.1,8.1,42,0.00,,,0.00,VWS V14.01,2013-04-21 14:40:00,
2013-04-21 09:41:00,43.7,22.1,29.94,East,90,18.1,18.1,42,0.00,,,0.00,VWS V14.01,2013-04-21 14:41:00,
2013-04-21 09:42:00,43.7,22.1,29.94,East,90,18.1,18.1,42,0.00,,,0.00,VWS V14.01,2013-04-21 14:42:00,
2013-04-21 09:43:00,43.7,21.6,29.94,SE,135,12.8,12.8,41,0.00,,,0.00,VWS V14.01,2013-04-21 14:43:00,
2013-04-21 09:44:00,43.7,21.6,29.94,SSE,158,11.4,11.4,41,0.00,,,0.00,VWS V14.01,2013-04-21 14:44:00,
2013-04-21 09:45:00,43.7,21.6,29.94,ESE,112,8.7,8.7,41,0.00,,,0.00,VWS V14.01,2013-04-21 14:45:00,
2013-04-21 09:46:00,43.3,21.2,29.94,SSE,158,8.7,8.7,41,0.00,,,0.00,VWS V14.01,2013-04-21 14:46:00,
2013-04-21 09:47:00,43.7,21.6,29.94,NE,45,8.7,8.7,41,0.00,,,0.00,VWS V14.01,2013-04-21 14:47:00,
2013-04-21 09:48:00,44.4,22.2,29.94,SSW,202,9.4,9.4,41,0.00,,,0.00,VWS V14.01,2013-04-21 14:48:00,
2013-04-21 09:49:00,44.8,22.0,29.94,SE,135,10.7,10.7,40,0.00,,,0.00,VWS V14.01,2013-04-21 14:49:00,
2013-04-21 09:50:00,45.1,22.3,29.94,East,90,10.7,10.7,40,0.00,,,0.00,VWS V14.01,2013-04-21 14:50:00,
2013-04-21 09:51:00,45.3,22.4,29.94,SE,135,4.7,4.7,40,0.00,,,0.00,VWS V14.01,2013-04-21 14:51:00,
2013-04-21 09:52:00,45.1,22.3,29.94,WSW,248,9.4,9.4,40,0.00,,,0.00,VWS V14.01,2013-04-21 14:52:00,
2013-04-21 09:53:00,45.1,22.3,29.94,SE,135,17.5,17.5,40,0.00,,,0.00,VWS V14.01,2013-04-21 14:53:00,
2013-04-21 09:54:00,45.3,22.4,29.94,South,180,4.7,5.8,40,0.00,,,0.00,VWS V14.01,2013-04-21 14:54:00,
2013-04-21 09:55:00,45.1,21.7,29.94,SSW,202,6.0,6.0,39,0.00,,,0.00,VWS V14.01,2013-04-21 14:55:00,
2013-04-21 09:56:00,45.5,22.0,29.94,SSW,202,9.4,9.4,39,0.00,,,0.00,VWS V14.01,2013-04-21 14:56:00,
2013-04-21 09:57:00,45.1,21.7,29.94,SSW,202,10.1,10.1,39,0.00,,,0.00,VWS V14.01,2013-04-21 14:57:00,
2013-04-21 09:58:00,45.3,21.8,29.94,SE,135,10.1,10.1,39,0.00,,,0.00,VWS V14.01,2013-04-21 14:58:00,
2013-04-21 09:59:00,45.7,22.2,29.94,SSE,158,8.1,8.1,39,0.00,,,0.00,VWS V14.01,2013-04-21 14:59:00,
2013-04-21 10:00:00,46.2,22.6,29.94,ESE,112,10.7,10.7,39,0.00,,,0.00,VWS V14.01,2013-04-21 15:00:00,
2013-04-21 10:01:00,45.9,22.3,29.94,SSE,158,10.1,10.1,39,0.00,,,0.00,VWS V14.01,2013-04-21 15:01:00,
2013-04-21 10:02:00,45.7,22.2,29.94,SE,135,12.1,12.1,39,0.00,,,0.00,VWS V14.01,2013-04-21 15:02:00,
2013-04-21 10:03:00,45.9,22.3,29.94,SE,135,12.1,12.1,39,0.00,,,0.00,VWS V14.01,2013-04-21 15:03:00,
2013-04-21 10:04:00,46.2,22.6,29.94,SSW,202,18.1,18.1,39,0.00,,,0.00,VWS V14.01,2013-04-21 15:04:00,
2013-04-21 10:05:00,46.2,22.6,29.94,SSW,202,18.1,18.1,39,0.00,,,0.00,VWS V14.01,2013-04-21 15:05:00,
2013-04-21 10:06:00,45.7,21.5,29.94,South,180,16.1,16.1,38,0.00,,,0.00,VWS V14.01,2013-04-21 15:06:00,
2013-04-21 10:07:00,45.5,22.0,29.94,SSE,158,18.1,18.1,39,0.00,,,0.00,VWS V14.01,2013-04-21 15:07:00,
2013-04-21 10:08:00,45.5,22.0,29.94,SSE,158,22.2,22.2,39,0.00,,,0.00,VWS V14.01,2013-04-21 15:08:00,
2013-04-21 10:09:00,45.0,21.5,29.94,SSE,158,20.1,20.1,39,0.00,,,0.00,VWS V14.01,2013-04-21 15:09:00,
2013-04-21 10:10:00,45.3,21.8,29.94,ESE,112,4.7,7.4,39,0.00,,,0.00,VWS V14.01,2013-04-21 15:10:00,
2013-04-21 10:11:00,45.3,21.8,29.94,ESE,112,4.7,6.7,39,0.00,,,0.00,VWS V14.01,2013-04-21 15:11:00,
2013-04-21 10:12:00,45.5,22.0,29.94,ESE,112,4.7,4.7,39,0.00,,,0.00,VWS V14.01,2013-04-21 15:12:00,
2013-04-21 10:13:00,45.3,21.8,29.94,ESE,112,4.7,4.7,39,0.00,,,0.00,VWS V14.01,2013-04-21 15:13:00,
2013-04-21 10:14:00,45.9,22.3,29.94,NNE,22,9.4,9.4,39,0.00,,,0.00,VWS V14.01,2013-04-21 15:14:00,
2013-04-21 10:15:00,46.8,22.5,29.94,SE,135,8.1,8.1,38,0.00,,,0.00,VWS V14.01,2013-04-21 15:15:00,
2013-04-21 10:16:00,46.9,22.7,29.94,SSW,202,6.0,6.0,38,0.00,,,0.00,VWS V14.01,2013-04-21 15:16:00,
2013-04-21 10:17:00,46.9,22.7,29.94,South,180,12.1,12.1,38,0.00,,,0.00,VWS V14.01,2013-04-21 15:17:00,
2013-04-21 10:18:00,47.1,22.8,29.94,South,180,12.8,12.8,38,0.00,,,0.00,VWS V14.01,2013-04-21 15:18:00,
2013-04-21 10:19:00,47.3,23.0,29.94,South,180,23.5,23.5,38,0.00,,,0.00,VWS V14.01,2013-04-21 15:19:00,
2013-04-21 10:20:00,48.0,23.6,29.94,SE,135,12.1,12.1,38,0.00,,,0.25,VWS V14.01,2013-04-21 15:20:00,
2013-04-21 10:21:00,48.0,23.0,29.94,SSW,202,8.1,8.1,37,0.00,,,0.00,VWS V14.01,2013-04-21 15:21:00,
2013-04-21 10:22:00,48.6,23.5,29.94,SE,135,9.4,9.4,37,0.00,,,0.00,VWS V14.01,2013-04-21 15:22:00,
2013-04-21 10:23:00,48.6,23.5,29.94,West,270,12.1,12.1,37,0.00,,,0.00,VWS V14.01,2013-04-21 15:23:00,
2013-04-21 10:24:00,48.4,23.3,29.94,SW,225,8.1,10.3,37,0.00,,,0.00,VWS V14.01,2013-04-21 15:24:00,
2013-04-21 10:25:00,48.6,23.5,29.94,WSW,248,14.8,14.8,37,0.00,,,0.00,VWS V14.01,2013-04-21 15:25:00,
2013-04-21 10:26:00,48.2,23.2,29.91,SSW,202,9.4,9.4,37,0.00,,,0.00,VWS V14.01,2013-04-21 15:26:00,
2013-04-21 10:27:00,48.2,23.2,29.91,SW,225,8.7,8.7,37,0.00,,,0.00,VWS V14.01,2013-04-21 15:27:00,
2013-04-21 10:28:00,48.7,23.6,29.91,South,180,14.1,14.1,37,0.00,,,0.00,VWS V14.01,2013-04-21 15:28:00,
2013-04-21 10:29:00,48.4,22.7,29.91,SSE,158,25.5,25.5,36,0.00,,,0.00,VWS V14.01,2013-04-21 15:29:00,
2013-04-21 10:30:00,48.2,22.5,29.91,SSE,158,25.5,25.5,36,0.00,,,0.00,VWS V14.01,2013-04-21 15:30:00,
2013-04-21 10:31:00,48.2,22.5,29.91,SSE,158,25.5,25.5,36,0.04,,,0.04,VWS V14.01,2013-04-21 15:31:00,
2013-04-21 10:32:00,48.7,23.6,29.91,SSW,202,7.4,8.5,37,0.04,,,0.04,VWS V14.01,2013-04-21 15:32:00,
2013-04-21 10:33:00,48.6,22.8,29.91,SSW,202,17.5,17.5,36,0.04,,,0.04,VWS V14.01,2013-04-21 15:33:00,
2013-04-21 10:34:00,48.0,23.0,29.91,SSW,202,17.5,17.5,37,0.04,,,0.04,VWS V14.01,2013-04-21 15:34:00,
2013-04-21 10:35:00,47.7,22.7,29.91,SSW,202,17.5,17.5,37,0.04,,,0.04,VWS V14.01,2013-04-21 15:35:00,
2013-04-21 10:36:00,47.8,22.9,29.91,SSW,202,8.7,8.7,37,0.04,,,0.04,VWS V14.01,2013-04-21 15:36:00,
2013-04-21 10:37:00,48.0,23.0,29.91,South,180,22.8,22.8,37,0.04,,,0.04,VWS V14.01,2013-04-21 15:37:00,
2013-04-21 10:38:00,48.6,22.8,29.91,SW,225,7.4,7.6,36,0.04,,,0.04,VWS V14.01,2013-04-21 15:38:00,
2013-04-21 10:39:00,48.4,22.7,29.91,SSW,202,12.8,12.8,36,0.04,,,0.04,VWS V14.01,2013-04-21 15:39:00,
2013-04-21 10:40:00,48.2,22.5,29.94,SSW,202,12.8,12.8,36,0.04,,,0.04,VWS V14.01,2013-04-21 15:40:00,
2013-04-21 10:41:00,48.4,22.7,29.94,SSW,202,12.8,12.8,36,0.04,,,0.04,VWS V14.01,2013-04-21 15:41:00,
2013-04-21 10:42:00,48.4,22.7,29.94,SSW,202,12.8,12.8,36,0.04,,,0.04,VWS V14.01,2013-04-21 15:42:00,
2013-04-21 10:43:00,50.2,24.3,29.94,SSW,202,4.7,4.7,36,0.04,,,0.04,VWS V14.01,2013-04-21 15:43:00,
2013-04-21 10:44:00,50.0,23.4,29.94,SSW,202,20.8,20.8,35,0.04,,,0.04,VWS V14.01,2013-04-21 15:44:00,
2013-04-21 10:45:00,50.7,24.1,29.94,SE,135,6.0,6.9,35,0.04,,,0.04,VWS V14.01,2013-04-21 15:45:00,
2013-04-21 10:46:00,51.1,23.7,29.94,SE,135,6.0,6.0,34,0.04,,,0.04,VWS V14.01,2013-04-21 15:46:00,
2013-04-21 10:47:00,51.8,24.3,29.94,SE,135,6.0,6.0,34,0.04,,,0.04,VWS V14.01,2013-04-21 15:47:00,
2013-04-21 10:48:00,52.2,24.7,29.94,SSE,158,8.1,8.1,34,0.04,,,0.04,VWS V14.01,2013-04-21 15:48:00,
2013-04-21 10:49:00,53.1,25.5,29.94,SSE,158,4.7,4.7,34,0.04,,,0.04,VWS V14.01,2013-04-21 15:49:00,
2013-04-21 10:50:00,53.2,24.2,29.94,SSW,202,4.7,4.7,32,0.04,,,0.04,VWS V14.01,2013-04-21 15:50:00,
2013-04-21 10:51:00,53.1,24.0,29.94,SSW,202,4.7,4.7,32,0.04,,,0.04,VWS V14.01,2013-04-21 15:51:00,
2013-04-21 10:52:00,52.7,22.9,29.94,South,180,10.7,10.7,31,0.04,,,0.04,VWS V14.01,2013-04-21 15:52:00,
2013-04-21 10:53:00,52.2,22.5,29.94,South,180,10.7,10.7,31,0.04,,,0.04,VWS V14.01,2013-04-21 15:53:00,
2013-04-21 10:54:00,51.8,22.1,29.94,SSW,202,18.8,18.8,31,0.04,,,0.04,VWS V14.01,2013-04-21 15:54:00,
2013-04-21 10:55:00,51.3,22.4,29.94,South,180,19.5,19.5,32,0.04,,,0.04,VWS V14.01,2013-04-21 15:55:00,
2013-04-21 10:56:00,51.3,22.4,29.94,South,180,19.5,19.5,32,0.04,,,0.04,VWS V14.01,2013-04-21 15:56:00,
2013-04-21 10:57:00,50.9,22.1,29.94,SSE,158,25.5,25.5,32,0.04,,,0.04,VWS V14.01,2013-04-21 15:57:00,
2013-04-21 10:58:00,51.6,22.7,29.94,SSE,158,25.5,25.5,32,0.04,,,0.04,VWS V14.01,2013-04-21 15:58:00,
2013-04-21 10:59:00,52.0,22.3,29.94,SE,135,8.7,8.7,31,0.04,,,0.04,VWS V14.01,2013-04-21 15:59:00,
2013-04-21 11:00:00,52.2,22.5,29.94,SSW,202,20.8,20.8,31,0.04,,,0.04,VWS V14.01,2013-04-21 16:00:00,
2013-04-21 11:01:00,52.2,22.5,29.94,SSW,202,20.8,20.8,31,0.04,,,0.04,VWS V14.01,2013-04-21 16:01:00,
2013-04-21 11:02:00,52.9,23.1,29.94,SW,225,11.4,11.4,31,0.04,,,0.04,VWS V14.01,2013-04-21 16:02:00,
2013-04-21 11:03:00,52.2,21.7,29.94,SSW,202,21.5,21.5,30,0.04,,,0.04,VWS V14.01,2013-04-21 16:03:00,
2013-04-21 11:04:00,52.7,22.2,29.94,South,180,17.5,17.5,30,0.04,,,0.04,VWS V14.01,2013-04-21 16:04:00,
2013-04-21 11:05:00,52.5,22.0,29.94,SSW,202,18.1,18.1,30,0.04,,,0.04,VWS V14.01,2013-04-21 16:05:00,
2013-04-21 11:06:00,51.6,22.0,29.94,South,180,22.2,22.2,31,0.04,,,0.04,VWS V14.01,2013-04-21 16:06:00,
2013-04-21 11:07:00,52.2,21.7,29.94,ESE,112,22.2,22.2,30,0.04,,,0.04,VWS V14.01,2013-04-21 16:07:00,
2013-04-21 11:08:00,52.5,22.0,29.94,SSE,158,12.8,12.8,30,0.04,,,0.04,VWS V14.01,2013-04-21 16:08:00,
2013-04-21 11:09:00,53.4,22.8,29.94,South,180,8.1,8.1,30,0.04,,,0.04,VWS V14.01,2013-04-21 16:09:00,
2013-04-21 11:10:00,54.5,23.7,29.94,SSE,158,4.7,4.7,30,0.04,,,0.04,VWS V14.01,2013-04-21 16:10:00,
2013-04-21 11:11:00,54.1,22.6,29.94,SSE,158,4.7,4.7,29,0.04,,,0.04,VWS V14.01,2013-04-21 16:11:00,
2013-04-21 11:12:00,53.4,22.0,29.94,SSW,202,16.1,16.1,29,0.04,,,0.04,VWS V14.01,2013-04-21 16:12:00,
2013-04-21 11:13:00,52.5,21.2,29.94,SSW,202,16.1,16.1,29,0.04,,,0.04,VWS V14.01,2013-04-21 16:13:00,
2013-04-21 11:14:00,53.1,21.7,29.94,South,180,17.5,17.5,29,0.04,,,0.04,VWS V14.01,2013-04-21 16:14:00,
2013-04-21 11:15:00,53.1,21.7,29.94,SE,135,21.5,21.5,29,0.04,,,0.04,VWS V14.01,2013-04-21 16:15:00,
2013-04-21 11:16:00,53.4,22.0,29.94,SE,135,21.5,21.5,29,0.04,,,0.04,VWS V14.01,2013-04-21 16:16:00,
2013-04-21 11:17:00,52.9,21.5,29.94,East,90,30.9,30.9,29,0.04,,,0.04,VWS V14.01,2013-04-21 16:17:00,
2013-04-21 11:18:00,52.9,21.5,29.94,South,180,16.8,16.8,29,0.04,,,0.04,VWS V14.01,2013-04-21 16:18:00,
2013-04-21 11:19:00,52.5,21.2,29.94,SSE,158,8.7,8.7,29,0.04,,,0.04,VWS V14.01,2013-04-21 16:19:00,
2013-04-21 11:20:00,52.3,21.0,29.94,SSE,158,12.8,12.8,29,0.04,,,0.04,VWS V14.01,2013-04-21 16:20:00,
2013-04-21 11:21:00,52.9,21.5,29.94,North,0,10.7,10.7,29,0.04,,,0.04,VWS V14.01,2013-04-21 16:21:00,
2013-04-21 11:22:00,53.1,21.7,29.94,South,180,8.1,8.1,29,0.04,,,0.04,VWS V14.01,2013-04-21 16:22:00,
2013-04-21 11:23:00,52.2,20.9,29.94,SSW,202,8.1,8.1,29,0.04,,,0.04,VWS V14.01,2013-04-21 16:23:00,
2013-04-21 11:24:00,52.5,21.2,29.94,SSW,202,8.1,8.1,29,0.04,,,0.04,VWS V14.01,2013-04-21 16:24:00,
2013-04-21 11:25:00,52.5,21.2,29.94,WSW,248,8.1,8.1,29,0.04,,,0.04,VWS V14.01,2013-04-21 16:25:00,
2013-04-21 11:26:00,52.2,20.9,29.91,SE,135,9.4,9.4,29,0.04,,,0.04,VWS V14.01,2013-04-21 16:26:00,
2013-04-21 11:27:00,51.6,21.2,29.91,South,180,24.2,24.2,30,0.04,,,0.04,VWS V14.01,2013-04-21 16:27:00,
2013-04-21 11:28:00,51.4,21.1,29.91,South,180,21.5,21.5,30,0.04,,,0.04,VWS V14.01,2013-04-21 16:28:00,
2013-04-21 11:29:00,51.4,21.1,29.91,South,180,21.5,21.5,30,0.04,,,0.04,VWS V14.01,2013-04-21 16:29:00,
2013-04-21 11:30:00,51.1,20.8,29.91,SE,135,16.1,16.1,30,0.04,,,0.04,VWS V14.01,2013-04-21 16:30:00,
2013-04-21 11:31:00,51.4,21.1,29.91,SE,135,16.1,16.1,30,0.04,,,0.04,VWS V14.01,2013-04-21 16:31:00,
2013-04-21 11:32:00,51.6,21.2,29.91,SSE,158,10.7,10.7,30,0.04,,,0.04,VWS V14.01,2013-04-21 16:32:00,
2013-04-21 11:33:00,52.2,21.7,29.91,South,180,12.8,12.8,30,0.00,,,0.04,VWS V14.01,2013-04-21 16:33:00,
2013-04-21 11:34:00,52.2,21.7,29.91,SSW,202,17.5,17.5,30,0.00,,,0.04,VWS V14.01,2013-04-21 16:34:00,
2013-04-21 11:35:00,51.6,21.2,29.91,SSW,202,17.5,17.5,30,0.00,,,0.04,VWS V14.01,2013-04-21 16:35:00,
2013-04-21 11:36:00,51.3,20.9,29.91,SSE,158,21.5,21.5,30,0.00,,,0.04,VWS V14.01,2013-04-21 16:36:00,
2013-04-21 11:37:00,50.5,20.3,29.91,SSE,158,22.8,22.8,30,0.00,,,0.04,VWS V14.01,2013-04-21 16:37:00,
2013-04-21 11:38:00,49.5,20.1,29.91,South,180,28.2,28.2,31,0.00,,,0.04,VWS V14.01,2013-04-21 16:38:00,
2013-04-21 11:39:00,50.0,19.8,29.91,South,180,28.2,28.2,30,0.00,,,0.04,VWS V14.01,2013-04-21 16:39:00,
2013-04-21 11:40:00,50.0,20.6,29.91,SSE,158,12.1,12.1,31,0.00,,,0.04,VWS V14.01,2013-04-21 16:40:00,
2013-04-21 11:41:00,50.2,20.7,29.91,SSW,202,10.7,10.7,31,0.00,,,0.04,VWS V14.01,2013-04-21 16:41:00,
2013-04-21 11:42:00,50.4,20.9,29.91,SSW,202,10.7,10.7,31,0.00,,,0.04,VWS V14.01,2013-04-21 16:42:00,
2013-04-21 11:43:00,50.4,20.9,29.91,WSW,248,10.7,10.7,31,0.00,,,0.04,VWS V14.01,2013-04-21 16:43:00,
2013-04-21 11:44:00,50.2,20.7,29.91,WSW,248,10.7,10.7,31,0.00,,,0.04,VWS V14.01,2013-04-21 16:44:00,
2013-04-21 11:45:00,50.2,20.7,29.91,WSW,248,10.7,10.7,31,0.00,,,0.04,VWS V14.01,2013-04-21 16:45:00,
2013-04-21 11:46:00,49.8,20.4,29.91,SSE,158,24.2,24.2,31,0.00,,,0.04,VWS V14.01,2013-04-21 16:46:00,
2013-04-21 11:47:00,49.5,20.1,29.91,SSW,202,19.5,19.5,31,0.00,,,0.04,VWS V14.01,2013-04-21 16:47:00,
2013-04-21 11:48:00,49.6,21.0,29.91,SSW,202,22.2,22.2,32,0.00,,,0.04,VWS V14.01,2013-04-21 16:48:00,
2013-04-21 11:49:00,50.0,20.6,29.91,SSW,202,22.2,22.2,31,0.00,,,0.04,VWS V14.01,2013-04-21 16:49:00,
2013-04-21 11:50:00,50.4,20.9,29.91,SE,135,8.1,8.1,31,0.00,,,0.04,VWS V14.01,2013-04-21 16:50:00,
2013-04-21 11:51:00,50.7,21.2,29.91,SW,225,20.1,20.1,31,0.00,,,0.04,VWS V14.01,2013-04-21 16:51:00,
2013-04-21 11:52:00,51.4,21.8,29.91,SSW,202,16.8,16.8,31,0.00,,,0.04,VWS V14.01,2013-04-21 16:52:00,
2013-04-21 11:53:00,51.1,21.5,29.91,SSW,202,16.8,16.8,31,0.00,,,0.04,VWS V14.01,2013-04-21 16:53:00,
2013-04-21 11:54:00,51.6,22.0,29.91,SSW,202,8.1,8.1,31,0.00,,,0.04,VWS V14.01,2013-04-21 16:54:00,
2013-04-21 11:55:00,51.3,20.9,29.91,SSW,202,8.1,8.1,30,0.00,,,0.04,VWS V14.01,2013-04-21 16:55:00,
2013-04-21 11:56:00,51.1,21.5,29.88,SSW,202,9.4,9.4,31,0.00,,,0.04,VWS V14.01,2013-04-21 16:56:00,
2013-04-21 11:57:00,51.1,21.5,29.88,South,180,12.8,12.8,31,0.00,,,0.04,VWS V14.01,2013-04-21 16:57:00,
2013-04-21 11:58:00,51.3,21.7,29.88,ESE,112,10.7,10.7,31,0.00,,,0.04,VWS V14.01,2013-04-21 16:58:00,
2013-04-21 11:59:00,52.0,21.5,29.88,ESE,112,10.7,10.7,30,0.00,,,0.04,VWS V14.01,2013-04-21 16:59:00,
2013-04-21 12:00:00,52.3,21.8,29.88,SSW,202,11.4,11.4,30,0.00,,,0.25,VWS V14.01,2013-04-21 17:00:00,
2013-04-21 12:01:00,52.2,21.7,29.88,SSE,158,14.1,14.1,30,0.00,,,0.04,VWS V14.01,2013-04-21 17:01:00,
2013-04-21 12:02:00,52.7,22.2,29.88,SSE,158,14.1,14.1,30,0.00,,,0.04,VWS V14.01,2013-04-21 17:02:00,
2013-04-21 12:03:00,52.5,22.0,29.88,SE,135,11.4,11.4,30,0.00,,,0.04,VWS V14.01,2013-04-21 17:03:00,
2013-04-21 12:04:00,52.5,22.0,29.88,SE,135,4.7,4.7,30,0.00,,,0.04,VWS V14.01,2013-04-21 17:04:00,
2013-04-21 12:05:00,52.5,22.0,29.88,SE,135,4.7,4.7,30,0.00,,,0.04,VWS V14.01,2013-04-21 17:05:00,
2013-04-21 12:06:00,52.5,22.0,29.88,SSE,158,12.8,12.8,30,0.00,,,0.04,VWS V14.01,2013-04-21 17:06:00,
2013-04-21 12:07:00,51.6,21.2,29.88,South,180,16.1,16.1,30,0.00,,,0.04,VWS V14.01,2013-04-21 17:07:00,
2013-04-21 12:08:00,51.1,20.8,29.88,South,180,16.8,16.8,30,0.00,,,0.04,VWS V14.01,2013-04-21 17:08:00,
2013-04-21 12:09:00,51.1,20.8,29.88,SSW,202,16.8,16.8,30,0.00,,,0.04,VWS V14.01,2013-04-21 17:09:00,
2013-04-21 12:10:00,51.1,20.8,29.85,SSE,158,22.2,22.2,30,0.00,,,0.04,VWS V14.01,2013-04-21 17:10:00,
2013-04-21 12:11:00,51.3,20.9,29.85,South,180,17.5,17.5,30,0.00,,,0.04,VWS V14.01,2013-04-21 17:11:00,
2013-04-21 12:12:00,51.6,21.2,29.85,SSW,202,8.1,8.1,30,0.00,,,0.04,VWS V14.01,2013-04-21 17:12:00,
2013-04-21 12:13:00,51.8,21.4,29.85,SSE,158,8.7,8.7,30,0.00,,,0.04,VWS V14.01,2013-04-21 17:13:00,
2013-04-21 12:14:00,51.6,21.2,29.85,SSW,202,11.4,11.4,30,0.00,,,0.04,VWS V14.01,2013-04-21 17:14:00,
2013-04-21 12:15:00,50.9,20.6,29.85,SSW,202,22.8,22.8,30,0.00,,,0.04,VWS V14.01,2013-04-21 17:15:00,
2013-04-21 12:16:00,50.5,20.3,29.85,SE,135,25.5,25.5,30,0.00,,,0.04,VWS V14.01,2013-04-21 17:16:00,
2013-04-21 12:17:00,49.8,20.4,29.85,SSW,202,30.9,30.9,31,0.00,,,0.04,VWS V14.01,2013-04-21 17:17:00,
2013-04-21 12:18:00,49.8,20.4,29.85,SSW,202,26.2,26.2,31,0.00,,,0.04,VWS V14.01,2013-04-21 17:18:00,
2013-04-21 12:19:00,49.3,19.9,29.85,SSW,202,21.5,21.5,31,0.00,,,0.04,VWS V14.01,2013-04-21 17:19:00,
2013-04-21 12:20:00,49.1,19.8,29.85,South,180,8.7,8.7,31,0.00,,,0.04,VWS V14.01,2013-04-21 17:20:00,
2013-04-21 12:21:00,49.6,20.3,29.85,South,180,9.4,9.4,31,0.00,,,0.04,VWS V14.01,2013-04-21 17:21:00,
2013-04-21 12:22:00,49.8,20.4,29.85,SSE,158,12.8,12.8,31,0.00,,,0.04,VWS V14.01,2013-04-21 17:22:00,
2013-04-21 12:23:00,50.2,20.7,29.85,SSE,158,14.8,14.8,31,0.00,,,0.04,VWS V14.01,2013-04-21 17:23:00,
2013-04-21 12:24:00,50.0,20.6,29.85,SSW,202,12.1,12.1,31,0.00,,,0.04,VWS V14.01,2013-04-21 17:24:00,
2013-04-21 12:25:00,50.2,20.7,29.85,SSW,202,12.1,12.1,31,0.00,,,0.04,VWS V14.01,2013-04-21 17:25:00,
2013-04-21 12:26:00,50.2,20.7,29.88,SSW,202,12.1,12.1,31,0.00,,,0.04,VWS V14.01,2013-04-21 17:26:00,
2013-04-21 12:27:00,50.4,20.9,29.88,South,180,28.9,28.9,31,0.00,,,0.04,VWS V14.01,2013-04-21 17:27:00,
2013-04-21 12:28:00,49.8,20.4,29.88,South,180,28.9,28.9,31,0.00,,,0.25,VWS V14.01,2013-04-21 17:28:00,
2013-04-21 12:29:00,49.3,19.9,29.88,South,180,31.6,31.6,31,0.00,,,0.04,VWS V14.01,2013-04-21 17:29:00,
2013-04-21 12:30:00,49.5,20.9,29.88,South,180,31.6,31.6,32,0.00,,,0.04,VWS V14.01,2013-04-21 17:30:00,
2013-04-21 12:31:00,49.8,21.2,29.88,South,180,31.6,31.6,32,0.00,,,0.04,VWS V14.01,2013-04-21 17:31:00,
2013-04-21 12:32:00,50.0,21.3,29.88,South,180,8.1,10.5,32,0.00,,,0.04,VWS V14.01,2013-04-21 17:32:00,
2013-04-21 12:33:00,50.2,20.7,29.88,SSW,202,8.1,8.1,31,0.00,,,0.04,VWS V14.01,2013-04-21 17:33:00,
2013-04-21 12:34:00,50.0,20.6,29.88,SSE,158,17.5,17.5,31,0.00,,,0.04,VWS V14.01,2013-04-21 17:34:00,
2013-04-21 12:35:00,50.2,20.7,29.88,SSW,202,6.0,6.0,31,0.00,,,0.04,VWS V14.01,2013-04-21 17:35:00,
2013-04-21 12:36:00,50.4,20.9,29.88,SE,135,6.7,6.7,31,0.00,,,0.04,VWS V14.01,2013-04-21 17:36:00,
2013-04-21 12:37:00,50.9,21.4,29.88,South,180,31.6,31.6,31,0.00,,,0.04,VWS V14.01,2013-04-21 17:37:00,
2013-04-21 12:38:00,50.4,20.9,29.88,South,180,31.6,31.6,31,0.00,,,0.04,VWS V14.01,2013-04-21 17:38:00,
2013-04-21 12:39:00,50.5,21.0,29.88,WSW,248,4.0,10.5,31,0.00,,,0.04,VWS V14.01,2013-04-21 17:39:00,
2013-04-21 12:40:00,50.7,21.2,29.88,NE,45,10.1,10.1,31,0.00,,,0.04,VWS V14.01,2013-04-21 17:40:00,
2013-04-21 12:41:00,50.9,21.4,29.88,ESE,112,4.7,4.7,31,0.00,,,0.04,VWS V14.01,2013-04-21 17:41:00,
2013-04-21 12:42:00,50.2,20.7,29.88,ESE,112,4.7,4.7,31,0.00,,,0.04,VWS V14.01,2013-04-21 17:42:00,
2013-04-21 12:43:00,50.2,20.7,29.88,SW,225,22.8,22.8,31,0.00,,,0.04,VWS V14.01,2013-04-21 17:43:00,
2013-04-21 12:44:00,49.8,21.2,29.88,SE,135,18.8,18.8,32,0.00,,,0.04,VWS V14.01,2013-04-21 17:44:00,
2013-04-21 12:45:00,49.5,20.9,29.88,SE,135,18.8,18.8,32,0.00,,,0.04,VWS V14.01,2013-04-21 17:45:00,
2013-04-21 12:46:00,49.6,21.0,29.88,SE,135,18.8,18.8,32,0.00,,,0.04,VWS V14.01,2013-04-21 17:46:00,
2013-04-21 12:47:00,49.6,21.0,29.88,SW,225,12.1,12.1,32,0.00,,,0.04,VWS V14.01,2013-04-21 17:47:00,
2013-04-21 12:48:00,49.6,21.0,29.88,South,180,11.4,11.4,32,0.00,,,0.04,VWS V14.01,2013-04-21 17:48:00,
2013-04-21 12:49:00,49.8,21.2,29.88,SSW,202,4.0,4.9,32,0.00,,,0.04,VWS V14.01,2013-04-21 17:49:00,
2013-04-21 12:50:00,49.6,21.0,29.88,SSW,202,4.0,4.0,32,0.00,,,0.04,VWS V14.01,2013-04-21 17:50:00,
2013-04-21 12:51:00,49.6,21.0,29.88,SSW,202,4.0,4.0,32,0.00,,,0.04,VWS V14.01,2013-04-21 17:51:00,
2013-04-21 12:52:00,49.8,21.2,29.88,SSW,202,12.8,12.8,32,0.00,,,0.04,VWS V14.01,2013-04-21 17:52:00,
2013-04-21 12:53:00,49.8,21.9,29.88,North,0,11.4,11.4,33,0.00,,,0.04,VWS V14.01,2013-04-21 17:53:00,
2013-04-21 12:54:00,49.5,20.9,29.88,North,0,11.4,11.4,32,0.00,,,0.04,VWS V14.01,2013-04-21 17:54:00,
2013-04-21 12:55:00,49.5,21.6,29.88,South,180,17.5,17.5,33,0.00,,,0.04,VWS V14.01,2013-04-21 17:55:00,
2013-04-21 12:56:00,49.8,21.9,29.88,South,180,17.5,17.5,33,0.00,,,0.04,VWS V14.01,2013-04-21 17:56:00,
2013-04-21 12:57:00,50.2,21.5,29.88,South,180,10.1,10.1,32,0.00,,,0.04,VWS V14.01,2013-04-21 17:57:00,
2013-04-21 12:58:00,50.0,21.3,29.88,South,180,10.1,10.1,32,0.00,,,0.04,VWS V14.01,2013-04-21 17:58:00,
2013-04-21 12:59:00,49.6,21.7,29.88,South,180,10.1,10.1,33,0.00,,,0.04,VWS V14.01,2013-04-21 17:59:00,
2013-04-21 13:00:00,49.6,21.7,29.88,South,180,10.1,10.1,33,0.00,,,0.04,VWS V14.01,2013-04-21 18:00:00,
2013-04-21 13:01:00,49.8,21.9,29.88,SSW,202,24.2,24.2,33,0.00,,,0.04,VWS V14.01,2013-04-21 18:01:00,
2013-04-21 13:02:00,50.0,21.3,29.88,SSW,202,24.2,24.2,32,0.00,,,0.04,VWS V14.01,2013-04-21 18:02:00,
2013-04-21 13:03:00,50.0,21.3,29.88,SSW,202,24.2,24.2,32,0.00,,,0.04,VWS V14.01,2013-04-21 18:03:00,
2013-04-21 13:04:00,49.8,21.9,29.88,SSE,158,16.1,16.1,33,0.00,,,0.04,VWS V14.01,2013-04-21 18:04:00,
2013-04-21 13:05:00,50.0,21.3,29.88,SSE,158,16.1,16.1,32,0.00,,,0.04,VWS V14.01,2013-04-21 18:05:00,
2013-04-21 13:06:00,50.0,21.3,29.88,SSE,158,16.1,16.1,32,0.00,,,0.04,VWS V14.01,2013-04-21 18:06:00,
2013-04-21 13:07:00,50.2,21.5,29.88,SW,225,8.1,8.1,32,0.00,,,0.04,VWS V14.01,2013-04-21 18:07:00,
2013-04-21 13:08:00,50.2,21.5,29.88,SW,225,8.1,8.1,32,0.00,,,0.04,VWS V14.01,2013-04-21 18:08:00,
2013-04-21 13:09:00,50.4,21.6,29.88,SSW,202,17.5,17.5,32,0.00,,,0.04,VWS V14.01,2013-04-21 18:09:00,
2013-04-21 13:10:00,50.7,22.0,29.88,SSW,202,4.7,5.8,32,0.00,,,0.04,VWS V14.01,2013-04-21 18:10:00,
2013-04-21 13:11:00,50.4,21.6,29.88,SSW,202,14.8,14.8,32,0.00,,,0.04,VWS V14.01,2013-04-21 18:11:00,
2013-04-21 13:12:00,50.2,21.5,29.88,SSE,158,14.8,14.8,32,0.00,,,0.04,VWS V14.01,2013-04-21 18:12:00,
2013-04-21 13:13:00,50.2,21.5,29.88,SSE,158,14.8,14.8,32,0.00,,,0.04,VWS V14.01,2013-04-21 18:13:00,
2013-04-21 13:14:00,50.2,21.5,29.88,SSE,158,16.1,16.1,32,0.00,,,0.04,VWS V14.01,2013-04-21 18:14:00,
2013-04-21 13:15:00,50.2,21.5,29.88,SSE,158,16.1,16.1,32,0.00,,,0.04,VWS V14.01,2013-04-21 18:15:00,
2013-04-21 13:16:00,49.5,21.6,29.88,South,180,17.5,17.5,33,0.00,,,0.04,VWS V14.01,2013-04-21 18:16:00,
2013-04-21 13:17:00,49.5,21.6,29.88,SSE,158,10.7,10.7,33,0.00,,,0.04,VWS V14.01,2013-04-21 18:17:00,
2013-04-21 13:18:00,49.3,21.4,29.88,SSW,202,8.7,8.7,33,0.00,,,0.04,VWS V14.01,2013-04-21 18:18:00,
2013-04-21 13:19:00,49.3,22.1,29.88,South,180,10.7,10.7,34,0.00,,,0.04,VWS V14.01,2013-04-21 18:19:00,
2013-04-21 13:20:00,49.3,22.1,29.88,SE,135,16.1,16.1,34,0.00,,,0.04,VWS V14.01,2013-04-21 18:20:00,
2013-04-21 13:21:00,49.3,22.1,29.88,SSW,202,7.4,7.4,34,0.00,,,0.04,VWS V14.01,2013-04-21 18:21:00,
2013-04-21 13:22:00,49.1,22.0,29.88,SE,135,19.5,19.5,34,0.00,,,0.04,VWS V14.01,2013-04-21 18:22:00,
2013-04-21 13:23:00,48.7,21.6,29.88,South,180,14.1,14.1,34,0.00,,,0.04,VWS V14.01,2013-04-21 18:23:00,
2013-04-21 13:24:00,48.7,21.6,29.88,SSW,202,8.7,8.7,34,0.00,,,0.04,VWS V14.01,2013-04-21 18:24:00,
2013-04-21 13:25:00,48.6,21.5,29.88,SE,135,9.4,9.4,34,0.00,,,0.04,VWS V14.01,2013-04-21 18:25:00,
2013-04-21 13:26:00,48.6,22.2,29.85,SE,135,9.4,9.4,35,0.00,,,0.04,VWS V14.01,2013-04-21 18:26:00,
2013-04-21 13:27:00,48.6,22.2,29.85,SSW,202,10.7,10.7,35,0.00,,,0.04,VWS V14.01,2013-04-21 18:27:00,
2013-04-21 13:28:00,48.4,22.0,29.85,SW,225,10.7,10.7,35,0.00,,,0.04,VWS V14.01,2013-04-21 18:28:00,
2013-04-21 13:29:00,48.2,21.9,29.85,SSE,158,9.4,9.4,35,0.00,,,0.04,VWS V14.01,2013-04-21 18:29:00,
2013-04-21 13:30:00,48.2,21.9,29.85,SSW,202,10.7,10.7,35,0.00,,,0.04,VWS V14.01,2013-04-21 18:30:00,
2013-04-21 13:31:00,47.8,22.9,29.85,SSW,202,10.7,10.7,37,0.00,,,0.04,VWS V14.01,2013-04-21 18:31:00,
2013-04-21 13:32:00,47.8,22.9,29.85,SSW,202,10.7,10.7,37,0.00,,,0.04,VWS V14.01,2013-04-21 18:32:00,
2013-04-21 13:33:00,47.8,22.9,29.85,SSW,202,10.7,10.7,37,0.00,,,0.04,VWS V14.01,2013-04-21 18:33:00,
2013-04-21 13:34:00,48.0,23.0,29.85,SSW,202,10.7,10.7,37,0.00,,,0.04,VWS V14.01,2013-04-21 18:34:00,
2013-04-21 13:35:00,48.0,23.0,29.85,SSE,158,8.1,8.1,37,0.00,,,0.04,VWS V14.01,2013-04-21 18:35:00,
2013-04-21 13:36:00,48.0,23.0,29.85,SSE,158,8.1,8.1,37,0.00,,,0.04,VWS V14.01,2013-04-21 18:36:00,
2013-04-21 13:37:00,47.8,22.9,29.85,SSW,202,17.5,17.5,37,0.00,,,0.04,VWS V14.01,2013-04-21 18:37:00,
2013-04-21 13:38:00,47.7,22.7,29.85,SSW,202,17.5,17.5,37,0.00,,,0.04,VWS V14.01,2013-04-21 18:38:00,
2013-04-21 13:39:00,47.3,22.4,29.85,SE,135,8.1,8.1,37,0.00,,,0.04,VWS V14.01,2013-04-21 18:39:00,
2013-04-21 13:40:00,47.3,22.4,29.85,South,180,9.4,9.4,37,0.00,,,0.04,VWS V14.01,2013-04-21 18:40:00,
2013-04-21 13:41:00,47.3,22.4,29.85,SSE,158,10.1,10.1,37,0.00,,,0.04,VWS V14.01,2013-04-21 18:41:00,
2013-04-21 13:42:00,47.3,22.4,29.85,SSE,158,10.1,10.1,37,0.00,,,0.04,VWS V14.01,2013-04-21 18:42:00,
2013-04-21 13:43:00,47.5,22.5,29.85,SSE,158,10.1,10.1,37,0.00,,,0.04,VWS V14.01,2013-04-21 18:43:00,
2013-04-21 13:44:00,47.5,22.5,29.85,SSE,158,10.1,10.1,37,0.00,,,0.04,VWS V14.01,2013-04-21 18:44:00,
2013-04-21 13:45:00,47.5,22.5,29.85,SW,225,14.1,14.1,37,0.00,,,0.04,VWS V14.01,2013-04-21 18:45:00,
2013-04-21 13:46:00,47.3,23.0,29.85,SSW,202,8.1,8.1,38,0.00,,,0.04,VWS V14.01,2013-04-21 18:46:00,
2013-04-21 13:47:00,47.1,22.8,29.85,South,180,9.4,9.4,38,0.00,,,0.04,VWS V14.01,2013-04-21 18:47:00,
2013-04-21 13:48:00,47.1,22.8,29.85,SSE,158,11.4,11.4,38,0.00,,,0.04,VWS V14.01,2013-04-21 18:48:00,
2013-04-21 13:49:00,47.1,22.8,29.85,South,180,9.4,9.4,38,0.00,,,0.04,VWS V14.01,2013-04-21 18:49:00,
2013-04-21 13:50:00,47.1,22.8,29.85,South,180,9.4,9.4,38,0.00,,,0.04,VWS V14.01,2013-04-21 18:50:00,
2013-04-21 13:51:00,47.3,23.0,29.85,ESE,112,10.1,10.1,38,0.00,,,0.04,VWS V14.01,2013-04-21 18:51:00,
2013-04-21 13:52:00,47.3,23.0,29.85,ESE,112,10.1,10.1,38,0.00,,,0.04,VWS V14.01,2013-04-21 18:52:00,
2013-04-21 13:53:00,47.3,23.0,29.85,ESE,112,8.7,8.7,38,0.00,,,0.04,VWS V14.01,2013-04-21 18:53:00,
2013-04-21 13:54:00,47.5,23.2,29.85,SSW,202,7.4,7.4,38,0.00,,,0.04,VWS V14.01,2013-04-21 18:54:00,
2013-04-21 13:55:00,47.5,23.2,29.85,ESE,112,8.7,8.7,38,0.00,,,0.04,VWS V14.01,2013-04-21 18:55:00,
2013-04-21 13:56:00,47.7,23.3,29.85,ESE,112,8.7,8.7,38,0.00,,,0.04,VWS V14.01,2013-04-21 18:56:00,
2013-04-21 13:57:00,47.7,23.3,29.85,ESE,112,8.7,8.7,38,0.00,,,0.04,VWS V14.01,2013-04-21 18:57:00,
2013-04-21 13:58:00,47.8,23.5,29.85,ESE,112,8.7,8.7,38,0.00,,,0.04,VWS V14.01,2013-04-21 18:58:00,
2013-04-21 13:59:00,48.0,23.6,29.85,ESE,112,8.7,8.7,38,0.00,,,0.04,VWS V14.01,2013-04-21 18:59:00,
2013-04-21 14:00:00,48.0,23.6,29.85,ESE,112,8.7,8.7,38,0.00,,,0.04,VWS V14.01,2013-04-21 19:00:00,
2013-04-21 14:01:00,48.2,23.2,29.85,ESE,112,8.7,8.7,37,0.00,,,0.04,VWS V14.01,2013-04-21 19:01:00,
2013-04-21 14:02:00,48.2,23.2,29.85,ESE,112,8.7,8.7,37,0.00,,,0.04,VWS V14.01,2013-04-21 19:02:00,
2013-04-21 14:03:00,48.2,23.2,29.85,SW,225,7.4,7.4,37,0.00,,,0.04,VWS V14.01,2013-04-21 19:03:00,
2013-04-21 14:04:00,48.2,23.2,29.85,SE,135,6.0,6.0,37,0.00,,,0.04,VWS V14.01,2013-04-21 19:04:00,
2013-04-21 14:05:00,48.2,23.2,29.85,SE,135,10.1,10.1,37,0.00,,,0.04,VWS V14.01,2013-04-21 19:05:00,
2013-04-21 14:06:00,48.0,23.6,29.85,SE,135,10.1,10.1,38,0.00,,,0.04,VWS V14.01,2013-04-21 19:06:00,
2013-04-21 14:07:00,48.0,23.6,29.85,SE,135,10.1,10.1,38,0.00,,,0.04,VWS V14.01,2013-04-21 19:07:00,
2013-04-21 14:08:00,48.0,23.6,29.85,SSE,158,10.7,10.7,38,0.00,,,0.04,VWS V14.01,2013-04-21 19:08:00,
2013-04-21 14:09:00,47.7,23.3,29.85,SSE,158,10.7,10.7,38,0.00,,,0.04,VWS V14.01,2013-04-21 19:09:00,
2013-04-21 14:10:00,47.8,23.5,29.85,SSW,202,7.4,7.4,38,0.00,,,0.04,VWS V14.01,2013-04-21 19:10:00,
2013-04-21 14:11:00,47.8,23.5,29.85,SE,135,18.1,18.1,38,0.00,,,0.04,VWS V14.01,2013-04-21 19:11:00,
2013-04-21 14:12:00,47.7,23.3,29.85,South,180,16.1,16.1,38,0.00,,,0.04,VWS V14.01,2013-04-21 19:12:00,
2013-04-21 14:13:00,47.5,23.2,29.85,South,180,11.4,11.4,38,0.00,,,0.04,VWS V14.01,2013-04-21 19:13:00,
2013-04-21 14:14:00,47.5,23.2,29.85,SW,225,8.7,8.7,38,0.00,,,0.04,VWS V14.01,2013-04-21 19:14:00,
2013-04-21 14:15:00,47.7,23.3,29.85,SW,225,8.7,8.7,38,0.00,,,0.04,VWS V14.01,2013-04-21 19:15:00,
2013-04-21 14:16:00,48.0,23.6,29.85,SSE,158,7.4,7.4,38,0.00,,,0.04,VWS V14.01,2013-04-21 19:16:00,
2013-04-21 14:17:00,48.0,23.6,29.85,SSE,158,7.4,7.4,38,0.00,,,0.04,VWS V14.01,2013-04-21 19:17:00,
2013-04-21 14:18:00,48.0,23.6,29.85,SSE,158,14.8,14.8,38,0.00,,,0.04,VWS V14.01,2013-04-21 19:18:00,
2013-04-21 14:19:00,47.8,23.5,29.85,West,270,11.4,11.4,38,0.00,,,0.04,VWS V14.01,2013-04-21 19:19:00,
2013-04-21 14:20:00,48.0,23.6,29.85,SSW,202,14.8,14.8,38,0.00,,,0.04,VWS V14.01,2013-04-21 19:20:00,
2013-04-21 14:21:00,47.8,23.5,29.85,SE,135,11.4,11.4,38,0.00,,,0.04,VWS V14.01,2013-04-21 19:21:00,
2013-04-21 14:22:00,47.8,23.5,29.85,WSW,248,10.1,10.1,38,0.00,,,0.04,VWS V14.01,2013-04-21 19:22:00,
2013-04-21 14:23:00,47.8,24.1,29.85,SSW,202,12.8,12.8,39,0.00,,,0.04,VWS V14.01,2013-04-21 19:23:00,
2013-04-21 14:24:00,47.8,24.1,29.85,SSW,202,12.8,12.8,39,0.00,,,0.04,VWS V14.01,2013-04-21 19:24:00,
2013-04-21 14:25:00,47.7,23.9,29.85,SSW,202,16.8,16.8,39,0.00,,,0.04,VWS V14.01,2013-04-21 19:25:00,
2013-04-21 14:26:00,47.7,23.9,29.85,South,180,22.2,22.2,39,0.00,,,0.04,VWS V14.01,2013-04-21 19:26:00,
2013-04-21 14:27:00,47.5,23.8,29.85,South,180,22.2,22.2,39,0.00,,,0.04,VWS V14.01,2013-04-21 19:27:00,
2013-04-21 14:28:00,47.5,23.8,29.85,SSW,202,10.1,10.1,39,0.00,,,0.04,VWS V14.01,2013-04-21 19:28:00,
2013-04-21 14:29:00,47.3,23.6,29.85,SSE,158,4.7,7.4,39,0.00,,,0.04,VWS V14.01,2013-04-21 19:29:00,
2013-04-21 14:30:00,47.3,23.6,29.85,SSE,158,4.7,4.7,39,0.00,,,0.04,VWS V14.01,2013-04-21 19:30:00,
2013-04-21 14:31:00,47.1,23.5,29.85,SSE,158,4.7,4.7,39,0.00,,,0.04,VWS V14.01,2013-04-21 19:31:00,
2013-04-21 14:32:00,46.9,23.3,29.85,SSE,158,4.7,4.7,39,0.00,,,0.04,VWS V14.01,2013-04-21 19:32:00,
2013-04-21 14:33:00,46.9,23.3,29.85,South,180,7.4,7.4,39,0.00,,,0.04,VWS V14.01,2013-04-21 19:33:00,
2013-04-21 14:34:00,46.9,23.3,29.85,South,180,7.4,7.4,39,0.00,,,0.04,VWS V14.01,2013-04-21 19:34:00,
2013-04-21 14:35:00,46.9,23.9,29.85,SE,135,10.7,10.7,40,0.00,,,0.04,VWS V14.01,2013-04-21 19:35:00,
2013-04-21 14:36:00,46.9,23.9,29.85,SSW,202,10.1,10.1,40,0.00,,,0.04,VWS V14.01,2013-04-21 19:36:00,
2013-04-21 14:37:00,46.9,23.9,29.85,South,180,14.1,14.1,40,0.00,,,0.04,VWS V14.01,2013-04-21 19:37:00,
2013-04-21 14:38:00,46.8,23.7,29.85,South,180,12.1,12.1,40,0.00,,,0.04,VWS V14.01,2013-04-21 19:38:00,
2013-04-21 14:39:00,46.8,23.7,29.85,SSW,202,22.2,22.2,40,0.00,,,0.04,VWS V14.01,2013-04-21 19:39:00,
2013-04-21 14:40:00,46.8,24.3,29.85,SSW,202,10.7,10.7,41,0.00,,,0.04,VWS V14.01,2013-04-21 19:40:00,
2013-04-21 14:41:00,46.8,24.3,29.85,SSE,158,10.7,10.7,41,0.00,,,0.04,VWS V14.01,2013-04-21 19:41:00,
2013-04-21 14:42:00,46.6,24.2,29.85,SSW,202,18.8,18.8,41,0.00,,,0.04,VWS V14.01,2013-04-21 19:42:00,
2013-04-21 14:43:00,46.6,24.2,29.85,SSW,202,18.8,18.8,41,0.00,,,0.04,VWS V14.01,2013-04-21 19:43:00,
2013-04-21 14:44:00,46.6,24.2,29.85,SSE,158,16.1,16.1,41,0.00,,,0.04,VWS V14.01,2013-04-21 19:44:00,
2013-04-21 14:45:00,46.6,24.2,29.85,SE,135,12.8,12.8,41,0.00,,,0.04,VWS V14.01,2013-04-21 19:45:00,
2013-04-21 14:46:00,46.6,24.2,29.85,SSE,158,19.5,19.5,41,0.00,,,0.04,VWS V14.01,2013-04-21 19:46:00,
2013-04-21 14:47:00,46.6,24.2,29.85,SE,135,10.7,10.7,41,0.00,,,0.04,VWS V14.01,2013-04-21 19:47:00,
2013-04-21 14:48:00,46.4,24.6,29.85,SSE,158,16.1,16.1,42,0.00,,,0.04,VWS V14.01,2013-04-21 19:48:00,
2013-04-21 14:49:00,46.4,24.6,29.85,SSW,202,11.4,11.4,42,0.00,,,0.04,VWS V14.01,2013-04-21 19:49:00,
2013-04-21 14:50:00,46.4,24.6,29.85,SSW,202,8.7,8.7,42,0.00,,,0.04,VWS V14.01,2013-04-21 19:50:00,
2013-04-21 14:51:00,46.4,24.6,29.85,SSW,202,8.7,8.7,42,0.00,,,0.04,VWS V14.01,2013-04-21 19:51:00,
2013-04-21 14:52:00,46.4,24.6,29.85,SSW,202,9.4,9.4,42,0.00,,,0.04,VWS V14.01,2013-04-21 19:52:00,
2013-04-21 14:53:00,46.4,24.6,29.85,SE,135,16.1,16.1,42,0.00,,,0.04,VWS V14.01,2013-04-21 19:53:00,
2013-04-21 14:54:00,46.2,25.0,29.85,SE,135,16.1,16.1,43,0.00,,,0.04,VWS V14.01,2013-04-21 19:54:00,
2013-04-21 14:55:00,46.0,24.8,29.85,SE,135,16.1,16.1,43,0.00,,,0.04,VWS V14.01,2013-04-21 19:55:00,
2013-04-21 14:56:00,46.0,25.4,29.82,SE,135,16.1,16.1,44,0.00,,,0.04,VWS V14.01,2013-04-21 19:56:00,
2013-04-21 14:57:00,45.9,25.2,29.82,SSW,202,11.4,11.4,44,0.00,,,0.04,VWS V14.01,2013-04-21 19:57:00,
2013-04-21 14:58:00,45.9,25.2,29.82,South,180,18.1,18.1,44,0.00,,,0.04,VWS V14.01,2013-04-21 19:58:00,
2013-04-21 14:59:00,45.7,25.6,29.82,SSW,202,23.5,23.5,45,0.00,,,0.04,VWS V14.01,2013-04-21 19:59:00,
2013-04-21 15:00:00,45.5,25.9,29.82,SSW,202,23.5,23.5,46,0.00,,,0.04,VWS V14.01,2013-04-21 20:00:00,
2013-04-21 15:01:00,45.5,25.9,29.82,SW,225,18.1,18.1,46,0.00,,,0.04,VWS V14.01,2013-04-21 20:01:00,
2013-04-21 15:02:00,45.3,25.8,29.82,SSW,202,8.1,8.1,46,0.00,,,0.04,VWS V14.01,2013-04-21 20:02:00,
2013-04-21 15:03:00,45.3,25.8,29.82,South,180,7.4,7.4,46,0.00,,,0.04,VWS V14.01,2013-04-21 20:03:00,
2013-04-21 15:04:00,45.1,25.6,29.82,SSW,202,8.7,8.7,46,0.00,,,0.04,VWS V14.01,2013-04-21 20:04:00,
2013-04-21 15:05:00,45.1,26.1,29.82,SSE,158,16.1,16.1,47,0.00,,,0.04,VWS V14.01,2013-04-21 20:05:00,
2013-04-21 15:06:00,45.1,26.1,29.82,SSE,158,16.1,16.1,47,0.00,,,0.04,VWS V14.01,2013-04-21 20:06:00,
2013-04-21 15:07:00,45.1,26.1,29.82,SSW,202,10.1,10.1,47,0.00,,,0.04,VWS V14.01,2013-04-21 20:07:00,
2013-04-21 15:08:00,45.1,26.6,29.82,SSE,158,10.7,10.7,48,0.00,,,0.04,VWS V14.01,2013-04-21 20:08:00,
2013-04-21 15:09:00,45.0,27.0,29.82,SSW,202,4.0,4.0,49,0.00,,,0.04,VWS V14.01,2013-04-21 20:09:00,
2013-04-21 15:10:00,44.8,26.8,29.82,SSW,202,4.0,4.0,49,0.00,,,0.04,VWS V14.01,2013-04-21 20:10:00,
2013-04-21 15:11:00,44.8,26.8,29.82,SSW,202,8.1,8.1,49,0.00,,,0.04,VWS V14.01,2013-04-21 20:11:00,
2013-04-21 15:12:00,44.6,26.6,29.82,ESE,112,12.8,12.8,49,0.00,,,0.04,VWS V14.01,2013-04-21 20:12:00,
2013-04-21 15:13:00,44.6,27.1,29.82,SSW,202,8.7,8.7,50,0.00,,,0.04,VWS V14.01,2013-04-21 20:13:00,
2013-04-21 15:14:00,44.4,27.4,29.82,SSW,202,8.7,8.7,51,0.00,,,0.04,VWS V14.01,2013-04-21 20:14:00,
2013-04-21 15:15:00,44.2,27.3,29.82,SSE,158,8.1,8.1,51,0.00,,,0.04,VWS V14.01,2013-04-21 20:15:00,
2013-04-21 15:16:00,44.2,27.7,29.82,SSE,158,8.1,8.1,52,0.00,,,0.04,VWS V14.01,2013-04-21 20:16:00,
2013-04-21 15:17:00,44.1,27.6,29.82,SSE,158,10.7,10.7,52,0.00,,,0.04,VWS V14.01,2013-04-21 20:17:00,
2013-04-21 15:18:00,44.1,28.0,29.82,SE,135,9.4,9.4,53,0.00,,,0.04,VWS V14.01,2013-04-21 20:18:00,
2013-04-21 15:19:00,43.9,27.9,29.82,ESE,112,8.1,8.1,53,0.00,,,0.04,VWS V14.01,2013-04-21 20:19:00,
2013-04-21 15:20:00,43.7,27.7,29.82,SSE,158,8.1,8.1,53,0.00,,,0.04,VWS V14.01,2013-04-21 20:20:00,
2013-04-21 15:21:00,43.7,28.2,29.82,SSE,158,8.1,8.1,54,0.00,,,0.04,VWS V14.01,2013-04-21 20:21:00,
2013-04-21 15:22:00,43.7,28.2,29.82,NNE,22,12.1,12.1,54,0.00,,,0.04,VWS V14.01,2013-04-21 20:22:00,
2013-04-21 15:23:00,43.5,28.4,29.82,SSW,202,22.2,22.2,55,0.00,,,0.04,VWS V14.01,2013-04-21 20:23:00,
2013-04-21 15:24:00,43.5,28.9,29.82,SSW,202,10.1,10.1,56,0.00,,,0.04,VWS V14.01,2013-04-21 20:24:00,
2013-04-21 15:25:00,43.3,29.1,29.82,SSW,202,10.1,10.1,57,0.00,,,0.04,VWS V14.01,2013-04-21 20:25:00,
2013-04-21 15:26:00,43.3,29.6,29.82,WSW,248,8.7,8.7,58,0.00,,,0.04,VWS V14.01,2013-04-21 20:26:00,
2013-04-21 15:27:00,43.3,30.0,29.82,WSW,248,8.7,8.7,59,0.00,,,0.04,VWS V14.01,2013-04-21 20:27:00,
2013-04-21 15:28:00,43.3,30.0,29.82,SW,225,11.4,11.4,59,0.00,,,0.04,VWS V14.01,2013-04-21 20:28:00,
2013-04-21 15:29:00,43.3,30.4,29.82,SSW,202,8.7,8.7,60,0.00,,,0.04,VWS V14.01,2013-04-21 20:29:00,
2013-04-21 15:30:00,43.3,30.8,29.82,South,180,10.1,10.1,61,0.00,,,0.04,VWS V14.01,2013-04-21 20:30:00,
2013-04-21 15:31:00,43.3,30.8,29.82,SSE,158,3.4,3.4,61,0.00,,,0.04,VWS V14.01,2013-04-21 20:31:00,
2013-04-21 15:32:00,43.0,30.1,29.82,South,180,6.7,6.7,60,0.00,,,0.04,VWS V14.01,2013-04-21 20:32:00,
2013-04-21 15:33:00,43.0,30.5,29.82,ESE,112,12.8,12.8,61,0.00,,,0.04,VWS V14.01,2013-04-21 20:33:00,
2013-04-21 15:34:00,43.0,30.9,29.82,SSW,202,11.4,11.4,62,0.00,,,0.04,VWS V14.01,2013-04-21 20:34:00,
2013-04-21 15:35:00,42.8,31.1,29.82,SSW,202,9.4,9.4,63,0.00,,,0.04,VWS V14.01,2013-04-21 20:35:00,
2013-04-21 15:36:00,42.8,31.5,29.82,ESE,112,10.1,10.1,64,0.00,,,0.04,VWS V14.01,2013-04-21 20:36:00,
2013-04-21 15:37:00,42.8,31.5,29.82,SSE,158,4.0,4.0,64,0.00,,,0.04,VWS V14.01,2013-04-21 20:37:00,
2013-04-21 15:38:00,42.8,31.1,29.82,SE,135,3.4,4.0,63,0.00,,,0.04,VWS V14.01,2013-04-21 20:38:00,
2013-04-21 15:39:00,42.6,30.9,29.82,SE,135,3.4,3.4,63,0.00,,,0.04,VWS V14.01,2013-04-21 20:39:00,
2013-04-21 15:40:00,42.6,30.9,29.82,SE,135,3.4,3.4,63,0.00,,,0.04,VWS V14.01,2013-04-21 20:40:00,
2013-04-21 15:41:00,42.8,31.9,29.82,SSW,202,10.7,10.7,65,0.00,,,0.04,VWS V14.01,2013-04-21 20:41:00,
2013-04-21 15:42:00,42.6,32.4,29.82,South,180,7.4,7.4,67,0.00,,,0.04,VWS V14.01,2013-04-21 20:42:00,
2013-04-21 15:43:00,42.6,32.8,29.82,SSE,158,7.4,7.4,68,0.00,,,0.04,VWS V14.01,2013-04-21 20:43:00,
2013-04-21 15:44:00,42.4,32.6,29.82,South,180,4.7,4.7,68,0.00,,,0.04,VWS V14.01,2013-04-21 20:44:00,
2013-04-21 15:45:00,42.4,32.6,29.82,South,180,4.7,4.7,68,0.00,,,0.04,VWS V14.01,2013-04-21 20:45:00,
2013-04-21 15:46:00,42.4,33.0,29.82,SW,225,6.0,6.0,69,0.00,,,0.04,VWS V14.01,2013-04-21 20:46:00,
2013-04-21 15:47:00,42.3,32.8,29.82,SSW,202,7.4,7.4,69,0.00,,,0.04,VWS V14.01,2013-04-21 20:47:00,
2013-04-21 15:48:00,42.3,33.2,29.82,SSW,202,7.4,7.4,70,0.00,,,0.04,VWS V14.01,2013-04-21 20:48:00,
2013-04-21 15:49:00,42.3,33.5,29.82,South,180,8.1,8.1,71,0.00,,,0.04,VWS V14.01,2013-04-21 20:49:00,
2013-04-21 15:50:00,42.3,33.5,29.82,South,180,8.1,8.1,71,0.00,,,0.04,VWS V14.01,2013-04-21 20:50:00,
2013-04-21 15:51:00,42.3,33.5,29.82,South,180,8.1,8.1,71,0.00,,,0.04,VWS V14.01,2013-04-21 20:51:00,
2013-04-21 15:52:00,42.3,33.5,29.82,South,180,8.1,8.1,71,0.00,,,0.04,VWS V14.01,2013-04-21 20:52:00,
2013-04-21 15:53:00,42.3,33.5,29.82,South,180,8.1,8.1,71,0.00,,,0.04,VWS V14.01,2013-04-21 20:53:00,
2013-04-21 15:54:00,42.3,33.5,29.82,SSE,158,6.7,6.7,71,0.00,,,0.04,VWS V14.01,2013-04-21 20:54:00,
2013-04-21 15:55:00,42.3,33.5,29.82,South,180,4.0,4.0,71,0.04,,,0.08,VWS V14.01,2013-04-21 20:55:00,
2013-04-21 15:56:00,42.3,33.2,29.82,South,180,4.0,4.0,70,0.04,,,0.08,VWS V14.01,2013-04-21 20:56:00,
2013-04-21 15:57:00,42.3,33.2,29.82,South,180,4.0,4.0,70,0.04,,,0.08,VWS V14.01,2013-04-21 20:57:00,
2013-04-21 15:58:00,42.3,33.5,29.82,South,180,4.0,4.0,71,0.04,,,0.08,VWS V14.01,2013-04-21 20:58:00,
2013-04-21 15:59:00,42.3,33.5,29.82,SW,225,13.4,13.4,71,0.04,,,0.08,VWS V14.01,2013-04-21 20:59:00,
2013-04-21 16:00:00,42.3,33.9,29.82,SW,225,13.4,13.4,72,0.04,,,0.08,VWS V14.01,2013-04-21 21:00:00,
2013-04-21 16:01:00,42.1,34.1,29.82,SW,225,8.7,8.7,73,0.04,,,0.08,VWS V14.01,2013-04-21 21:01:00,
2013-04-21 16:02:00,42.1,34.4,29.82,SW,225,8.7,8.7,74,0.04,,,0.08,VWS V14.01,2013-04-21 21:02:00,
2013-04-21 16:03:00,42.1,34.4,29.82,SSW,202,6.0,6.0,74,0.04,,,0.08,VWS V14.01,2013-04-21 21:03:00,
2013-04-21 16:04:00,42.1,34.7,29.82,SSW,202,2.7,3.8,75,0.04,,,0.08,VWS V14.01,2013-04-21 21:04:00,
2013-04-21 16:05:00,42.1,34.7,29.82,SE,135,3.4,3.8,75,0.04,,,0.08,VWS V14.01,2013-04-21 21:05:00,
2013-04-21 16:06:00,42.1,34.7,29.82,South,180,3.4,3.4,75,0.04,,,0.08,VWS V14.01,2013-04-21 21:06:00,
2013-04-21 16:07:00,42.1,34.4,29.82,South,180,3.4,3.4,74,0.04,,,0.08,VWS V14.01,2013-04-21 21:07:00,
2013-04-21 16:08:00,42.1,34.4,29.82,SSW,202,3.4,3.4,74,0.04,,,0.08,VWS V14.01,2013-04-21 21:08:00,
2013-04-21 16:09:00,42.1,34.4,29.82,South,180,0.0,1.3,74,0.04,,,0.08,VWS V14.01,2013-04-21 21:09:00,
2013-04-21 16:10:00,42.1,34.4,29.82,SSW,202,7.4,7.4,74,0.04,,,0.08,VWS V14.01,2013-04-21 21:10:00,
2013-04-21 16:11:00,42.1,34.4,29.82,SSW,202,7.4,7.4,74,0.04,,,0.08,VWS V14.01,2013-04-21 21:11:00,
2013-04-21 16:12:00,42.1,34.7,29.82,SSW,202,7.4,7.4,75,0.04,,,0.08,VWS V14.01,2013-04-21 21:12:00,
2013-04-21 16:13:00,42.1,34.7,29.82,SSW,202,4.7,4.7,75,0.04,,,0.08,VWS V14.01,2013-04-21 21:13:00,
2013-04-21 16:14:00,41.9,34.6,29.82,SSW,202,4.7,4.7,75,0.04,,,0.08,VWS V14.01,2013-04-21 21:14:00,
2013-04-21 16:15:00,41.9,34.9,29.82,SSW,202,4.0,4.0,76,0.04,,,0.08,VWS V14.01,2013-04-21 21:15:00,
2013-04-21 16:16:00,41.9,34.9,29.82,SSW,202,7.4,7.4,76,0.04,,,0.08,VWS V14.01,2013-04-21 21:16:00,
2013-04-21 16:17:00,41.9,35.2,29.82,SSW,202,7.4,7.4,77,0.04,,,0.08,VWS V14.01,2013-04-21 21:17:00,
2013-04-21 16:18:00,41.9,35.2,29.82,SSW,202,7.4,7.4,77,0.04,,,0.08,VWS V14.01,2013-04-21 21:18:00,
2013-04-21 16:19:00,41.9,35.2,29.82,SSW,202,7.4,7.4,77,0.04,,,0.08,VWS V14.01,2013-04-21 21:19:00,
2013-04-21 16:20:00,41.9,35.2,29.82,SSW,202,8.7,8.7,77,0.04,,,0.08,VWS V14.01,2013-04-21 21:20:00,
2013-04-21 16:21:00,41.9,35.5,29.82,SSW,202,8.7,8.7,78,0.04,,,0.08,VWS V14.01,2013-04-21 21:21:00,
2013-04-21 16:22:00,41.9,35.5,29.82,SSW,202,8.7,8.7,78,0.04,,,0.08,VWS V14.01,2013-04-21 21:22:00,
2013-04-21 16:23:00,41.9,35.5,29.82,SSW,202,8.7,8.7,78,0.04,,,0.08,VWS V14.01,2013-04-21 21:23:00,
2013-04-21 16:24:00,41.7,35.4,29.82,South,180,7.4,7.4,78,0.04,,,0.08,VWS V14.01,2013-04-21 21:24:00,
2013-04-21 16:25:00,41.9,35.5,29.82,SSE,158,4.7,4.7,78,0.08,,,0.12,VWS V14.01,2013-04-21 21:25:00,
2013-04-21 16:26:00,41.9,35.5,29.79,South,180,8.1,8.1,78,0.08,,,0.12,VWS V14.01,2013-04-21 21:26:00,
2013-04-21 16:27:00,41.9,35.9,29.79,South,180,8.1,8.1,79,0.08,,,0.12,VWS V14.01,2013-04-21 21:27:00,
2013-04-21 16:28:00,41.9,35.9,29.79,SSW,202,4.7,4.7,79,0.08,,,0.12,VWS V14.01,2013-04-21 21:28:00,
2013-04-21 16:29:00,41.7,36.0,29.79,South,180,8.7,8.7,80,0.08,,,0.12,VWS V14.01,2013-04-21 21:29:00,
2013-04-21 16:30:00,41.9,36.5,29.79,SSW,202,9.4,9.4,81,0.08,,,0.12,VWS V14.01,2013-04-21 21:30:00,
2013-04-21 16:31:00,41.9,36.5,29.79,SSW,202,9.4,9.4,81,0.08,,,0.12,VWS V14.01,2013-04-21 21:31:00,
2013-04-21 16:32:00,41.7,36.3,29.79,SSW,202,9.4,9.4,81,0.08,,,0.12,VWS V14.01,2013-04-21 21:32:00,
2013-04-21 16:33:00,41.9,36.8,29.79,SSW,202,10.1,10.1,82,0.08,,,0.12,VWS V14.01,2013-04-21 21:33:00,
2013-04-21 16:34:00,41.7,36.6,29.79,SW,225,4.7,4.7,82,0.08,,,0.12,VWS V14.01,2013-04-21 21:34:00,
2013-04-21 16:35:00,41.7,37.0,29.79,SW,225,4.7,4.7,83,0.08,,,0.12,VWS V14.01,2013-04-21 21:35:00,
2013-04-21 16:36:00,41.7,37.0,29.79,SSW,202,4.0,4.0,83,0.08,,,0.12,VWS V14.01,2013-04-21 21:36:00,
2013-04-21 16:37:00,41.7,37.0,29.79,SSW,202,4.0,4.0,83,0.08,,,0.12,VWS V14.01,2013-04-21 21:37:00,
2013-04-21 16:38:00,41.7,37.0,29.79,SSW,202,4.0,4.0,83,0.08,,,0.12,VWS V14.01,2013-04-21 21:38:00,
2013-04-21 16:39:00,41.5,36.5,29.79,SSW,202,0.0,1.3,82,0.08,,,0.12,VWS V14.01,2013-04-21 21:39:00,
2013-04-21 16:40:00,41.7,37.0,29.79,SSW,202,7.4,7.4,83,0.08,,,0.12,VWS V14.01,2013-04-21 21:40:00,
2013-04-21 16:41:00,41.7,37.0,29.82,SSW,202,8.1,8.1,83,0.08,,,0.12,VWS V14.01,2013-04-21 21:41:00,
2013-04-21 16:42:00,41.7,37.2,29.82,SSW,202,4.7,4.7,84,0.08,,,0.12,VWS V14.01,2013-04-21 21:42:00,
2013-04-21 16:43:00,41.7,37.2,29.82,SSW,202,4.7,4.7,84,0.08,,,0.12,VWS V14.01,2013-04-21 21:43:00,
2013-04-21 16:44:00,41.7,37.2,29.82,SSW,202,4.7,4.7,84,0.08,,,0.12,VWS V14.01,2013-04-21 21:44:00,
2013-04-21 16:45:00,41.7,37.2,29.82,SSW,202,4.7,4.7,84,0.08,,,0.12,VWS V14.01,2013-04-21 21:45:00,
2013-04-21 16:46:00,41.7,37.2,29.82,SSW,202,0.0,1.6,84,0.08,,,0.12,VWS V14.01,2013-04-21 21:46:00,
2013-04-21 16:47:00,41.7,37.2,29.82,SSW,202,0.0,1.6,84,0.08,,,0.12,VWS V14.01,2013-04-21 21:47:00,
2013-04-21 16:48:00,41.7,37.0,29.82,SSW,202,0.0,0.0,83,0.12,,,0.16,VWS V14.01,2013-04-21 21:48:00,
2013-04-21 16:49:00,41.7,37.2,29.82,SSW,202,0.0,0.0,84,0.12,,,0.16,VWS V14.01,2013-04-21 21:49:00,
2013-04-21 16:50:00,41.7,37.0,29.82,SSW,202,0.0,0.0,83,0.12,,,0.16,VWS V14.01,2013-04-21 21:50:00,
2013-04-21 16:51:00,41.7,37.0,29.82,SSW,202,0.0,0.0,83,0.12,,,0.16,VWS V14.01,2013-04-21 21:51:00,
2013-04-21 16:52:00,41.9,37.1,29.82,SSW,202,0.0,0.0,83,0.12,,,0.16,VWS V14.01,2013-04-21 21:52:00,
2013-04-21 16:53:00,41.9,37.1,29.82,SSW,202,0.0,0.0,83,0.12,,,0.16,VWS V14.01,2013-04-21 21:53:00,
2013-04-21 16:54:00,41.9,37.1,29.82,SSW,202,0.0,0.0,83,0.12,,,0.16,VWS V14.01,2013-04-21 21:54:00,
2013-04-21 16:55:00,41.9,37.1,29.82,SSW,202,8.1,8.1,83,0.12,,,0.16,VWS V14.01,2013-04-21 21:55:00,
2013-04-21 16:56:00,41.9,36.8,29.79,SSW,202,0.0,2.7,82,0.12,,,0.16,VWS V14.01,2013-04-21 21:56:00,
2013-04-21 16:57:00,41.9,36.8,29.79,SSW,202,0.0,0.0,82,0.08,,,0.16,VWS V14.01,2013-04-21 21:57:00,
2013-04-21 16:58:00,41.9,36.8,29.79,SSW,202,4.0,4.0,82,0.08,,,0.16,VWS V14.01,2013-04-21 21:58:00,
2013-04-21 16:59:00,41.9,37.1,29.79,SSW,202,4.0,4.0,83,0.08,,,0.16,VWS V14.01,2013-04-21 21:59:00,
2013-04-21 17:00:00,41.9,37.1,29.79,SSW,202,0.0,1.3,83,0.08,,,0.25,VWS V14.01,2013-04-21 22:00:00,
2013-04-21 17:01:00,41.9,36.8,29.79,SSW,202,0.0,1.3,82,0.08,,,0.16,VWS V14.01,2013-04-21 22:01:00,
2013-04-21 17:02:00,41.9,36.8,29.79,SW,225,0.0,0.0,82,0.08,,,0.16,VWS V14.01,2013-04-21 22:02:00,
2013-04-21 17:03:00,41.9,36.8,29.79,SW,225,0.0,0.0,82,0.08,,,0.16,VWS V14.01,2013-04-21 22:03:00,
2013-04-21 17:04:00,41.9,36.8,29.79,SW,225,0.0,0.0,82,0.08,,,0.16,VWS V14.01,2013-04-21 22:04:00,
2013-04-21 17:05:00,41.9,36.5,29.79,SW,225,0.0,0.0,81,0.08,,,0.16,VWS V14.01,2013-04-21 22:05:00,
2013-04-21 17:06:00,41.9,36.5,29.79,SW,225,0.0,0.0,81,0.08,,,0.16,VWS V14.01,2013-04-21 22:06:00,
2013-04-21 17:07:00,41.9,36.5,29.79,SW,225,0.0,0.0,81,0.08,,,0.16,VWS V14.01,2013-04-21 22:07:00,
2013-04-21 17:08:00,41.9,36.5,29.79,SSW,202,0.0,0.0,81,0.08,,,0.16,VWS V14.01,2013-04-21 22:08:00,
2013-04-21 17:09:00,41.9,36.5,29.79,SSW,202,0.0,0.0,81,0.08,,,0.16,VWS V14.01,2013-04-21 22:09:00,
2013-04-21 17:10:00,41.9,36.8,29.79,SSW,202,0.0,0.0,82,0.08,,,0.16,VWS V14.01,2013-04-21 22:10:00,
2013-04-21 17:11:00,42.1,37.0,29.82,SSW,202,0.0,1.6,82,0.08,,,0.16,VWS V14.01,2013-04-21 22:11:00,
2013-04-21 17:12:00,42.1,37.3,29.82,SSW,202,4.0,4.0,83,0.08,,,0.16,VWS V14.01,2013-04-21 22:12:00,
2013-04-21 17:13:00,42.1,37.3,29.82,SSW,202,0.0,1.3,83,0.08,,,0.16,VWS V14.01,2013-04-21 22:13:00,
2013-04-21 17:14:00,42.1,37.3,29.82,SW,225,0.0,0.0,83,0.08,,,0.16,VWS V14.01,2013-04-21 22:14:00,
2013-04-21 17:15:00,42.1,37.0,29.82,SW,225,2.7,2.7,82,0.08,,,0.16,VWS V14.01,2013-04-21 22:15:00,
2013-04-21 17:16:00,42.1,37.0,29.82,SSW,202,0.0,0.9,82,0.08,,,0.16,VWS V14.01,2013-04-21 22:16:00,
2013-04-21 17:17:00,42.3,37.2,29.82,SSW,202,4.7,4.7,82,0.08,,,0.16,VWS V14.01,2013-04-21 22:17:00,
2013-04-21 17:18:00,42.3,37.2,29.82,SSW,202,4.7,4.7,82,0.08,,,0.16,VWS V14.01,2013-04-21 22:18:00,
2013-04-21 17:19:00,42.3,37.2,29.82,SSW,202,4.7,4.7,82,0.08,,,0.16,VWS V14.01,2013-04-21 22:19:00,
2013-04-21 17:20:00,42.4,38.0,29.82,SSW,202,0.0,1.6,84,0.08,,,0.16,VWS V14.01,2013-04-21 22:20:00,
2013-04-21 17:21:00,42.4,37.7,29.82,SW,225,4.7,4.7,83,0.08,,,0.16,VWS V14.01,2013-04-21 22:21:00,
2013-04-21 17:22:00,42.4,37.7,29.82,SW,225,0.0,1.6,83,0.08,,,0.16,VWS V14.01,2013-04-21 22:22:00,
2013-04-21 17:23:00,42.4,37.7,29.82,SW,225,0.0,1.1,83,0.08,,,0.16,VWS V14.01,2013-04-21 22:23:00,
2013-04-21 17:24:00,42.4,37.7,29.82,SW,225,0.0,0.0,83,0.08,,,0.16,VWS V14.01,2013-04-21 22:24:00,
2013-04-21 17:25:00,42.4,37.3,29.82,SW,225,0.0,0.0,82,0.08,,,0.16,VWS V14.01,2013-04-21 22:25:00,
2013-04-21 17:26:00,42.4,37.3,29.82,WSW,248,0.0,0.0,82,0.08,,,0.16,VWS V14.01,2013-04-21 22:26:00,
2013-04-21 17:27:00,42.4,37.3,29.82,WSW,248,0.0,0.0,82,0.04,,,0.16,VWS V14.01,2013-04-21 22:27:00,
2013-04-21 17:28:00,42.4,37.3,29.82,SSW,202,0.0,0.0,82,0.04,,,0.16,VWS V14.01,2013-04-21 22:28:00,
2013-04-21 17:29:00,42.4,37.3,29.82,West,270,6.7,6.7,82,0.04,,,0.16,VWS V14.01,2013-04-21 22:29:00,
2013-04-21 17:30:00,42.8,37.7,29.82,SSW,202,0.0,2.2,82,0.04,,,0.16,VWS V14.01,2013-04-21 22:30:00,
2013-04-21 17:31:00,43.0,38.2,29.82,South,180,10.1,10.1,83,0.04,,,0.16,VWS V14.01,2013-04-21 22:31:00,
2013-04-21 17:32:00,43.0,38.2,29.82,SSW,202,3.4,3.4,83,0.04,,,0.16,VWS V14.01,2013-04-21 22:32:00,
2013-04-21 17:33:00,43.0,38.5,29.82,SSW,202,2.7,2.7,84,0.04,,,0.25,VWS V14.01,2013-04-21 22:33:00,
2013-04-21 17:34:00,43.0,38.5,29.82,South,180,2.7,2.7,84,0.04,,,0.16,VWS V14.01,2013-04-21 22:34:00,
2013-04-21 17:35:00,43.2,38.7,29.82,SSW,202,6.0,6.0,84,0.04,,,0.16,VWS V14.01,2013-04-21 22:35:00,
2013-04-21 17:36:00,43.0,38.5,29.82,SSW,202,7.4,7.4,84,0.04,,,0.16,VWS V14.01,2013-04-21 22:36:00,
2013-04-21 17:37:00,43.2,38.7,29.82,SSW,202,14.1,14.1,84,0.04,,,0.16,VWS V14.01,2013-04-21 22:37:00,
2013-04-21 17:38:00,43.0,38.8,29.82,SSW,202,7.4,7.4,85,0.04,,,0.16,VWS V14.01,2013-04-21 22:38:00,
2013-04-21 17:39:00,43.0,38.8,29.82,SSW,202,7.4,7.4,85,0.04,,,0.16,VWS V14.01,2013-04-21 22:39:00,
2013-04-21 17:40:00,43.0,38.8,29.82,SSW,202,6.0,6.0,85,0.04,,,0.16,VWS V14.01,2013-04-21 22:40:00,
2013-04-21 17:41:00,42.8,38.6,29.82,SSW,202,2.7,2.7,85,0.04,,,0.16,VWS V14.01,2013-04-21 22:41:00,
2013-04-21 17:42:00,42.8,38.6,29.82,South,180,3.4,3.4,85,0.04,,,0.16,VWS V14.01,2013-04-21 22:42:00,
2013-04-21 17:43:00,42.8,38.6,29.82,SSW,202,6.0,6.0,85,0.04,,,0.16,VWS V14.01,2013-04-21 22:43:00,
2013-04-21 17:44:00,42.6,38.7,29.82,SSW,202,6.0,6.0,86,0.04,,,0.16,VWS V14.01,2013-04-21 22:44:00,
2013-04-21 17:45:00,42.6,38.7,29.82,SSW,202,9.4,9.4,86,0.04,,,0.16,VWS V14.01,2013-04-21 22:45:00,
2013-04-21 17:46:00,42.4,38.6,29.82,SSW,202,8.1,8.1,86,0.04,,,0.16,VWS V14.01,2013-04-21 22:46:00,
2013-04-21 17:47:00,42.4,38.6,29.82,SSW,202,4.7,4.7,86,0.04,,,0.16,VWS V14.01,2013-04-21 22:47:00,
2013-04-21 17:48:00,42.4,38.8,29.82,SW,225,3.4,3.4,87,0.04,,,0.16,VWS V14.01,2013-04-21 22:48:00,
2013-04-21 17:49:00,42.4,38.8,29.82,WSW,248,4.0,4.0,87,0.00,,,0.16,VWS V14.01,2013-04-21 22:49:00,
2013-04-21 17:50:00,42.4,38.8,29.82,WSW,248,4.0,4.0,87,0.00,,,0.16,VWS V14.01,2013-04-21 22:50:00,
2013-04-21 17:51:00,42.6,39.0,29.82,WSW,248,7.4,7.4,87,0.00,,,0.16,VWS V14.01,2013-04-21 22:51:00,
2013-04-21 17:52:00,42.6,39.0,29.82,SSW,202,3.4,3.4,87,0.00,,,0.16,VWS V14.01,2013-04-21 22:52:00,
2013-04-21 17:53:00,42.8,39.2,29.82,SSW,202,11.4,11.4,87,0.00,,,0.16,VWS V14.01,2013-04-21 22:53:00,
2013-04-21 17:54:00,42.8,39.2,29.82,SSW,202,8.7,8.7,87,0.00,,,0.16,VWS V14.01,2013-04-21 22:54:00,
2013-04-21 17:55:00,42.8,39.2,29.82,SW,225,8.1,8.1,87,0.00,,,0.16,VWS V14.01,2013-04-21 22:55:00,
2013-04-21 17:56:00,43.0,39.4,29.82,SSW,202,8.7,8.7,87,0.00,,,0.16,VWS V14.01,2013-04-21 22:56:00,
2013-04-21 17:57:00,43.0,39.4,29.82,SSW,202,8.7,8.7,87,0.00,,,0.16,VWS V14.01,2013-04-21 22:57:00,
2013-04-21 17:58:00,43.2,39.6,29.82,South,180,10.1,10.1,87,0.00,,,0.16,VWS V14.01,2013-04-21 22:58:00,
2013-04-21 17:59:00,43.2,39.8,29.82,SSW,202,4.7,4.7,88,0.00,,,0.16,VWS V14.01,2013-04-21 22:59:00,
2013-04-21 18:00:00,43.2,39.8,29.82,WSW,248,10.7,10.7,88,0.00,,,0.25,VWS V14.01,2013-04-21 23:00:00,
2013-04-21 18:01:00,43.3,40.0,29.82,SSW,202,4.7,4.7,88,0.00,,,0.16,VWS V14.01,2013-04-21 23:01:00,
2013-04-21 18:02:00,43.3,40.0,29.82,SSW,202,3.4,3.6,88,0.00,,,0.16,VWS V14.01,2013-04-21 23:02:00,
2013-04-21 18:03:00,43.3,40.0,29.82,SSW,202,0.0,1.6,88,0.00,,,0.16,VWS V14.01,2013-04-21 23:03:00,
2013-04-21 18:04:00,43.3,39.7,29.82,SW,225,3.4,3.4,87,0.00,,,0.16,VWS V14.01,2013-04-21 23:04:00,
2013-04-21 18:05:00,43.3,39.7,29.82,SW,225,4.7,4.7,87,0.00,,,0.16,VWS V14.01,2013-04-21 23:05:00,
2013-04-21 18:06:00,43.3,39.7,29.82,SSW,202,6.7,6.7,87,0.00,,,0.16,VWS V14.01,2013-04-21 23:06:00,
2013-04-21 18:07:00,43.3,39.7,29.82,West,270,4.7,4.7,87,0.00,,,0.16,VWS V14.01,2013-04-21 23:07:00,
2013-04-21 18:08:00,43.3,39.7,29.82,SSW,202,4.7,4.7,87,0.00,,,0.16,VWS V14.01,2013-04-21 23:08:00,
2013-04-21 18:09:00,43.3,39.7,29.82,WSW,248,0.0,2.0,87,0.00,,,0.16,VWS V14.01,2013-04-21 23:09:00,
2013-04-21 18:10:00,43.3,39.7,29.82,WSW,248,7.4,7.4,87,0.00,,,0.16,VWS V14.01,2013-04-21 23:10:00,
2013-04-21 18:11:00,43.3,39.7,29.82,WSW,248,8.1,8.1,87,0.00,,,0.16,VWS V14.01,2013-04-21 23:11:00,
2013-04-21 18:12:00,43.3,39.7,29.82,SW,225,2.7,2.7,87,0.00,,,0.16,VWS V14.01,2013-04-21 23:12:00,
2013-04-21 18:13:00,43.3,39.7,29.82,SW,225,2.7,2.7,87,0.00,,,0.16,VWS V14.01,2013-04-21 23:13:00,
2013-04-21 18:14:00,43.2,39.6,29.82,WSW,248,6.0,6.0,87,0.00,,,0.16,VWS V14.01,2013-04-21 23:14:00,
2013-04-21 18:15:00,43.2,39.6,29.82,South,180,6.7,6.7,87,0.00,,,0.16,VWS V14.01,2013-04-21 23:15:00,
2013-04-21 18:16:00,43.2,39.6,29.82,WSW,248,3.4,3.4,87,0.00,,,0.16,VWS V14.01,2013-04-21 23:16:00,
2013-04-21 18:17:00,43.0,39.4,29.82,WSW,248,3.4,3.4,87,0.00,,,0.16,VWS V14.01,2013-04-21 23:17:00,
2013-04-21 18:18:00,43.0,39.4,29.82,WSW,248,3.4,3.4,87,0.00,,,0.16,VWS V14.01,2013-04-21 23:18:00,
2013-04-21 18:19:00,43.0,39.4,29.82,WSW,248,3.4,3.4,87,0.00,,,0.16,VWS V14.01,2013-04-21 23:19:00,
2013-04-21 18:20:00,43.0,39.4,29.82,WSW,248,2.7,2.7,87,0.00,,,0.16,VWS V14.01,2013-04-21 23:20:00,
2013-04-21 18:21:00,43.0,39.4,29.82,WNW,292,14.1,14.1,87,0.00,,,0.16,VWS V14.01,2013-04-21 23:21:00,
2013-04-21 18:22:00,42.8,39.2,29.82,WNW,292,14.1,14.1,87,0.00,,,0.16,VWS V14.01,2013-04-21 23:22:00,
2013-04-21 18:23:00,42.8,39.2,29.82,WNW,292,14.1,14.1,87,0.00,,,0.16,VWS V14.01,2013-04-21 23:23:00,
2013-04-21 18:24:00,42.6,39.3,29.82,West,270,0.0,4.7,88,0.00,,,0.16,VWS V14.01,2013-04-21 23:24:00,
2013-04-21 18:25:00,42.4,38.8,29.82,WSW,248,0.0,2.0,87,0.00,,,0.16,VWS V14.01,2013-04-21 23:25:00,
2013-04-21 18:26:00,42.3,38.7,29.82,WSW,248,0.0,0.0,87,0.00,,,0.16,VWS V14.01,2013-04-21 23:26:00,
2013-04-21 18:27:00,42.4,38.8,29.82,WSW,248,6.7,6.7,87,0.00,,,0.16,VWS V14.01,2013-04-21 23:27:00,
2013-04-21 18:28:00,42.4,38.8,29.82,WSW,248,4.7,4.7,87,0.00,,,0.16,VWS V14.01,2013-04-21 23:28:00,
2013-04-21 18:29:00,42.3,38.7,29.82,West,270,8.1,8.1,87,0.00,,,0.16,VWS V14.01,2013-04-21 23:29:00,
2013-04-21 18:30:00,42.3,38.7,29.82,SSE,158,6.7,6.7,87,0.00,,,0.16,VWS V14.01,2013-04-21 23:30:00,
2013-04-21 18:31:00,42.3,38.7,29.82,SSE,158,6.7,6.7,87,0.00,,,0.16,VWS V14.01,2013-04-21 23:31:00,
2013-04-21 18:32:00,42.3,38.7,29.82,SSE,158,6.7,6.7,87,0.00,,,0.16,VWS V14.01,2013-04-21 23:32:00,
2013-04-21 18:33:00,42.1,38.5,29.82,West,270,0.0,2.2,87,0.00,,,0.16,VWS V14.01,2013-04-21 23:33:00,
2013-04-21 18:34:00,42.1,38.5,29.82,SW,225,8.7,8.7,87,0.00,,,0.16,VWS V14.01,2013-04-21 23:34:00,
2013-04-21 18:35:00,42.1,38.5,29.82,SW,225,8.7,8.7,87,0.00,,,0.16,VWS V14.01,2013-04-21 23:35:00,
2013-04-21 18:36:00,41.9,38.3,29.82,SW,225,8.7,8.7,87,0.00,,,0.16,VWS V14.01,2013-04-21 23:36:00,
2013-04-21 18:37:00,41.9,38.3,29.82,West,270,4.7,4.7,87,0.00,,,0.16,VWS V14.01,2013-04-21 23:37:00,
2013-04-21 18:38:00,41.9,38.3,29.82,WSW,248,6.0,6.0,87,0.00,,,0.16,VWS V14.01,2013-04-21 23:38:00,
2013-04-21 18:39:00,41.9,38.3,29.82,ESE,112,6.0,6.0,87,0.00,,,0.16,VWS V14.01,2013-04-21 23:39:00,
2013-04-21 18:40:00,41.9,38.3,29.82,West,270,6.7,6.7,87,0.00,,,0.16,VWS V14.01,2013-04-21 23:40:00,
2013-04-21 18:41:00,41.7,38.1,29.85,SSE,158,4.7,4.7,87,0.00,,,0.16,VWS V14.01,2013-04-21 23:41:00,
2013-04-21 18:42:00,41.7,38.1,29.85,SSW,202,0.0,1.6,87,0.00,,,0.16,VWS V14.01,2013-04-21 23:42:00,
2013-04-21 18:43:00,41.7,38.1,29.85,West,270,10.1,10.1,87,0.00,,,0.16,VWS V14.01,2013-04-21 23:43:00,
2013-04-21 18:44:00,41.5,38.0,29.85,SSE,158,0.0,5.6,87,0.00,,,0.16,VWS V14.01,2013-04-21 23:44:00,
2013-04-21 18:45:00,41.5,38.0,29.85,West,270,6.0,6.0,87,0.00,,,0.16,VWS V14.01,2013-04-21 23:45:00,
2013-04-21 18:46:00,41.7,38.1,29.85,WSW,248,13.4,13.4,87,0.00,,,0.16,VWS V14.01,2013-04-21 23:46:00,
2013-04-21 18:47:00,41.7,38.1,29.85,WNW,292,12.1,12.1,87,0.00,,,0.16,VWS V14.01,2013-04-21 23:47:00,
2013-04-21 18:48:00,41.5,38.0,29.85,SW,225,14.8,14.8,87,0.00,,,0.16,VWS V14.01,2013-04-21 23:48:00,
2013-04-21 18:49:00,41.5,38.0,29.85,WNW,292,8.1,8.1,87,0.00,,,0.16,VWS V14.01,2013-04-21 23:49:00,
2013-04-21 18:50:00,41.5,38.0,29.85,WSW,248,7.4,7.4,87,0.00,,,0.16,VWS V14.01,2013-04-21 23:50:00,
2013-04-21 18:51:00,41.4,37.8,29.85,SSW,202,4.0,4.0,87,0.00,,,0.16,VWS V14.01,2013-04-21 23:51:00,
2013-04-21 18:52:00,41.4,37.8,29.85,WSW,248,8.7,8.7,87,0.00,,,0.16,VWS V14.01,2013-04-21 23:52:00,
2013-04-21 18:53:00,41.4,37.8,29.85,WSW,248,4.7,5.4,87,0.00,,,0.16,VWS V14.01,2013-04-21 23:53:00,
2013-04-21 18:54:00,41.2,37.6,29.85,NE,45,4.0,4.0,87,0.00,,,0.16,VWS V14.01,2013-04-21 23:54:00,
2013-04-21 18:55:00,41.2,37.6,29.85,NE,45,4.0,4.0,87,0.00,,,0.16,VWS V14.01,2013-04-21 23:55:00,
2013-04-21 18:56:00,41.2,37.6,29.85,SW,225,4.0,4.3,87,0.00,,,0.16,VWS V14.01,2013-04-21 23:56:00,
2013-04-21 18:57:00,41.0,37.4,29.85,South,180,2.7,4.3,87,0.00,,,0.16,VWS V14.01,2013-04-21 23:57:00,
2013-04-21 18:58:00,41.0,37.4,29.85,South,180,8.1,8.1,87,0.00,,,0.16,VWS V14.01,2013-04-21 23:58:00,
2013-04-21 18:59:00,41.0,37.4,29.85,WNW,292,6.7,6.7,87,0.00,,,0.16,VWS V14.01,2013-04-21 23:59:00,
2013-04-21 19:00:00,41.0,37.4,29.85,WSW,248,4.0,4.0,87,0.00,,,0.16,VWS V14.01,2013-04-22 00:00:00,
2013-04-21 19:01:00,41.0,37.4,29.85,NW,315,8.1,8.1,87,0.00,,,0.16,VWS V14.01,2013-04-22 00:01:00,
2013-04-21 19:02:00,41.0,37.4,29.85,WSW,248,2.7,2.7,87,0.00,,,0.16,VWS V14.01,2013-04-22 00:02:00,
2013-04-21 19:03:00,41.0,37.4,29.85,WSW,248,10.7,10.7,87,0.00,,,0.16,VWS V14.01,2013-04-22 00:03:00,
2013-04-21 19:04:00,41.0,37.4,29.85,SSW,202,0.0,3.6,87,0.00,,,0.16,VWS V14.01,2013-04-22 00:04:00,
2013-04-21 19:05:00,40.8,37.3,29.85,WNW,292,8.7,8.7,87,0.00,,,0.16,VWS V14.01,2013-04-22 00:05:00,
2013-04-21 19:06:00,40.8,37.3,29.85,NNW,338,6.7,6.7,87,0.00,,,0.16,VWS V14.01,2013-04-22 00:06:00,
2013-04-21 19:07:00,40.8,37.3,29.85,WSW,248,6.0,6.0,87,0.00,,,0.16,VWS V14.01,2013-04-22 00:07:00,
2013-04-21 19:08:00,40.6,37.1,29.85,SW,225,4.7,4.7,87,0.00,,,0.16,VWS V14.01,2013-04-22 00:08:00,
2013-04-21 19:09:00,40.6,37.1,29.85,NNE,22,11.4,11.4,87,0.00,,,0.16,VWS V14.01,2013-04-22 00:09:00,
2013-04-21 19:10:00,40.8,37.3,29.85,SSE,158,6.0,6.0,87,0.00,,,0.16,VWS V14.01,2013-04-22 00:10:00,
2013-04-21 19:11:00,40.6,37.1,29.88,SSE,158,6.0,6.0,87,0.00,,,0.16,VWS V14.01,2013-04-22 00:11:00,
2013-04-21 19:12:00,40.6,37.1,29.88,WNW,292,18.8,18.8,87,0.00,,,0.16,VWS V14.01,2013-04-22 00:12:00,
2013-04-21 19:13:00,40.6,37.1,29.88,WNW,292,11.4,11.4,87,0.00,,,0.16,VWS V14.01,2013-04-22 00:13:00,
2013-04-21 19:14:00,40.6,37.1,29.88,WNW,292,8.7,8.7,87,0.00,,,0.16,VWS V14.01,2013-04-22 00:14:00,
2013-04-21 19:15:00,40.6,37.1,29.88,WSW,248,11.4,11.4,87,0.00,,,0.16,VWS V14.01,2013-04-22 00:15:00,
2013-04-21 19:16:00,40.6,37.1,29.88,SW,225,8.7,8.7,87,0.00,,,0.16,VWS V14.01,2013-04-22 00:16:00,
2013-04-21 19:17:00,40.5,36.9,29.88,NNW,338,8.1,8.1,87,0.00,,,0.16,VWS V14.01,2013-04-22 00:17:00,
2013-04-21 19:18:00,40.5,36.9,29.88,SSE,158,16.8,16.8,87,0.00,,,0.16,VWS V14.01,2013-04-22 00:18:00,
2013-04-21 19:19:00,40.3,36.7,29.88,NNW,338,7.4,7.4,87,0.00,,,0.16,VWS V14.01,2013-04-22 00:19:00,
2013-04-21 19:20:00,40.3,36.7,29.88,SSE,158,10.7,10.7,87,0.00,,,0.16,VWS V14.01,2013-04-22 00:20:00,
2013-04-21 19:21:00,40.3,36.7,29.88,SSE,158,10.1,10.1,87,0.00,,,0.16,VWS V14.01,2013-04-22 00:21:00,
2013-04-21 19:22:00,40.3,36.7,29.88,WSW,248,7.4,7.4,87,0.00,,,0.16,VWS V14.01,2013-04-22 00:22:00,
2013-04-21 19:23:00,40.3,36.7,29.88,SW,225,14.8,14.8,87,0.00,,,0.16,VWS V14.01,2013-04-22 00:23:00,
2013-04-21 19:24:00,40.1,36.5,29.88,SSW,202,0.0,4.9,87,0.00,,,0.16,VWS V14.01,2013-04-22 00:24:00,
2013-04-21 19:25:00,40.1,36.5,29.88,North,0,10.7,10.7,87,0.00,,,0.16,VWS V14.01,2013-04-22 00:25:00,
2013-04-21 19:26:00,39.9,36.1,29.88,West,270,10.7,10.7,86,0.00,,,0.16,VWS V14.01,2013-04-22 00:26:00,
2013-04-21 19:27:00,39.7,35.9,29.88,SW,225,4.0,4.0,86,0.00,,,0.16,VWS V14.01,2013-04-22 00:27:00,
2013-04-21 19:28:00,39.7,35.9,29.88,NNE,22,8.1,8.1,86,0.00,,,0.16,VWS V14.01,2013-04-22 00:28:00,
2013-04-21 19:29:00,39.7,35.9,29.88,WSW,248,12.8,12.8,86,0.00,,,0.16,VWS V14.01,2013-04-22 00:29:00,
2013-04-21 19:30:00,39.7,35.9,29.88,NNE,22,14.8,14.8,86,0.00,,,0.16,VWS V14.01,2013-04-22 00:30:00,
2013-04-21 19:31:00,39.7,35.9,29.88,WSW,248,10.1,10.1,86,0.00,,,0.16,VWS V14.01,2013-04-22 00:31:00,
2013-04-21 19:32:00,39.7,35.9,29.88,WSW,248,12.1,12.1,86,0.00,,,0.16,VWS V14.01,2013-04-22 00:32:00,
2013-04-21 19:33:00,39.7,35.9,29.88,North,0,4.7,4.7,86,0.00,,,0.16,VWS V14.01,2013-04-22 00:33:00,
2013-04-21 19:34:00,39.6,35.7,29.88,SSW,202,6.7,6.7,86,0.00,,,0.16,VWS V14.01,2013-04-22 00:34:00,
2013-04-21 19:35:00,39.4,35.5,29.88,NNW,338,4.7,4.7,86,0.00,,,0.16,VWS V14.01,2013-04-22 00:35:00,
2013-04-21 19:36:00,39.4,35.5,29.88,SSE,158,4.0,6.5,86,0.00,,,0.16,VWS V14.01,2013-04-22 00:36:00,
2013-04-21 19:37:00,39.4,35.5,29.88,North,0,9.4,9.4,86,0.00,,,0.16,VWS V14.01,2013-04-22 00:37:00,
2013-04-21 19:38:00,39.4,35.5,29.88,South,180,4.7,4.7,86,0.00,,,0.16,VWS V14.01,2013-04-22 00:38:00,
2013-04-21 19:39:00,39.2,35.4,29.88,West,270,9.4,9.4,86,0.00,,,0.16,VWS V14.01,2013-04-22 00:39:00,
2013-04-21 19:40:00,39.4,35.5,29.88,WNW,292,8.7,8.7,86,0.00,,,0.16,VWS V14.01,2013-04-22 00:40:00,
2013-04-21 19:41:00,39.2,35.1,29.88,WNW,292,9.4,9.4,85,0.00,,,0.16,VWS V14.01,2013-04-22 00:41:00,
2013-04-21 19:42:00,39.2,35.1,29.88,WSW,248,4.0,4.9,85,0.00,,,0.16,VWS V14.01,2013-04-22 00:42:00,
2013-04-21 19:43:00,39.0,35.2,29.88,SW,225,10.1,10.1,86,0.00,,,0.16,VWS V14.01,2013-04-22 00:43:00,
2013-04-21 19:44:00,39.0,35.2,29.88,NW,315,4.0,4.0,86,0.00,,,0.16,VWS V14.01,2013-04-22 00:44:00,
2013-04-21 19:45:00,38.8,34.7,29.88,WNW,292,12.1,12.1,85,0.00,,,0.16,VWS V14.01,2013-04-22 00:45:00,
2013-04-21 19:46:00,38.8,34.7,29.88,West,270,12.8,12.8,85,0.00,,,0.16,VWS V14.01,2013-04-22 00:46:00,
2013-04-21 19:47:00,38.8,34.7,29.88,NNW,338,4.7,4.7,85,0.00,,,0.16,VWS V14.01,2013-04-22 00:47:00,
2013-04-21 19:48:00,38.8,34.7,29.88,NNW,338,8.7,8.7,85,0.00,,,0.16,VWS V14.01,2013-04-22 00:48:00,
2013-04-21 19:49:00,38.8,34.7,29.88,NNW,338,8.7,8.7,85,0.00,,,0.16,VWS V14.01,2013-04-22 00:49:00,
2013-04-21 19:50:00,38.8,34.7,29.88,ENE,68,6.0,6.0,85,0.00,,,0.16,VWS V14.01,2013-04-22 00:50:00,
2013-04-21 19:51:00,38.7,34.5,29.88,North,0,4.0,4.0,85,0.00,,,0.16,VWS V14.01,2013-04-22 00:51:00,
2013-04-21 19:52:00,38.7,34.5,29.88,WNW,292,9.4,9.4,85,0.00,,,0.16,VWS V14.01,2013-04-22 00:52:00,
2013-04-21 19:53:00,38.8,34.7,29.88,ESE,112,11.4,11.4,85,0.00,,,0.16,VWS V14.01,2013-04-22 00:53:00,
2013-04-21 19:54:00,38.8,34.7,29.88,West,270,10.1,10.1,85,0.00,,,0.16,VWS V14.01,2013-04-22 00:54:00,
2013-04-21 19:55:00,38.7,34.5,29.88,NNW,338,14.8,14.8,85,0.00,,,0.16,VWS V14.01,2013-04-22 00:55:00,
2013-04-21 19:56:00,38.7,34.5,29.88,NNW,338,2.7,4.9,85,0.00,,,0.16,VWS V14.01,2013-04-22 00:56:00,
2013-04-21 19:57:00,38.7,34.5,29.88,NNE,22,8.1,8.1,85,0.00,,,0.16,VWS V14.01,2013-04-22 00:57:00,
2013-04-21 19:58:00,38.7,34.5,29.88,NW,315,8.7,8.7,85,0.00,,,0.16,VWS V14.01,2013-04-22 00:58:00,
2013-04-21 19:59:00,38.7,34.5,29.88,West,270,9.4,9.4,85,0.00,,,0.16,VWS V14.01,2013-04-22 00:59:00,
2013-04-21 20:00:00,38.7,34.5,29.88,NW,315,3.4,3.4,85,0.00,,,0.25,VWS V14.01,2013-04-22 01:00:00,
2013-04-21 20:01:00,38.5,34.4,29.88,West,270,6.7,6.7,85,0.00,,,0.16,VWS V14.01,2013-04-22 01:01:00,
2013-04-21 20:02:00,38.7,34.5,29.88,SE,135,18.1,18.1,85,0.00,,,0.16,VWS V14.01,2013-04-22 01:02:00,
2013-04-21 20:03:00,38.5,34.4,29.88,NNW,338,11.4,11.4,85,0.00,,,0.16,VWS V14.01,2013-04-22 01:03:00,
2013-04-21 20:04:00,38.5,34.4,29.88,NNW,338,12.1,12.1,85,0.00,,,0.16,VWS V14.01,2013-04-22 01:04:00,
2013-04-21 20:05:00,38.5,34.4,29.88,NNW,338,10.1,10.1,85,0.00,,,0.16,VWS V14.01,2013-04-22 01:05:00,
2013-04-21 20:06:00,38.5,34.4,29.88,NW,315,7.4,7.4,85,0.00,,,0.16,VWS V14.01,2013-04-22 01:06:00,
2013-04-21 20:07:00,38.5,34.4,29.88,WNW,292,3.4,3.4,85,0.00,,,0.16,VWS V14.01,2013-04-22 01:07:00,
2013-04-21 20:08:00,38.5,34.4,29.88,WNW,292,3.4,3.4,85,0.00,,,0.16,VWS V14.01,2013-04-22 01:08:00,
2013-04-21 20:09:00,38.5,34.4,29.88,NNE,22,4.0,4.0,85,0.00,,,0.16,VWS V14.01,2013-04-22 01:09:00,
2013-04-21 20:10:00,38.3,34.2,29.88,NW,315,12.1,12.1,85,0.00,,,0.16,VWS V14.01,2013-04-22 01:10:00,
2013-04-21 20:11:00,38.3,34.2,29.88,WSW,248,9.4,9.4,85,0.00,,,0.16,VWS V14.01,2013-04-22 01:11:00,
2013-04-21 20:12:00,38.3,34.2,29.88,NNW,338,7.4,7.4,85,0.00,,,0.16,VWS V14.01,2013-04-22 01:12:00,
2013-04-21 20:13:00,38.3,34.2,29.88,NW,315,7.4,7.4,85,0.00,,,0.16,VWS V14.01,2013-04-22 01:13:00,
2013-04-21 20:14:00,38.3,34.2,29.88,WSW,248,4.7,4.7,85,0.00,,,0.16,VWS V14.01,2013-04-22 01:14:00,
2013-04-21 20:15:00,38.3,34.2,29.88,WNW,292,2.7,3.1,85,0.00,,,0.16,VWS V14.01,2013-04-22 01:15:00,
2013-04-21 20:16:00,38.1,34.0,29.88,NNW,338,4.7,4.7,85,0.00,,,0.16,VWS V14.01,2013-04-22 01:16:00,
2013-04-21 20:17:00,38.1,34.0,29.88,NNW,338,8.7,8.7,85,0.00,,,0.16,VWS V14.01,2013-04-22 01:17:00,
2013-04-21 20:18:00,38.1,34.0,29.88,NNW,338,8.7,8.7,85,0.00,,,0.16,VWS V14.01,2013-04-22 01:18:00,
2013-04-21 20:19:00,38.1,34.0,29.88,East,90,8.1,8.1,85,0.00,,,0.16,VWS V14.01,2013-04-22 01:19:00,
2013-04-21 20:20:00,38.1,34.0,29.88,WNW,292,4.0,4.0,85,0.00,,,0.16,VWS V14.01,2013-04-22 01:20:00,
2013-04-21 20:21:00,38.1,34.0,29.88,ESE,112,6.7,6.7,85,0.00,,,0.16,VWS V14.01,2013-04-22 01:21:00,
2013-04-21 20:22:00,38.1,34.0,29.88,WSW,248,9.4,9.4,85,0.00,,,0.16,VWS V14.01,2013-04-22 01:22:00,
2013-04-21 20:23:00,38.1,34.0,29.88,NW,315,10.1,10.1,85,0.00,,,0.16,VWS V14.01,2013-04-22 01:23:00,
2013-04-21 20:24:00,38.1,34.0,29.88,North,0,7.4,7.4,85,0.00,,,0.16,VWS V14.01,2013-04-22 01:24:00,
2013-04-21 20:25:00,38.1,34.0,29.88,SW,225,3.4,3.4,85,0.00,,,0.16,VWS V14.01,2013-04-22 01:25:00,
2013-04-21 20:26:00,38.1,34.0,29.91,SE,135,6.0,6.0,85,0.00,,,0.16,VWS V14.01,2013-04-22 01:26:00,
2013-04-21 20:27:00,37.9,33.8,29.91,NW,315,3.4,3.4,85,0.00,,,0.16,VWS V14.01,2013-04-22 01:27:00,
2013-04-21 20:28:00,37.9,33.8,29.91,NW,315,6.0,6.0,85,0.00,,,0.16,VWS V14.01,2013-04-22 01:28:00,
2013-04-21 20:29:00,37.9,33.8,29.91,NNE,22,9.4,9.4,85,0.00,,,0.16,VWS V14.01,2013-04-22 01:29:00,
2013-04-21 20:30:00,37.9,33.8,29.91,WSW,248,3.4,3.4,85,0.00,,,0.16,VWS V14.01,2013-04-22 01:30:00,
2013-04-21 20:31:00,37.9,33.8,29.91,WNW,292,14.8,14.8,85,0.00,,,0.16,VWS V14.01,2013-04-22 01:31:00,
2013-04-21 20:32:00,37.9,33.8,29.91,NW,315,4.7,4.9,85,0.00,,,0.16,VWS V14.01,2013-04-22 01:32:00,
2013-04-21 20:33:00,37.9,33.8,29.91,ENE,68,4.0,4.0,85,0.00,,,0.16,VWS V14.01,2013-04-22 01:33:00,
2013-04-21 20:34:00,37.9,33.8,29.91,West,270,8.7,8.7,85,0.00,,,0.16,VWS V14.01,2013-04-22 01:34:00,
2013-04-21 20:35:00,37.9,33.8,29.91,WSW,248,3.4,3.4,85,0.00,,,0.16,VWS V14.01,2013-04-22 01:35:00,
2013-04-21 20:36:00,37.9,33.8,29.91,WSW,248,3.4,3.4,85,0.00,,,0.16,VWS V14.01,2013-04-22 01:36:00,
2013-04-21 20:37:00,37.9,33.8,29.91,WSW,248,11.4,11.4,85,0.00,,,0.16,VWS V14.01,2013-04-22 01:37:00,
2013-04-21 20:38:00,37.9,33.8,29.91,WNW,292,4.0,4.0,85,0.00,,,0.16,VWS V14.01,2013-04-22 01:38:00,
2013-04-21 20:39:00,37.9,33.8,29.91,WSW,248,4.0,4.0,85,0.00,,,0.16,VWS V14.01,2013-04-22 01:39:00,
2013-04-21 20:40:00,37.9,33.8,29.91,SW,225,8.1,8.1,85,0.00,,,0.16,VWS V14.01,2013-04-22 01:40:00,
2013-04-21 20:41:00,37.9,33.8,29.91,WSW,248,10.1,10.1,85,0.00,,,0.16,VWS V14.01,2013-04-22 01:41:00,
2013-04-21 20:42:00,37.9,34.1,29.91,NNW,338,8.1,8.1,86,0.00,,,0.16,VWS V14.01,2013-04-22 01:42:00,
2013-04-21 20:43:00,37.8,34.0,29.91,NW,315,9.4,9.4,86,0.00,,,0.16,VWS V14.01,2013-04-22 01:43:00,
2013-04-21 20:44:00,37.8,34.0,29.91,WNW,292,2.7,3.1,86,0.00,,,0.16,VWS V14.01,2013-04-22 01:44:00,
2013-04-21 20:45:00,37.8,34.0,29.91,NNW,338,9.4,9.4,86,0.00,,,0.16,VWS V14.01,2013-04-22 01:45:00,
2013-04-21 20:46:00,37.8,34.0,29.91,NE,45,4.7,4.7,86,0.00,,,0.16,VWS V14.01,2013-04-22 01:46:00,
2013-04-21 20:47:00,37.8,34.0,29.91,East,90,6.7,6.7,86,0.00,,,0.16,VWS V14.01,2013-04-22 01:47:00,
2013-04-21 20:48:00,37.6,33.8,29.91,South,180,9.4,9.4,86,0.00,,,0.16,VWS V14.01,2013-04-22 01:48:00,
2013-04-21 20:49:00,37.8,34.0,29.91,WSW,248,4.7,4.7,86,0.00,,,0.16,VWS V14.01,2013-04-22 01:49:00,
2013-04-21 20:50:00,37.6,33.8,29.91,NNW,338,9.4,9.4,86,0.00,,,0.16,VWS V14.01,2013-04-22 01:50:00,
2013-04-21 20:51:00,37.6,33.8,29.91,SW,225,6.0,6.0,86,0.00,,,0.16,VWS V14.01,2013-04-22 01:51:00,
2013-04-21 20:52:00,37.6,33.8,29.91,SSW,202,7.4,7.4,86,0.00,,,0.16,VWS V14.01,2013-04-22 01:52:00,
2013-04-21 20:53:00,37.6,33.8,29.91,NW,315,6.0,6.0,86,0.00,,,0.16,VWS V14.01,2013-04-22 01:53:00,
2013-04-21 20:54:00,37.6,33.8,29.91,NW,315,7.4,7.4,86,0.00,,,0.16,VWS V14.01,2013-04-22 01:54:00,
2013-04-21 20:55:00,37.6,33.8,29.91,WSW,248,4.7,4.7,86,0.00,,,0.16,VWS V14.01,2013-04-22 01:55:00,
2013-04-21 20:56:00,37.6,33.8,29.91,SSE,158,11.4,11.4,86,0.00,,,0.16,VWS V14.01,2013-04-22 01:56:00,
2013-04-21 20:57:00,37.6,33.8,29.91,SSE,158,4.0,4.0,86,0.00,,,0.16,VWS V14.01,2013-04-22 01:57:00,
2013-04-21 20:58:00,37.6,33.8,29.91,WSW,248,3.4,3.4,86,0.00,,,0.16,VWS V14.01,2013-04-22 01:58:00,
2013-04-21 20:59:00,37.6,33.8,29.91,WSW,248,6.7,6.7,86,0.00,,,0.16,VWS V14.01,2013-04-22 01:59:00,
2013-04-21 21:00:00,37.6,33.8,29.91,West,270,4.7,4.7,86,0.00,,,0.25,VWS V14.01,2013-04-22 02:00:00,
2013-04-21 21:01:00,37.6,33.8,29.91,West,270,8.7,8.7,86,0.00,,,0.16,VWS V14.01,2013-04-22 02:01:00,
2013-04-21 21:02:00,37.6,33.8,29.91,North,0,7.4,7.4,86,0.00,,,0.16,VWS V14.01,2013-04-22 02:02:00,
2013-04-21 21:03:00,37.6,33.8,29.91,WNW,292,9.4,9.4,86,0.00,,,0.16,VWS V14.01,2013-04-22 02:03:00,
2013-04-21 21:04:00,37.6,33.8,29.91,ENE,68,12.1,12.1,86,0.00,,,0.16,VWS V14.01,2013-04-22 02:04:00,
2013-04-21 21:05:00,37.6,34.1,29.91,NNW,338,9.4,9.4,87,0.00,,,0.16,VWS V14.01,2013-04-22 02:05:00,
2013-04-21 21:06:00,37.6,34.1,29.91,NNW,338,3.4,3.4,87,0.00,,,0.16,VWS V14.01,2013-04-22 02:06:00,
2013-04-21 21:07:00,37.6,34.1,29.91,NNW,338,4.0,4.0,87,0.00,,,0.16,VWS V14.01,2013-04-22 02:07:00,
2013-04-21 21:08:00,37.4,33.9,29.91,ENE,68,6.7,6.7,87,0.00,,,0.16,VWS V14.01,2013-04-22 02:08:00,
2013-04-21 21:09:00,37.4,33.9,29.91,NNW,338,19.5,19.5,87,0.00,,,0.16,VWS V14.01,2013-04-22 02:09:00,
2013-04-21 21:10:00,37.6,34.1,29.91,NW,315,10.1,10.1,87,0.00,,,0.16,VWS V14.01,2013-04-22 02:10:00,
2013-04-21 21:11:00,37.4,33.9,29.94,NW,315,7.4,7.4,87,0.00,,,0.16,VWS V14.01,2013-04-22 02:11:00,
2013-04-21 21:12:00,37.4,33.9,29.94,SSW,202,12.8,12.8,87,0.00,,,0.16,VWS V14.01,2013-04-22 02:12:00,
2013-04-21 21:13:00,37.4,33.9,29.94,NW,315,8.1,8.1,87,0.00,,,0.16,VWS V14.01,2013-04-22 02:13:00,
2013-04-21 21:14:00,37.4,33.9,29.94,NW,315,6.7,6.7,87,0.00,,,0.16,VWS V14.01,2013-04-22 02:14:00,
2013-04-21 21:15:00,37.4,33.9,29.94,NW,315,4.7,4.7,87,0.00,,,0.16,VWS V14.01,2013-04-22 02:15:00,
2013-04-21 21:16:00,37.4,33.9,29.94,NW,315,7.4,7.4,87,0.00,,,0.16,VWS V14.01,2013-04-22 02:16:00,
2013-04-21 21:17:00,37.4,33.9,29.94,NW,315,3.4,3.4,87,0.00,,,0.16,VWS V14.01,2013-04-22 02:17:00,
2013-04-21 21:18:00,37.4,33.9,29.94,North,0,6.7,6.7,87,0.00,,,0.16,VWS V14.01,2013-04-22 02:18:00,
2013-04-21 21:19:00,37.4,33.9,29.94,NW,315,10.1,10.1,87,0.00,,,0.16,VWS V14.01,2013-04-22 02:19:00,
2013-04-21 21:20:00,37.2,33.7,29.94,NNW,338,14.1,14.1,87,0.00,,,0.16,VWS V14.01,2013-04-22 02:20:00,
2013-04-21 21:21:00,37.2,33.7,29.94,NE,45,6.0,6.0,87,0.00,,,0.16,VWS V14.01,2013-04-22 02:21:00,
2013-04-21 21:22:00,37.2,33.7,29.94,NW,315,11.4,11.4,87,0.00,,,0.16,VWS V14.01,2013-04-22 02:22:00,
2013-04-21 21:23:00,37.2,33.7,29.94,NNE,22,7.4,7.4,87,0.00,,,0.16,VWS V14.01,2013-04-22 02:23:00,
2013-04-21 21:24:00,37.2,33.7,29.94,SW,225,19.5,19.5,87,0.00,,,0.16,VWS V14.01,2013-04-22 02:24:00,
2013-04-21 21:25:00,37.2,33.7,29.94,NW,315,7.4,7.4,87,0.00,,,0.16,VWS V14.01,2013-04-22 02:25:00,
2013-04-21 21:26:00,37.2,33.7,29.94,NNW,338,12.1,12.1,87,0.00,,,0.16,VWS V14.01,2013-04-22 02:26:00,
2013-04-21 21:27:00,37.2,33.7,29.94,South,180,6.0,6.0,87,0.00,,,0.16,VWS V14.01,2013-04-22 02:27:00,
2013-04-21 21:28:00,37.0,33.5,29.94,NW,315,12.8,12.8,87,0.00,,,0.16,VWS V14.01,2013-04-22 02:28:00,
2013-04-21 21:29:00,37.0,33.5,29.94,NNW,338,11.4,11.4,87,0.00,,,0.16,VWS V14.01,2013-04-22 02:29:00,
2013-04-21 21:30:00,37.0,33.5,29.94,WNW,292,12.1,12.1,87,0.00,,,0.16,VWS V14.01,2013-04-22 02:30:00,
2013-04-21 21:31:00,37.0,33.5,29.94,NNW,338,8.7,8.7,87,0.00,,,0.16,VWS V14.01,2013-04-22 02:31:00,
2013-04-21 21:32:00,37.0,33.5,29.94,NNW,338,17.5,17.5,87,0.00,,,0.16,VWS V14.01,2013-04-22 02:32:00,
2013-04-21 21:33:00,37.0,33.2,29.94,West,270,6.0,6.0,86,0.00,,,0.16,VWS V14.01,2013-04-22 02:33:00,
2013-04-21 21:34:00,37.0,33.2,29.94,NNW,338,9.4,9.4,86,0.00,,,0.16,VWS V14.01,2013-04-22 02:34:00,
2013-04-21 21:35:00,37.0,33.2,29.94,NW,315,4.7,4.7,86,0.00,,,0.16,VWS V14.01,2013-04-22 02:35:00,
2013-04-21 21:36:00,36.9,33.1,29.94,NW,315,7.4,7.4,86,0.00,,,0.16,VWS V14.01,2013-04-22 02:36:00,
2013-04-21 21:37:00,36.9,33.1,29.94,NNW,338,11.4,11.4,86,0.00,,,0.16,VWS V14.01,2013-04-22 02:37:00,
2013-04-21 21:38:00,36.9,33.1,29.94,NNW,338,12.1,12.1,86,0.00,,,0.16,VWS V14.01,2013-04-22 02:38:00,
2013-04-21 21:39:00,36.9,33.1,29.94,North,0,14.8,14.8,86,0.00,,,0.16,VWS V14.01,2013-04-22 02:39:00,
2013-04-21 21:40:00,36.9,33.1,29.94,NNW,338,10.1,10.1,86,0.00,,,0.16,VWS V14.01,2013-04-22 02:40:00,
2013-04-21 21:41:00,36.9,33.1,29.94,NNW,338,14.1,14.1,86,0.00,,,0.16,VWS V14.01,2013-04-22 02:41:00,
2013-04-21 21:42:00,36.9,32.8,29.94,NNE,22,6.0,6.0,85,0.00,,,0.16,VWS V14.01,2013-04-22 02:42:00,
2013-04-21 21:43:00,36.9,32.8,29.94,NNW,338,8.7,8.7,85,0.00,,,0.16,VWS V14.01,2013-04-22 02:43:00,
2013-04-21 21:44:00,36.9,32.8,29.94,WNW,292,10.7,10.7,85,0.00,,,0.16,VWS V14.01,2013-04-22 02:44:00,
2013-04-21 21:45:00,36.9,32.8,29.94,NE,45,8.1,8.1,85,0.00,,,0.16,VWS V14.01,2013-04-22 02:45:00,
2013-04-21 21:46:00,36.7,32.6,29.94,ENE,68,8.7,8.7,85,0.00,,,0.16,VWS V14.01,2013-04-22 02:46:00,
2013-04-21 21:47:00,36.7,32.6,29.94,North,0,9.4,9.4,85,0.00,,,0.16,VWS V14.01,2013-04-22 02:47:00,
2013-04-21 21:48:00,36.7,32.6,29.94,NNE,22,10.1,10.1,85,0.00,,,0.16,VWS V14.01,2013-04-22 02:48:00,
2013-04-21 21:49:00,36.7,32.6,29.94,NE,45,8.7,8.7,85,0.00,,,0.16,VWS V14.01,2013-04-22 02:49:00,
2013-04-21 21:50:00,36.7,32.3,29.94,North,0,3.4,3.4,84,0.00,,,0.16,VWS V14.01,2013-04-22 02:50:00,
2013-04-21 21:51:00,36.7,32.3,29.94,SSW,202,17.5,17.5,84,0.00,,,0.16,VWS V14.01,2013-04-22 02:51:00,
2013-04-21 21:52:00,36.7,32.3,29.94,NNE,22,12.8,12.8,84,0.00,,,0.16,VWS V14.01,2013-04-22 02:52:00,
2013-04-21 21:53:00,36.7,32.3,29.94,West,270,9.4,9.4,84,0.00,,,0.16,VWS V14.01,2013-04-22 02:53:00,
2013-04-21 21:54:00,36.7,32.3,29.94,NW,315,16.1,16.1,84,0.00,,,0.16,VWS V14.01,2013-04-22 02:54:00,
2013-04-21 21:55:00,36.5,31.8,29.94,SE,135,10.1,10.1,83,0.00,,,0.16,VWS V14.01,2013-04-22 02:55:00,
2013-04-21 21:56:00,36.5,31.8,29.94,North,0,12.8,12.8,83,0.00,,,0.16,VWS V14.01,2013-04-22 02:56:00,
2013-04-21 21:57:00,36.5,31.8,29.94,NW,315,12.1,12.1,83,0.00,,,0.16,VWS V14.01,2013-04-22 02:57:00,
2013-04-21 21:58:00,36.5,31.8,29.94,NW,315,6.7,6.7,83,0.00,,,0.16,VWS V14.01,2013-04-22 02:58:00,
2013-04-21 21:59:00,36.5,31.5,29.94,ENE,68,4.0,4.0,82,0.00,,,0.16,VWS V14.01,2013-04-22 02:59:00,
2013-04-21 22:00:00,36.5,31.5,29.94,NNW,338,17.5,17.5,82,0.00,,,0.16,VWS V14.01,2013-04-22 03:00:00,
2013-04-21 22:01:00,36.3,31.4,29.94,NNW,338,8.1,8.1,82,0.00,,,0.16,VWS V14.01,2013-04-22 03:01:00,
2013-04-21 22:02:00,36.3,31.4,29.94,NNE,22,12.1,12.1,82,0.00,,,0.16,VWS V14.01,2013-04-22 03:02:00,
2013-04-21 22:03:00,36.3,31.1,29.94,WSW,248,7.4,7.4,81,0.00,,,0.16,VWS V14.01,2013-04-22 03:03:00,
2013-04-21 22:04:00,36.3,31.1,29.94,NNW,338,14.8,14.8,81,0.00,,,0.16,VWS V14.01,2013-04-22 03:04:00,
2013-04-21 22:05:00,36.3,30.8,29.94,NW,315,7.4,8.1,80,0.00,,,0.16,VWS V14.01,2013-04-22 03:05:00,
2013-04-21 22:06:00,36.3,30.4,29.94,NW,315,10.7,10.7,79,0.00,,,0.16,VWS V14.01,2013-04-22 03:06:00,
2013-04-21 22:07:00,36.3,30.4,29.94,NNW,338,6.0,6.0,79,0.00,,,0.16,VWS V14.01,2013-04-22 03:07:00,
2013-04-21 22:08:00,36.3,30.4,29.94,NE,45,11.4,11.4,79,0.00,,,0.16,VWS V14.01,2013-04-22 03:08:00,
2013-04-21 22:09:00,36.3,30.4,29.94,NNE,22,6.0,6.0,79,0.00,,,0.16,VWS V14.01,2013-04-22 03:09:00,
2013-04-21 22:10:00,36.3,30.4,29.94,North,0,6.0,6.0,79,0.00,,,0.16,VWS V14.01,2013-04-22 03:10:00,
2013-04-21 22:11:00,36.3,30.4,29.94,NW,315,10.1,10.1,79,0.00,,,0.16,VWS V14.01,2013-04-22 03:11:00,
2013-04-21 22:12:00,36.3,30.1,29.94,NNW,338,8.7,8.7,78,0.00,,,0.16,VWS V14.01,2013-04-22 03:12:00,
2013-04-21 22:13:00,36.1,30.0,29.94,NNW,338,6.7,6.7,78,0.00,,,0.16,VWS V14.01,2013-04-22 03:13:00,
2013-04-21 22:14:00,36.1,30.0,29.94,North,0,14.8,14.8,78,0.00,,,0.16,VWS V14.01,2013-04-22 03:14:00,
2013-04-21 22:15:00,36.1,30.0,29.94,NNE,22,8.1,8.1,78,0.00,,,0.16,VWS V14.01,2013-04-22 03:15:00,
2013-04-21 22:16:00,36.1,30.0,29.94,NNW,338,8.7,8.7,78,0.00,,,0.16,VWS V14.01,2013-04-22 03:16:00,
2013-04-21 22:17:00,36.1,30.0,29.94,ENE,68,7.4,7.4,78,0.00,,,0.16,VWS V14.01,2013-04-22 03:17:00,
2013-04-21 22:18:00,36.1,29.6,29.94,NNW,338,10.1,10.1,77,0.00,,,0.16,VWS V14.01,2013-04-22 03:18:00,
2013-04-21 22:19:00,36.1,29.6,29.94,West,270,10.7,10.7,77,0.00,,,0.16,VWS V14.01,2013-04-22 03:19:00,
2013-04-21 22:20:00,36.1,29.6,29.94,WNW,292,3.4,3.8,77,0.00,,,0.16,VWS V14.01,2013-04-22 03:20:00,
2013-04-21 22:21:00,36.1,29.6,29.94,NNW,338,2.7,3.6,77,0.00,,,0.16,VWS V14.01,2013-04-22 03:21:00,
2013-04-21 22:22:00,36.1,29.6,29.94,NE,45,4.7,4.7,77,0.00,,,0.16,VWS V14.01,2013-04-22 03:22:00,
2013-04-21 22:23:00,36.1,29.6,29.94,NNW,338,10.7,10.7,77,0.00,,,0.16,VWS V14.01,2013-04-22 03:23:00,
2013-04-21 22:24:00,36.1,29.6,29.94,NNW,338,6.0,6.0,77,0.00,,,0.16,VWS V14.01,2013-04-22 03:24:00,
2013-04-21 22:25:00,36.1,29.6,29.94,NNW,338,4.0,4.0,77,0.00,,,0.16,VWS V14.01,2013-04-22 03:25:00,
2013-04-21 22:26:00,36.0,29.5,29.94,West,270,10.7,10.7,77,0.00,,,0.16,VWS V14.01,2013-04-22 03:26:00,
2013-04-21 22:27:00,36.0,29.5,29.94,WNW,292,7.4,7.4,77,0.00,,,0.16,VWS V14.01,2013-04-22 03:27:00,
2013-04-21 22:28:00,36.0,29.5,29.94,NE,45,10.1,10.1,77,0.00,,,0.16,VWS V14.01,2013-04-22 03:28:00,
2013-04-21 22:29:00,36.0,29.5,29.94,NNE,22,16.8,16.8,77,0.00,,,0.16,VWS V14.01,2013-04-22 03:29:00,
2013-04-21 22:30:00,36.0,29.1,29.94,NNE,22,7.4,7.4,76,0.00,,,0.16,VWS V14.01,2013-04-22 03:30:00,
2013-04-21 22:31:00,36.0,29.1,29.94,NNW,338,8.7,8.7,76,0.00,,,0.16,VWS V14.01,2013-04-22 03:31:00,
2013-04-21 22:32:00,36.0,29.1,29.94,WSW,248,14.1,14.1,76,0.00,,,0.16,VWS V14.01,2013-04-22 03:32:00,
2013-04-21 22:33:00,36.0,29.1,29.94,NNE,22,11.4,11.4,76,0.00,,,0.16,VWS V14.01,2013-04-22 03:33:00,
2013-04-21 22:34:00,36.0,29.1,29.94,NNW,338,12.1,12.1,76,0.00,,,0.16,VWS V14.01,2013-04-22 03:34:00,
2013-04-21 22:35:00,36.0,29.1,29.94,NNW,338,8.7,8.7,76,0.00,,,0.16,VWS V14.01,2013-04-22 03:35:00,
2013-04-21 22:36:00,36.1,29.0,29.94,North,0,10.7,10.7,75,0.00,,,0.16,VWS V14.01,2013-04-22 03:36:00,
2013-04-21 22:37:00,36.1,29.0,29.94,NW,315,12.8,12.8,75,0.00,,,0.16,VWS V14.01,2013-04-22 03:37:00,
2013-04-21 22:38:00,36.1,28.7,29.94,NW,315,12.8,12.8,74,0.00,,,0.16,VWS V14.01,2013-04-22 03:38:00,
2013-04-21 22:39:00,36.1,28.7,29.94,WNW,292,4.7,4.7,74,0.00,,,0.16,VWS V14.01,2013-04-22 03:39:00,
2013-04-21 22:40:00,36.1,28.7,29.94,NNW,338,10.1,10.1,74,0.00,,,0.16,VWS V14.01,2013-04-22 03:40:00,
2013-04-21 22:41:00,36.1,28.7,29.94,NNW,338,10.1,10.1,74,0.00,,,0.16,VWS V14.01,2013-04-22 03:41:00,
2013-04-21 22:42:00,36.1,28.7,29.94,North,0,11.4,11.4,74,0.00,,,0.16,VWS V14.01,2013-04-22 03:42:00,
2013-04-21 22:43:00,36.1,28.7,29.94,NW,315,6.0,6.0,74,0.00,,,0.16,VWS V14.01,2013-04-22 03:43:00,
2013-04-21 22:44:00,36.0,28.5,29.94,NNW,338,6.0,6.0,74,0.00,,,0.16,VWS V14.01,2013-04-22 03:44:00,
2013-04-21 22:45:00,36.0,28.5,29.94,North,0,4.0,4.0,74,0.00,,,0.16,VWS V14.01,2013-04-22 03:45:00,
2013-04-21 22:46:00,36.0,28.5,29.94,WNW,292,8.7,8.7,74,0.00,,,0.16,VWS V14.01,2013-04-22 03:46:00,
2013-04-21 22:47:00,36.0,28.5,29.94,West,270,6.0,6.0,74,0.00,,,0.16,VWS V14.01,2013-04-22 03:47:00,
2013-04-21 22:48:00,36.0,28.5,29.94,West,270,6.0,6.0,74,0.00,,,0.16,VWS V14.01,2013-04-22 03:48:00,
2013-04-21 22:49:00,36.0,28.5,29.94,NW,315,6.0,6.0,74,0.00,,,0.16,VWS V14.01,2013-04-22 03:49:00,
2013-04-21 22:50:00,36.0,28.5,29.94,NW,315,6.0,6.0,74,0.00,,,0.16,VWS V14.01,2013-04-22 03:50:00,
2013-04-21 22:51:00,36.0,28.5,29.94,NNE,22,12.1,12.1,74,0.00,,,0.16,VWS V14.01,2013-04-22 03:51:00,
2013-04-21 22:52:00,36.0,28.5,29.94,NNW,338,8.7,8.7,74,0.00,,,0.16,VWS V14.01,2013-04-22 03:52:00,
2013-04-21 22:53:00,35.8,28.3,29.94,NNE,22,8.1,8.1,74,0.00,,,0.16,VWS V14.01,2013-04-22 03:53:00,
2013-04-21 22:54:00,35.8,28.3,29.94,NNW,338,4.0,4.0,74,0.00,,,0.16,VWS V14.01,2013-04-22 03:54:00,
2013-04-21 22:55:00,35.8,28.3,29.94,North,0,4.7,4.7,74,0.00,,,0.16,VWS V14.01,2013-04-22 03:55:00,
2013-04-21 22:56:00,35.8,28.3,29.94,NNW,338,8.1,8.1,74,0.00,,,0.16,VWS V14.01,2013-04-22 03:56:00,
2013-04-21 22:57:00,35.8,28.3,29.94,NW,315,14.1,14.1,74,0.00,,,0.16,VWS V14.01,2013-04-22 03:57:00,
2013-04-21 22:58:00,35.8,28.3,29.94,NW,315,14.1,14.1,74,0.00,,,0.16,VWS V14.01,2013-04-22 03:58:00,
2013-04-21 22:59:00,35.8,28.3,29.94,NNW,338,11.4,11.4,74,0.00,,,0.16,VWS V14.01,2013-04-22 03:59:00,
2013-04-21 23:00:00,35.8,28.3,29.94,NNW,338,9.4,9.4,74,0.00,,,0.16,VWS V14.01,2013-04-22 04:00:00,
2013-04-21 23:01:00,35.8,28.3,29.94,NNW,338,7.4,7.4,74,0.00,,,0.16,VWS V14.01,2013-04-22 04:01:00,
2013-04-21 23:02:00,35.8,28.3,29.94,SE,135,8.1,8.1,74,0.00,,,0.16,VWS V14.01,2013-04-22 04:02:00,
2013-04-21 23:03:00,35.8,28.3,29.94,NNW,338,10.1,10.1,74,0.00,,,0.16,VWS V14.01,2013-04-22 04:03:00,
2013-04-21 23:04:00,35.8,28.3,29.94,NNW,338,10.7,10.7,74,0.00,,,0.16,VWS V14.01,2013-04-22 04:04:00,
2013-04-21 23:05:00,35.8,28.3,29.94,NNW,338,10.7,10.7,74,0.00,,,0.16,VWS V14.01,2013-04-22 04:05:00,
2013-04-21 23:06:00,35.8,28.0,29.94,NNW,338,10.7,10.7,73,0.00,,,0.16,VWS V14.01,2013-04-22 04:06:00,
2013-04-21 23:07:00,35.8,28.0,29.94,NNW,338,6.7,6.7,73,0.00,,,0.16,VWS V14.01,2013-04-22 04:07:00,
2013-04-21 23:08:00,35.8,28.0,29.94,WNW,292,16.1,16.1,73,0.00,,,0.16,VWS V14.01,2013-04-22 04:08:00,
2013-04-21 23:09:00,35.8,28.0,29.94,NNW,338,6.7,6.7,73,0.00,,,0.16,VWS V14.01,2013-04-22 04:09:00,
2013-04-21 23:10:00,35.8,28.0,29.94,NNW,338,6.7,6.7,73,0.00,,,0.16,VWS V14.01,2013-04-22 04:10:00,
2013-04-21 23:11:00,35.8,28.0,29.94,NNW,338,4.0,4.0,73,0.00,,,0.16,VWS V14.01,2013-04-22 04:11:00,
2013-04-21 23:12:00,35.8,27.6,29.94,NNE,22,16.1,16.1,72,0.00,,,0.16,VWS V14.01,2013-04-22 04:12:00,
2013-04-21 23:13:00,35.8,27.6,29.94,NNW,338,8.1,8.1,72,0.00,,,0.16,VWS V14.01,2013-04-22 04:13:00,
2013-04-21 23:14:00,35.8,27.6,29.94,NNW,338,8.1,8.1,72,0.00,,,0.16,VWS V14.01,2013-04-22 04:14:00,
2013-04-21 23:15:00,35.8,27.6,29.94,NW,315,6.0,6.0,72,0.00,,,0.16,VWS V14.01,2013-04-22 04:15:00,
2013-04-21 23:16:00,35.8,27.6,29.94,NW,315,6.0,6.0,72,0.00,,,0.16,VWS V14.01,2013-04-22 04:16:00,
2013-04-21 23:17:00,35.8,27.6,29.94,NNW,338,7.4,7.4,72,0.00,,,0.16,VWS V14.01,2013-04-22 04:17:00,
2013-04-21 23:18:00,35.8,27.6,29.94,NW,315,4.7,4.7,72,0.00,,,0.16,VWS V14.01,2013-04-22 04:18:00,
2013-04-21 23:19:00,35.8,27.6,29.94,North,0,0.0,1.6,72,0.00,,,0.16,VWS V14.01,2013-04-22 04:19:00,
2013-04-21 23:20:00,35.8,27.6,29.94,North,0,0.0,1.6,72,0.00,,,0.16,VWS V14.01,2013-04-22 04:20:00,
2013-04-21 23:21:00,35.8,27.3,29.94,North,0,0.0,0.0,71,0.00,,,0.16,VWS V14.01,2013-04-22 04:21:00,
2013-04-21 23:22:00,35.8,27.3,29.94,NE,45,4.0,4.0,71,0.00,,,0.16,VWS V14.01,2013-04-22 04:22:00,
2013-04-21 23:23:00,35.8,27.3,29.94,NNW,338,7.4,7.4,71,0.00,,,0.16,VWS V14.01,2013-04-22 04:23:00,
2013-04-21 23:24:00,35.8,27.3,29.94,SSW,202,8.7,8.7,71,0.00,,,0.16,VWS V14.01,2013-04-22 04:24:00,
2013-04-21 23:25:00,35.8,27.3,29.94,NNW,338,4.7,4.7,71,0.00,,,0.16,VWS V14.01,2013-04-22 04:25:00,
2013-04-21 23:26:00,35.8,27.3,29.94,NNW,338,6.7,6.7,71,0.00,,,0.16,VWS V14.01,2013-04-22 04:26:00,
2013-04-21 23:27:00,35.8,27.3,29.94,NNW,338,10.7,10.7,71,0.00,,,0.16,VWS V14.01,2013-04-22 04:27:00,
2013-04-21 23:28:00,35.8,27.3,29.94,North,0,0.0,3.6,71,0.00,,,0.16,VWS V14.01,2013-04-22 04:28:00,
2013-04-21 23:29:00,35.6,27.1,29.94,NNW,338,3.4,3.4,71,0.00,,,0.16,VWS V14.01,2013-04-22 04:29:00,
2013-04-21 23:30:00,35.8,27.3,29.94,NNW,338,14.8,14.8,71,0.00,,,0.16,VWS V14.01,2013-04-22 04:30:00,
2013-04-21 23:31:00,35.8,27.3,29.94,North,0,8.7,8.7,71,0.00,,,0.16,VWS V14.01,2013-04-22 04:31:00,
2013-04-21 23:32:00,35.8,27.3,29.94,North,0,8.7,8.7,71,0.00,,,0.16,VWS V14.01,2013-04-22 04:32:00,
2013-04-21 23:33:00,35.8,27.3,29.94,NNW,338,3.4,3.4,71,0.00,,,0.16,VWS V14.01,2013-04-22 04:33:00,
2013-04-21 23:34:00,35.8,27.3,29.94,NW,315,7.4,7.4,71,0.00,,,0.16,VWS V14.01,2013-04-22 04:34:00,
2013-04-21 23:35:00,35.6,27.1,29.94,NW,315,8.1,8.1,71,0.00,,,0.16,VWS V14.01,2013-04-22 04:35:00,
2013-04-21 23:36:00,35.6,27.1,29.94,NNW,338,4.7,4.7,71,0.00,,,0.16,VWS V14.01,2013-04-22 04:36:00,
2013-04-21 23:37:00,35.6,27.1,29.94,NNW,338,4.7,4.7,71,0.00,,,0.16,VWS V14.01,2013-04-22 04:37:00,
2013-04-21 23:38:00,35.6,27.1,29.94,SW,225,8.1,8.1,71,0.00,,,0.16,VWS V14.01,2013-04-22 04:38:00,
2013-04-21 23:39:00,35.8,27.3,29.94,NNE,22,16.1,16.1,71,0.00,,,0.16,VWS V14.01,2013-04-22 04:39:00,
2013-04-21 23:40:00,35.8,27.3,29.94,NNE,22,16.1,16.1,71,0.00,,,0.16,VWS V14.01,2013-04-22 04:40:00,
2013-04-21 23:41:00,35.8,27.3,29.97,West,270,9.4,9.4,71,0.00,,,0.16,VWS V14.01,2013-04-22 04:41:00,
2013-04-21 23:42:00,35.8,27.3,29.97,West,270,9.4,9.4,71,0.00,,,0.16,VWS V14.01,2013-04-22 04:42:00,
2013-04-21 23:43:00,35.6,27.1,29.97,NNW,338,7.4,7.4,71,0.00,,,0.16,VWS V14.01,2013-04-22 04:43:00,
2013-04-21 23:44:00,35.8,27.3,29.97,NNW,338,14.8,14.8,71,0.00,,,0.16,VWS V14.01,2013-04-22 04:44:00,
2013-04-21 23:45:00,35.8,27.0,29.97,NNW,338,14.8,14.8,70,0.00,,,0.16,VWS V14.01,2013-04-22 04:45:00,
2013-04-21 23:46:00,35.8,27.0,29.97,NW,315,14.8,14.8,70,0.00,,,0.16,VWS V14.01,2013-04-22 04:46:00,
2013-04-21 23:47:00,35.8,27.0,29.97,NW,315,8.1,8.1,70,0.00,,,0.16,VWS V14.01,2013-04-22 04:47:00,
2013-04-21 23:48:00,35.8,27.0,29.97,NNW,338,11.4,11.4,70,0.00,,,0.16,VWS V14.01,2013-04-22 04:48:00,
2013-04-21 23:49:00,35.8,27.0,29.97,ENE,68,12.1,12.1,70,0.00,,,0.16,VWS V14.01,2013-04-22 04:49:00,
2013-04-21 23:50:00,35.8,27.0,29.97,ENE,68,12.1,12.1,70,0.00,,,0.16,VWS V14.01,2013-04-22 04:50:00,
2013-04-21 23:51:00,35.8,27.0,29.97,ENE,68,12.1,12.1,70,0.00,,,0.16,VWS V14.01,2013-04-22 04:51:00,
2013-04-21 23:52:00,35.8,27.0,29.97,ENE,68,12.1,12.1,70,0.00,,,0.16,VWS V14.01,2013-04-22 04:52:00,
2013-04-21 23:53:00,35.8,26.6,29.97,ENE,68,12.1,12.1,69,0.00,,,0.16,VWS V14.01,2013-04-22 04:53:00,
2013-04-21 23:54:00,35.6,26.5,29.97,NNE,22,6.7,6.7,69,0.00,,,0.16,VWS V14.01,2013-04-22 04:54:00,
2013-04-21 23:55:00,35.6,26.5,29.97,East,90,7.4,7.4,69,0.00,,,0.16,VWS V14.01,2013-04-22 04:55:00,
2013-04-21 23:56:00,35.6,26.5,29.97,East,90,7.4,7.4,69,0.00,,,0.16,VWS V14.01,2013-04-22 04:56:00,
2013-04-21 23:57:00,35.6,26.5,29.97,NNE,22,6.7,6.7,69,0.00,,,0.16,VWS V14.01,2013-04-22 04:57:00,
2013-04-21 23:58:00,35.6,26.5,29.97,NNE,22,6.7,6.7,69,0.00,,,0.16,VWS V14.01,2013-04-22 04:58:00,
2013-04-21 23:59:00,35.6,26.5,29.97,NNE,22,6.7,6.7,69,0.00,,,0.16,VWS V14.01,2013-04-22 04:59:00,